[[{"header":{"parameterUnit":"m.s-1","parameterCategory":1,"la1":31.0,"la2":29.5877,"lo1":-88.7671,"lo2":-86.6584,"dy":0.0162,"dx":0.0185,"nx":115,"ny":88,"refTime":"2023-04-04T12:00:00:Z","depth":0,"parameterNumber":2,"parameterNumberName":"U-component_of_WINDS"},"data":[0.0,0.0,0.0,0.0,0.0,0.0,0.0,0.0,0.0,0.0,0.0,0.0,0.0,0.0,0.0,0.0,0.0,0.0,0.0,0.0,0.0,0.0,0.0,0.0,0.0,0.0,0.0,0.0,0.0,0.0,0.0,0.0,0.0,0.0,0.0,0.0,0.0,0.0,0.0,0.0,0.0,0.0,0.0,0.0,0.0,0.0,0.0,0.0,0.0,0.0,0.0,0.0,0.0,0.0,0.0,0.0,0.0,0.0,0.0,0.0,0.0,0.0,0.0,0.0,0.0,0.0,0.0,0.0,0.0,0.0,0.0,0.0,0.0,0.0,0.0,0.0,0.0,0.0,0.0,0.0,0.0,0.0,0.0,0.0,0.0,0.0,0.0,0.0,0.0,0.0,0.0,0.0,0.0,0.0,0.0,0.0,0.0,0.0,0.0,0.0,0.0,0.0,0.0,0.0,0.0,0.0,0.0,0.0,0.0,0.0,0.0,0.0,0.0,0.0,0.0,0.0,0.0,0.0,0.0,0.0,0.0,0.0,0.0,0.0,0.0,0.0,0.0,0.0,0.0,0.0,0.0,0.0,0.0,0.0,0.0,0.0,0.0,0.0,0.0,0.0,0.0,0.0,0.0,0.0,0.0,0.0,0.0,0.0,0.0,0.0,0.0,0.0,0.0,0.0,0.0,0.0,0.0,0.0,0.0,0.0,0.0,0.0,0.0,0.0,0.0,0.0,0.0,0.0,0.0,0.0,0.0,0.0,0.0,0.0,0.0,0.0,0.0,0.0,0.0,0.0,0.0,0.0,0.0,0.0,0.0,0.0,0.0,0.0,0.0,0.0,0.0,0.0,0.0,0.0,0.0,0.0,0.0,0.0,0.0,0.0,0.0,0.0,0.0,0.0,0.0,0.0,0.0,0.0,0.0,0.0,0.0,0.0,0.0,0.0,0.0,0.0,0.0,0.0,0.0,0.0,0.0,0.0,0.0,0.0,0.0,0.0,0.0,0.0,0.0,0.0,0.0,0.0,0.0,0.0,0.0,0.0,0.0,0.0,0.0,0.0,0.0,0.0,0.0,0.0,0.0,0.0,0.0,0.0,0.0,0.0,0.0,0.0,0.0,0.0,0.0,0.0,0.0,0.0,0.0,0.0,0.0,0.0,0.0,0.0,0.0,0.0,0.0,0.0,0.0,0.0,0.0,0.0,0.0,0.0,0.0,0.0,0.0,0.0,0.0,0.0,0.0,0.0,0.0,0.0,0.0,0.0,0.0,0.0,0.0,0.0,0.0,0.0,0.0,0.0,0.0,0.0,0.0,0.0,0.0,0.0,0.0,0.0,0.0,0.0,0.0,0.0,0.0,0.0,0.0,0.0,0.0,0.0,0.0,0.0,0.0,0.0,0.0,0.0,0.0,0.0,0.0,0.0,0.0,0.0,0.0,0.0,0.0,0.0,0.0,0.0,0.0,0.0,0.0,0.0,0.0,0.0,0.0,0.0,0.0,0.0,0.0,0.0,0.0,0.0,0.0,0.0,0.0,0.0,0.0,0.0,0.0,0.0,0.0,0.0,0.0,0.0,0.0,0.0,0.0,0.0,0.0,0.0,0.0,0.0,0.0,0.0,0.0,0.0,0.0,0.0,0.0,0.0,0.0,0.0,0.0,0.0,0.0,0.0,0.0,0.0,0.0,0.0,0.0,0.0,0.0,0.0,0.0,0.0,0.0,0.0,0.0,0.0,0.0,0.0,0.0,0.0,0.0,0.0,0.0,0.0,0.0,0.0,0.0,0.0,0.0,0.0,0.0,0.0,0.0,0.0,0.0,0.0,0.0,0.0,0.0,0.0,0.0,0.0,0.0,0.0,0.0,0.0,0.0,0.0,0.0,0.0,0.0,0.0,0.0,0.0,0.0,0.0,0.0,0.0,0.0,0.0,0.0,0.0,0.0,0.0,0.0,0.0,0.0,0.0,0.0,0.0,0.0,0.0,0.0,0.0,0.0,0.0,0.0,0.0,0.0,0.0,0.0,0.0,0.0,0.0,0.0,0.0,0.0,0.0,0.0,0.0,0.0,0.0,0.0,0.0,0.0,0.0,0.0,0.0,0.0,0.0,0.0,0.0,0.0,0.0,0.0,0.0,0.0,0.0,0.0,0.0,0.0,0.0,0.0,0.0,0.0,0.0,0.0,0.0,0.0,0.0,0.0,0.0,0.0,0.0,0.0,0.0,0.0,0.0,0.0,0.0,0.0,0.0,0.0,0.0,0.0,0.0,0.0,0.0,0.0,0.0,0.0,0.0,0.0,0.0,0.0,0.0,0.0,0.0,0.0,0.0,0.0,0.0,0.0,0.0,0.0,0.0,0.0,0.0,0.0,0.0,0.0,0.0,0.0,0.0,0.0,0.0,0.0,0.0,0.0,0.0,0.0,0.0,0.0,0.0,0.0,0.0,0.0,0.0,0.0,0.0,0.0,0.0,0.0,0.0,0.0,0.0,0.0,0.0,0.0,0.0,0.0,0.0,0.0,0.0,0.0,0.0,0.0,0.0,0.0,0.0,0.0,0.0,0.0,0.0,0.0,0.0,0.0,0.0,0.0,0.0,0.0,0.0,0.0,0.0,0.0,0.0,0.0,0.0,0.0,0.0,0.0,0.0,0.0,0.0,0.0,0.0,0.0,0.0,0.0,0.0,0.0,0.0,0.0,0.0,0.0,0.0,0.0,0.0,0.0,0.0,0.0,0.0,0.0,0.0,0.0,0.0,0.0,0.0,0.0,0.0,0.0,0.0,0.0,0.0,0.0,0.0,0.0,0.0,0.0,0.0,0.0,0.0,0.0,0.0,0.0,0.0,0.0,0.0,0.0,0.0,0.0,0.0,0.0,0.0,0.0,0.0,0.0,0.0,0.0,0.0,0.0,0.0,0.0,0.0,0.0,0.0,0.0,0.0,0.0,0.0,0.0,0.0,0.0,0.0,0.0,0.0,0.0,0.0,0.0,0.0,0.0,0.0,0.0,0.0,0.0,0.0,0.0,0.0,0.0,0.0,0.0,0.0,0.0,0.0,0.0,0.0,0.0,0.0,0.0,0.0,0.0,0.0,0.0,0.0,0.0,0.0,0.0,0.0,0.0,0.0,0.0,0.0,0.0,0.0,0.0,0.0,0.0,0.0,0.0,0.0,0.0,0.0,0.0,0.0,0.0,0.0,0.0,0.0,0.0,0.0,0.0,0.0,0.0,0.0,0.0,0.0,0.0,0.0,0.0,0.0,0.0,0.0,0.0,0.0,0.0,0.0,0.0,0.0,0.0,0.0,0.0,0.0,0.0,0.0,0.0,0.0,0.0,0.0,0.0,0.0,0.0,0.0,0.0,0.0,0.0,0.0,0.0,0.0,0.0,0.0,0.0,0.0,0.0,0.0,0.0,0.0,0.0,0.0,0.0,0.0,0.0,0.0,0.0,0.0,0.0,0.0,0.0,0.0,0.0,0.0,0.0,0.0,0.0,0.0,0.0,0.0,0.0,0.0,0.0,0.0,0.0,0.0,0.0,0.0,0.0,0.0,0.0,0.0,0.0,0.0,0.0,0.0,0.0,0.0,0.0,0.0,0.0,0.0,0.0,0.0,0.0,0.0,0.0,0.0,0.0,0.0,0.0,0.0,0.0,0.0,0.0,0.0,0.0,0.0,0.0,0.0,0.0,0.0,0.0,0.0,0.0,0.0,0.0,0.0,0.0,0.0,0.0,0.0,0.0,0.0,0.0,0.0,0.0,0.0,0.0,0.0,0.0,0.0,0.0,0.0,0.0,0.0,0.0,0.0,0.0,0.0,0.0,0.0,0.0,0.0,0.0,0.0,0.0,0.0,0.0,0.0,0.0,0.0,0.0,0.0,0.0,0.0,0.0,0.0,0.0,0.0,0.0,0.0,0.0,0.0,0.0,0.0,0.0,0.0,0.0,0.0,0.0,0.0,0.0,0.0,0.0,0.0,0.0,0.0,0.0,0.0,0.0,0.0,0.0,0.0,0.0,0.0,0.0,0.0,0.0,0.0,0.0,0.0,0.0,0.0,0.0,0.0,0.0,0.0,0.0,0.0,0.0,0.0,0.0,0.0,0.0,0.0,0.0,0.0,0.0,0.0,0.0,0.0,0.0,0.0,0.0,0.0,0.0,0.0,0.0,0.0,0.0,0.0,0.0,0.0,0.0,0.0,0.0,0.0,0.0,0.0,0.0,0.0,0.0,0.0,0.0,0.0,0.0,0.0,0.0,0.0,0.0,0.0,0.0,0.0,-2.5486,0.0,0.0,0.0,0.0,0.0,0.0,0.0,0.0,0.0,0.0,0.0,0.0,0.0,0.0,0.0,0.0,0.0,0.0,0.0,0.0,0.0,0.0,0.0,0.0,0.0,0.0,0.0,0.0,0.0,0.0,0.0,0.0,0.0,0.0,0.0,0.0,0.0,0.0,0.0,0.0,0.0,0.0,0.0,0.0,0.0,0.0,0.0,0.0,0.0,0.0,0.0,0.0,0.0,0.0,0.0,0.0,0.0,0.0,0.0,0.0,0.0,0.0,0.0,0.0,0.0,0.0,0.0,0.0,0.0,0.0,0.0,0.0,0.0,0.0,0.0,0.0,0.0,0.0,0.0,0.0,0.0,0.0,0.0,0.0,0.0,0.0,0.0,0.0,0.0,0.0,0.0,0.0,0.0,0.0,0.0,0.0,0.0,0.0,0.0,0.0,0.0,0.0,0.0,0.0,0.0,0.0,0.0,0.0,0.0,0.0,-2.5038,-2.5209,-2.5369,-2.5487,-2.554,0.0,0.0,0.0,0.0,0.0,0.0,0.0,0.0,0.0,0.0,0.0,0.0,0.0,0.0,0.0,0.0,0.0,0.0,0.0,0.0,0.0,0.0,0.0,0.0,0.0,0.0,0.0,0.0,0.0,0.0,0.0,0.0,0.0,0.0,0.0,0.0,0.0,0.0,0.0,0.0,0.0,0.0,0.0,0.0,0.0,0.0,0.0,0.0,0.0,0.0,0.0,0.0,0.0,0.0,0.0,0.0,0.0,0.0,0.0,0.0,0.0,0.0,0.0,0.0,0.0,0.0,0.0,0.0,0.0,0.0,0.0,0.0,0.0,0.0,0.0,0.0,0.0,0.0,0.0,0.0,0.0,0.0,0.0,0.0,0.0,0.0,0.0,0.0,0.0,0.0,0.0,0.0,0.0,0.0,0.0,0.0,0.0,0.0,0.0,0.0,0.0,0.0,0.0,0.0,0.0,0.0,0.0,0.0,0.0,0.0,0.0,0.0,-2.5441,-2.5544,-2.5611,0.0,0.0,0.0,0.0,0.0,0.0,0.0,0.0,0.0,0.0,0.0,0.0,0.0,0.0,0.0,0.0,0.0,0.0,0.0,0.0,0.0,0.0,0.0,0.0,0.0,0.0,0.0,0.0,0.0,0.0,0.0,0.0,0.0,0.0,0.0,0.0,0.0,0.0,0.0,0.0,0.0,0.0,0.0,0.0,0.0,0.0,0.0,0.0,0.0,0.0,0.0,0.0,0.0,0.0,0.0,0.0,0.0,0.0,0.0,0.0,0.0,0.0,0.0,0.0,0.0,0.0,0.0,0.0,0.0,0.0,0.0,0.0,0.0,0.0,0.0,0.0,0.0,0.0,0.0,0.0,0.0,0.0,0.0,0.0,0.0,0.0,0.0,0.0,0.0,0.0,0.0,0.0,0.0,0.0,0.0,0.0,0.0,0.0,0.0,0.0,0.0,0.0,0.0,0.0,0.0,0.0,0.0,0.0,0.0,0.0,-2.5253,-2.5382,-2.5467,0.0,-2.568,0.0,0.0,0.0,0.0,0.0,0.0,0.0,0.0,0.0,0.0,0.0,0.0,0.0,0.0,0.0,0.0,0.0,0.0,0.0,0.0,0.0,0.0,0.0,0.0,0.0,0.0,0.0,0.0,0.0,0.0,0.0,0.0,0.0,0.0,0.0,0.0,0.0,0.0,0.0,0.0,0.0,0.0,0.0,0.0,0.0,0.0,0.0,0.0,0.0,0.0,0.0,0.0,0.0,0.0,0.0,0.0,0.0,0.0,0.0,0.0,0.0,0.0,0.0,0.0,0.0,0.0,0.0,0.0,0.0,0.0,0.0,0.0,0.0,0.0,0.0,0.0,0.0,0.0,0.0,0.0,0.0,0.0,0.0,0.0,0.0,0.0,0.0,0.0,0.0,0.0,0.0,0.0,0.0,0.0,0.0,0.0,0.0,0.0,0.0,0.0,0.0,0.0,0.0,0.0,0.0,0.0,0.0,0.0,0.0,0.0,-2.5327,-2.5444,-2.5534,-2.56,0.0,0.0,0.0,0.0,0.0,0.0,0.0,0.0,0.0,0.0,0.0,0.0,0.0,0.0,0.0,0.0,0.0,0.0,0.0,0.0,0.0,0.0,0.0,0.0,0.0,0.0,0.0,0.0,0.0,0.0,0.0,0.0,0.0,0.0,0.0,0.0,0.0,0.0,0.0,0.0,0.0,0.0,0.0,0.0,0.0,0.0,0.0,0.0,0.0,0.0,0.0,0.0,0.0,0.0,0.0,0.0,0.0,0.0,0.0,0.0,0.0,0.0,0.0,0.0,0.0,0.0,0.0,0.0,0.0,0.0,0.0,0.0,0.0,0.0,0.0,0.0,0.0,0.0,0.0,0.0,0.0,0.0,0.0,0.0,0.0,0.0,0.0,0.0,0.0,0.0,0.0,0.0,0.0,0.0,0.0,0.0,0.0,0.0,0.0,0.0,0.0,0.0,0.0,0.0,0.0,0.0,0.0,0.0,0.0,0.0,-2.5233,-2.5369,-2.5522,-2.5576,-2.5639,-2.5704,0.0,0.0,0.0,0.0,0.0,0.0,0.0,0.0,0.0,0.0,0.0,0.0,0.0,0.0,0.0,0.0,0.0,0.0,0.0,0.0,0.0,0.0,0.0,0.0,0.0,0.0,0.0,0.0,0.0,0.0,0.0,0.0,0.0,0.0,0.0,0.0,0.0,0.0,0.0,0.0,0.0,0.0,0.0,0.0,0.0,0.0,0.0,0.0,0.0,0.0,0.0,0.0,0.0,0.0,0.0,0.0,0.0,0.0,0.0,0.0,0.0,0.0,0.0,0.0,0.0,0.0,0.0,0.0,0.0,0.0,0.0,0.0,0.0,0.0,0.0,0.0,0.0,0.0,0.0,0.0,0.0,0.0,0.0,0.0,0.0,0.0,0.0,0.0,0.0,0.0,0.0,0.0,0.0,0.0,0.0,0.0,0.0,0.0,0.0,0.0,0.0,0.0,0.0,0.0,0.0,0.0,0.0,0.0,-2.509,-2.5238,-2.54,-2.5592,-2.5612,-2.5636,0.0,0.0,0.0,0.0,0.0,0.0,0.0,0.0,0.0,0.0,0.0,0.0,0.0,0.0,0.0,0.0,0.0,0.0,0.0,0.0,0.0,0.0,0.0,0.0,0.0,0.0,0.0,0.0,0.0,0.0,0.0,0.0,0.0,0.0,0.0,0.0,0.0,0.0,0.0,0.0,0.0,0.0,0.0,0.0,0.0,0.0,0.0,0.0,0.0,0.0,0.0,0.0,0.0,0.0,0.0,0.0,0.0,0.0,0.0,0.0,0.0,0.0,0.0,0.0,0.0,0.0,0.0,0.0,0.0,0.0,0.0,0.0,0.0,0.0,0.0,0.0,0.0,0.0,0.0,0.0,0.0,0.0,0.0,0.0,0.0,0.0,0.0,0.0,0.0,0.0,0.0,0.0,0.0,0.0,0.0,0.0,0.0,0.0,0.0,0.0,0.0,0.0,0.0,0.0,0.0,0.0,0.0,0.0,0.0,-2.509,-2.5303,-2.548,-2.5595,-2.5595,-2.5636,0.0,0.0,0.0,0.0,0.0,0.0,0.0,0.0,0.0,0.0,0.0,0.0,0.0,0.0,0.0,0.0,0.0,0.0,0.0,0.0,0.0,0.0,0.0,0.0,0.0,0.0,0.0,0.0,0.0,0.0,0.0,0.0,0.0,0.0,0.0,0.0,0.0,0.0,0.0,0.0,0.0,0.0,0.0,0.0,0.0,0.0,0.0,0.0,0.0,0.0,0.0,0.0,0.0,0.0,0.0,0.0,0.0,0.0,0.0,0.0,0.0,0.0,0.0,0.0,0.0,0.0,0.0,0.0,0.0,0.0,0.0,0.0,0.0,0.0,0.0,0.0,0.0,0.0,0.0,0.0,0.0,0.0,0.0,0.0,0.0,0.0,0.0,0.0,0.0,0.0,0.0,0.0,0.0,0.0,0.0,0.0,0.0,0.0,0.0,0.0,0.0,0.0,0.0,0.0,0.0,0.0,0.0,0.0,0.0,-2.5185,0.0,-2.5789,-2.5592,-2.5858,-2.5917,0.0,0.0,0.0,0.0,0.0,0.0,0.0,0.0,0.0,0.0,0.0,0.0,0.0,0.0,0.0,0.0,0.0,0.0,0.0,0.0,0.0,0.0,0.0,0.0,0.0,0.0,0.0,0.0,0.0,0.0,0.0,0.0,0.0,0.0,0.0,0.0,0.0,0.0,0.0,0.0,0.0,0.0,0.0,0.0,0.0,0.0,0.0,0.0,0.0,0.0,0.0,0.0,0.0,0.0,0.0,0.0,0.0,0.0,0.0,0.0,0.0,0.0,0.0,0.0,0.0,0.0,0.0,0.0,0.0,0.0,0.0,0.0,0.0,0.0,0.0,0.0,0.0,0.0,0.0,0.0,0.0,0.0,0.0,0.0,0.0,0.0,0.0,0.0,0.0,0.0,0.0,0.0,0.0,0.0,0.0,0.0,0.0,0.0,0.0,0.0,0.0,0.0,0.0,0.0,0.0,0.0,0.0,0.0,-2.5075,-2.5356,-2.625,-2.637,-2.5573,-2.6418,-2.6495,0.0,0.0,0.0,0.0,0.0,0.0,0.0,0.0,0.0,0.0,0.0,0.0,0.0,0.0,0.0,0.0,0.0,0.0,0.0,0.0,0.0,0.0,0.0,0.0,0.0,0.0,0.0,0.0,0.0,0.0,0.0,0.0,0.0,0.0,0.0,0.0,0.0,0.0,0.0,0.0,0.0,0.0,0.0,0.0,0.0,0.0,0.0,0.0,0.0,0.0,0.0,0.0,0.0,0.0,0.0,0.0,0.0,0.0,0.0,0.0,0.0,0.0,0.0,0.0,0.0,0.0,0.0,0.0,0.0,0.0,0.0,0.0,0.0,0.0,0.0,0.0,0.0,0.0,0.0,0.0,0.0,0.0,0.0,0.0,0.0,0.0,0.0,0.0,0.0,0.0,0.0,0.0,0.0,0.0,0.0,0.0,0.0,0.0,0.0,0.0,0.0,0.0,0.0,0.0,0.0,0.0,0.0,0.0,0.0,-2.6147,-2.7075,-2.7503,-2.7299,-2.7031,-2.6768,0.0,0.0,0.0,0.0,0.0,0.0,0.0,0.0,0.0,0.0,0.0,0.0,0.0,0.0,0.0,0.0,0.0,0.0,0.0,0.0,0.0,0.0,0.0,0.0,0.0,0.0,0.0,0.0,0.0,0.0,0.0,0.0,0.0,0.0,0.0,0.0,0.0,0.0,0.0,0.0,0.0,0.0,0.0,0.0,0.0,0.0,0.0,0.0,0.0,0.0,0.0,0.0,0.0,0.0,0.0,0.0,0.0,0.0,0.0,0.0,0.0,0.0,0.0,0.0,0.0,0.0,0.0,0.0,0.0,0.0,0.0,0.0,0.0,0.0,0.0,0.0,0.0,0.0,0.0,0.0,0.0,0.0,0.0,0.0,0.0,0.0,0.0,0.0,0.0,0.0,0.0,0.0,0.0,0.0,0.0,0.0,0.0,0.0,0.0,0.0,0.0,0.0,0.0,0.0,0.0,0.0,0.0,0.0,0.0,-2.7911,-2.8578,-2.8796,-2.8562,-2.8388,-2.8035,-2.7409,0.0,0.0,0.0,0.0,0.0,0.0,0.0,0.0,0.0,0.0,0.0,0.0,0.0,0.0,0.0,0.0,0.0,0.0,0.0,0.0,0.0,0.0,0.0,0.0,0.0,0.0,0.0,0.0,0.0,0.0,0.0,0.0,0.0,0.0,0.0,0.0,0.0,0.0,0.0,0.0,0.0,0.0,0.0,0.0,0.0,0.0,0.0,0.0,0.0,0.0,0.0,0.0,0.0,0.0,0.0,0.0,0.0,0.0,0.0,0.0,0.0,0.0,0.0,0.0,0.0,0.0,0.0,0.0,0.0,0.0,0.0,0.0,0.0,0.0,0.0,0.0,0.0,0.0,0.0,0.0,0.0,0.0,0.0,0.0,0.0,0.0,0.0,0.0,0.0,0.0,0.0,0.0,0.0,0.0,0.0,0.0,0.0,0.0,0.0,0.0,0.0,0.0,0.0,0.0,0.0,0.0,0.0,0.0,-3.0343,-3.0593,-3.0326,-2.9578,-3.0273,-2.9923,0.0,0.0,0.0,0.0,0.0,0.0,0.0,0.0,0.0,0.0,0.0,0.0,0.0,0.0,0.0,0.0,0.0,0.0,0.0,0.0,0.0,0.0,0.0,0.0,0.0,0.0,0.0,0.0,0.0,0.0,0.0,0.0,0.0,0.0,0.0,0.0,0.0,0.0,0.0,0.0,0.0,0.0,0.0,0.0,0.0,0.0,0.0,0.0,0.0,0.0,0.0,0.0,0.0,0.0,0.0,0.0,0.0,0.0,0.0,0.0,0.0,0.0,0.0,0.0,0.0,0.0,0.0,0.0,0.0,0.0,0.0,0.0,0.0,0.0,0.0,0.0,0.0,0.0,0.0,0.0,0.0,0.0,0.0,0.0,0.0,0.0,0.0,0.0,0.0,0.0,0.0,0.0,0.0,0.0,0.0,0.0,0.0,0.0,0.0,0.0,0.0,0.0,0.0,0.0,0.0,0.0,0.0,0.0,0.0,-3.116,-3.2519,-3.2881,-3.2124,-3.1136,-3.0159,0.0,0.0,0.0,0.0,0.0,0.0,0.0,0.0,0.0,0.0,0.0,0.0,0.0,0.0,0.0,0.0,0.0,0.0,0.0,0.0,0.0,0.0,0.0,0.0,0.0,0.0,0.0,0.0,0.0,0.0,0.0,0.0,0.0,0.0,0.0,0.0,0.0,0.0,0.0,0.0,0.0,0.0,0.0,0.0,0.0,0.0,0.0,0.0,0.0,0.0,0.0,0.0,0.0,0.0,0.0,0.0,0.0,0.0,0.0,0.0,0.0,0.0,0.0,0.0,0.0,0.0,0.0,0.0,0.0,0.0,0.0,0.0,0.0,0.0,0.0,0.0,0.0,0.0,0.0,0.0,0.0,0.0,0.0,0.0,0.0,0.0,0.0,0.0,0.0,0.0,0.0,0.0,0.0,0.0,0.0,0.0,0.0,0.0,0.0,0.0,0.0,0.0,0.0,0.0,0.0,0.0,0.0,0.0,-3.0632,-3.1979,-3.3419,-3.4129,-3.4106,-3.2871,-3.1651,0.0,0.0,0.0,0.0,0.0,0.0,0.0,0.0,0.0,0.0,0.0,0.0,0.0,0.0,0.0,0.0,0.0,0.0,0.0,0.0,0.0,0.0,0.0,0.0,0.0,0.0,0.0,0.0,0.0,0.0,0.0,0.0,0.0,0.0,0.0,0.0,0.0,0.0,0.0,0.0,0.0,0.0,0.0,0.0,0.0,0.0,0.0,0.0,0.0,0.0,0.0,0.0,0.0,0.0,0.0,0.0,0.0,0.0,0.0,0.0,0.0,0.0,0.0,0.0,0.0,0.0,0.0,0.0,0.0,0.0,0.0,0.0,0.0,0.0,0.0,0.0,0.0,0.0,0.0,0.0,0.0,0.0,0.0,0.0,0.0,0.0,0.0,0.0,0.0,0.0,0.0,0.0,0.0,0.0,0.0,0.0,0.0,0.0,0.0,0.0,0.0,0.0,0.0,0.0,0.0,0.0,0.0,0.0,-3.0899,-3.2661,-3.37,-3.4637,-3.5419,-3.4789,-3.3647,0.0,0.0,0.0,0.0,0.0,0.0,0.0,0.0,0.0,0.0,0.0,0.0,0.0,0.0,0.0,0.0,0.0,0.0,0.0,0.0,0.0,0.0,0.0,0.0,0.0,0.0,0.0,0.0,0.0,0.0,0.0,0.0,0.0,0.0,0.0,0.0,0.0,0.0,0.0,0.0,0.0,0.0,0.0,0.0,0.0,0.0,0.0,0.0,0.0,0.0,0.0,0.0,0.0,0.0,0.0,0.0,0.0,0.0,0.0,0.0,0.0,0.0,0.0,0.0,0.0,0.0,0.0,0.0,0.0,0.0,0.0,0.0,0.0,0.0,0.0,0.0,0.0,0.0,0.0,0.0,0.0,0.0,0.0,0.0,0.0,0.0,0.0,0.0,0.0,0.0,0.0,0.0,0.0,0.0,0.0,0.0,0.0,0.0,0.0,0.0,0.0,0.0,0.0,0.0,0.0,0.0,0.0,0.0,-3.1956,-3.2553,-3.4135,-3.5105,-3.5407,-3.4766,-3.3606,0.0,0.0,0.0,0.0,0.0,0.0,0.0,0.0,0.0,0.0,0.0,0.0,0.0,0.0,0.0,0.0,0.0,0.0,0.0,0.0,0.0,0.0,0.0,0.0,0.0,0.0,0.0,0.0,0.0,0.0,0.0,0.0,0.0,0.0,0.0,0.0,0.0,0.0,0.0,0.0,0.0,0.0,0.0,0.0,0.0,0.0,0.0,0.0,-3.302,0.0,0.0,0.0,0.0,0.0,0.0,0.0,0.0,0.0,0.0,0.0,0.0,0.0,0.0,0.0,0.0,0.0,0.0,0.0,0.0,0.0,0.0,0.0,0.0,0.0,0.0,0.0,0.0,0.0,0.0,0.0,0.0,0.0,0.0,0.0,0.0,0.0,0.0,0.0,0.0,0.0,0.0,0.0,0.0,0.0,0.0,0.0,0.0,0.0,0.0,0.0,0.0,0.0,0.0,0.0,0.0,0.0,0.0,0.0,-3.2401,-3.3022,-3.439,-3.5185,-3.5327,-3.4661,-3.3713,0.0,0.0,0.0,0.0,0.0,0.0,0.0,0.0,0.0,0.0,0.0,0.0,0.0,0.0,0.0,0.0,0.0,0.0,0.0,0.0,0.0,0.0,0.0,0.0,0.0,0.0,0.0,0.0,0.0,0.0,0.0,0.0,0.0,0.0,0.0,0.0,0.0,0.0,0.0,0.0,0.0,0.0,0.0,0.0,0.0,0.0,0.0,0.0,0.0,0.0,0.0,0.0,0.0,0.0,0.0,0.0,0.0,0.0,0.0,0.0,0.0,0.0,0.0,0.0,0.0,0.0,0.0,0.0,0.0,0.0,0.0,0.0,0.0,0.0,0.0,0.0,0.0,0.0,0.0,0.0,0.0,0.0,0.0,0.0,0.0,0.0,0.0,0.0,0.0,0.0,0.0,0.0,0.0,0.0,0.0,0.0,0.0,0.0,0.0,0.0,0.0,0.0,0.0,0.0,0.0,0.0,0.0,-3.1078,-3.2456,-3.3525,-3.4472,-3.5056,-3.5226,-3.4361,-3.3647,-3.3142,0.0,0.0,0.0,0.0,0.0,0.0,0.0,0.0,0.0,0.0,0.0,0.0,0.0,0.0,0.0,0.0,0.0,0.0,0.0,0.0,0.0,0.0,0.0,0.0,0.0,0.0,0.0,0.0,0.0,0.0,0.0,0.0,0.0,0.0,0.0,0.0,0.0,0.0,-3.2045,-3.3582,0.0,0.0,0.0,0.0,0.0,0.0,0.0,0.0,-3.7512,0.0,0.0,0.0,0.0,0.0,0.0,0.0,0.0,0.0,0.0,0.0,0.0,0.0,0.0,0.0,0.0,0.0,0.0,0.0,0.0,0.0,0.0,0.0,0.0,0.0,0.0,0.0,0.0,0.0,0.0,0.0,0.0,0.0,0.0,0.0,0.0,0.0,0.0,0.0,0.0,0.0,0.0,0.0,0.0,0.0,0.0,0.0,0.0,0.0,0.0,0.0,0.0,0.0,0.0,0.0,0.0,-3.0081,-3.1191,-3.2262,-3.332,-3.4324,-3.4898,-3.5009,-3.3622,-3.2874,-3.2862,0.0,0.0,0.0,0.0,0.0,0.0,0.0,0.0,0.0,0.0,0.0,0.0,0.0,0.0,0.0,0.0,0.0,0.0,0.0,0.0,0.0,0.0,0.0,0.0,0.0,0.0,0.0,0.0,0.0,0.0,0.0,0.0,0.0,0.0,0.0,0.0,0.0,0.0,0.0,-3.529,-3.662,0.0,0.0,0.0,0.0,0.0,0.0,0.0,0.0,-3.8001,0.0,0.0,0.0,0.0,0.0,0.0,0.0,0.0,0.0,0.0,0.0,0.0,0.0,0.0,0.0,0.0,0.0,0.0,0.0,0.0,0.0,0.0,0.0,0.0,0.0,0.0,0.0,0.0,0.0,0.0,0.0,0.0,0.0,0.0,0.0,0.0,0.0,0.0,0.0,0.0,0.0,0.0,0.0,0.0,0.0,0.0,0.0,0.0,0.0,0.0,0.0,0.0,0.0,0.0,0.0,-3.057,-3.125,-3.2253,-3.3666,-3.4278,-3.4687,-3.4812,-3.3323,-3.2378,0.0,0.0,0.0,0.0,0.0,0.0,0.0,0.0,0.0,0.0,0.0,0.0,0.0,0.0,0.0,0.0,0.0,0.0,0.0,0.0,0.0,0.0,0.0,0.0,0.0,0.0,0.0,0.0,0.0,0.0,0.0,0.0,0.0,0.0,0.0,0.0,0.0,0.0,0.0,0.0,-3.6286,-3.7526,-3.7926,0.0,0.0,0.0,0.0,0.0,0.0,-3.9602,-3.9358,0.0,0.0,0.0,0.0,0.0,0.0,0.0,0.0,0.0,0.0,0.0,0.0,0.0,0.0,0.0,0.0,0.0,0.0,0.0,0.0,0.0,0.0,0.0,0.0,0.0,0.0,0.0,0.0,0.0,0.0,0.0,0.0,0.0,0.0,0.0,0.0,0.0,0.0,0.0,0.0,0.0,0.0,0.0,0.0,0.0,0.0,0.0,0.0,0.0,0.0,0.0,0.0,0.0,0.0,0.0,-3.088,-3.1219,-3.2193,-3.3949,-3.4197,-3.4416,-3.4575,-3.3156,-3.2036,0.0,0.0,0.0,0.0,0.0,0.0,0.0,0.0,0.0,0.0,0.0,0.0,0.0,0.0,0.0,0.0,0.0,0.0,0.0,0.0,0.0,0.0,0.0,0.0,0.0,0.0,0.0,0.0,0.0,0.0,0.0,0.0,0.0,0.0,0.0,0.0,0.0,0.0,0.0,0.0,0.0,-3.795,-3.8306,-3.8953,0.0,0.0,0.0,0.0,-4.0797,-4.0828,0.0,0.0,0.0,0.0,0.0,0.0,0.0,0.0,0.0,0.0,0.0,0.0,0.0,0.0,0.0,0.0,0.0,0.0,0.0,0.0,0.0,0.0,0.0,0.0,0.0,0.0,0.0,0.0,0.0,0.0,0.0,0.0,0.0,0.0,0.0,0.0,0.0,0.0,0.0,0.0,0.0,0.0,0.0,0.0,0.0,0.0,0.0,0.0,0.0,0.0,0.0,0.0,0.0,0.0,0.0,0.0,-3.0611,-3.0888,-3.1869,-3.3648,-3.39,-3.4086,-3.4309,-3.2895,-3.1855,0.0,0.0,0.0,0.0,0.0,0.0,0.0,0.0,0.0,0.0,0.0,0.0,0.0,0.0,0.0,0.0,0.0,0.0,0.0,0.0,0.0,0.0,0.0,0.0,0.0,0.0,0.0,0.0,0.0,0.0,0.0,0.0,0.0,0.0,0.0,0.0,0.0,0.0,0.0,0.0,0.0,-3.8174,-3.9652,-3.9986,-4.0337,0.0,0.0,-4.0592,-4.1543,-4.113,0.0,0.0,0.0,0.0,0.0,0.0,0.0,0.0,0.0,0.0,0.0,0.0,0.0,0.0,0.0,0.0,0.0,0.0,0.0,0.0,0.0,0.0,0.0,0.0,0.0,0.0,0.0,0.0,0.0,0.0,0.0,0.0,0.0,0.0,0.0,0.0,0.0,0.0,0.0,0.0,0.0,0.0,0.0,0.0,0.0,0.0,0.0,0.0,0.0,0.0,0.0,0.0,0.0,0.0,0.0,-2.6996,-3.0176,-3.0508,-3.1484,-3.3222,-3.3545,-3.3775,-3.4011,-3.2611,-3.1591,0.0,0.0,0.0,0.0,0.0,0.0,0.0,0.0,0.0,0.0,0.0,0.0,0.0,0.0,0.0,0.0,0.0,0.0,0.0,0.0,0.0,0.0,0.0,0.0,0.0,0.0,0.0,0.0,0.0,0.0,0.0,0.0,0.0,0.0,0.0,0.0,0.0,0.0,0.0,0.0,0.0,0.0,-3.9629,-4.0274,0.0,0.0,0.0,-4.1199,-4.2197,0.0,0.0,0.0,0.0,0.0,0.0,0.0,0.0,0.0,0.0,0.0,0.0,0.0,0.0,0.0,0.0,0.0,0.0,0.0,0.0,0.0,0.0,0.0,0.0,0.0,0.0,0.0,0.0,0.0,0.0,0.0,0.0,0.0,0.0,0.0,0.0,0.0,0.0,0.0,0.0,0.0,0.0,0.0,0.0,0.0,0.0,0.0,0.0,0.0,0.0,0.0,0.0,0.0,0.0,0.0,0.0,0.0,-2.9786,-3.0113,-3.1093,-3.2745,-3.3147,-3.3415,-3.3588,-3.228,0.0,0.0,0.0,0.0,0.0,0.0,0.0,0.0,0.0,0.0,0.0,0.0,0.0,0.0,0.0,0.0,0.0,0.0,0.0,0.0,0.0,0.0,0.0,0.0,0.0,0.0,0.0,-3.012,0.0,0.0,0.0,0.0,0.0,0.0,0.0,0.0,0.0,0.0,0.0,0.0,0.0,0.0,-3.7759,-3.9361,-4.0471,-4.1216,0.0,0.0,-4.1743,-4.2621,-4.1406,-4.0016,0.0,0.0,0.0,0.0,0.0,0.0,0.0,0.0,0.0,0.0,0.0,0.0,0.0,0.0,0.0,0.0,0.0,0.0,0.0,0.0,0.0,0.0,0.0,0.0,0.0,0.0,0.0,0.0,0.0,0.0,0.0,0.0,0.0,0.0,0.0,0.0,0.0,0.0,0.0,0.0,0.0,0.0,0.0,0.0,0.0,0.0,0.0,0.0,0.0,0.0,0.0,0.0,0.0,0.0,0.0,-2.9317,-2.9642,-3.0591,-3.2282,-3.2638,-3.286,-3.3105,-3.1842,-3.09,0.0,0.0,0.0,0.0,0.0,0.0,0.0,0.0,0.0,0.0,0.0,0.0,0.0,0.0,0.0,0.0,0.0,0.0,0.0,0.0,0.0,0.0,0.0,0.0,0.0,0.0,0.0,0.0,0.0,0.0,0.0,0.0,0.0,0.0,0.0,0.0,0.0,0.0,0.0,0.0,0.0,-3.7423,-3.9014,-4.068,-4.1793,0.0,0.0,-4.225,-4.2558,-4.1264,-3.9715,-3.8164,0.0,0.0,0.0,0.0,0.0,0.0,0.0,0.0,0.0,0.0,0.0,0.0,0.0,0.0,0.0,0.0,0.0,0.0,0.0,0.0,0.0,0.0,0.0,0.0,0.0,0.0,0.0,0.0,0.0,0.0,0.0,0.0,0.0,0.0,0.0,0.0,0.0,0.0,0.0,0.0,0.0,0.0,0.0,0.0,0.0,0.0,0.0,0.0,0.0,0.0,0.0,0.0,0.0,-2.5798,-2.8783,-2.9086,-3.0054,-3.1789,-3.2144,-3.2436,-3.2784,-3.1942,-3.1233,0.0,0.0,0.0,0.0,0.0,0.0,0.0,0.0,0.0,0.0,0.0,0.0,0.0,0.0,0.0,0.0,0.0,0.0,0.0,0.0,0.0,0.0,0.0,0.0,0.0,0.0,0.0,0.0,-3.0817,-3.0276,-2.9805,0.0,0.0,0.0,0.0,0.0,0.0,0.0,0.0,0.0,0.0,-3.7031,-3.8674,-3.9926,0.0,0.0,-4.1052,-4.1216,-4.1562,-4.0705,-3.9479,-3.787,-3.6788,0.0,0.0,0.0,0.0,0.0,0.0,0.0,0.0,0.0,0.0,0.0,0.0,0.0,0.0,0.0,0.0,0.0,0.0,0.0,0.0,0.0,0.0,0.0,0.0,0.0,0.0,0.0,0.0,0.0,0.0,0.0,0.0,0.0,0.0,0.0,0.0,0.0,0.0,0.0,0.0,0.0,0.0,0.0,0.0,0.0,0.0,0.0,0.0,0.0,0.0,0.0,0.0,-2.534,-2.829,-2.8572,-2.9559,-3.1319,-3.1657,-3.195,-3.2266,-3.1777,-3.1337,0.0,0.0,0.0,0.0,0.0,0.0,0.0,0.0,0.0,0.0,0.0,0.0,0.0,0.0,0.0,0.0,0.0,0.0,0.0,0.0,0.0,0.0,0.0,0.0,0.0,0.0,0.0,0.0,-3.1139,-3.0214,-2.9184,0.0,0.0,0.0,0.0,0.0,0.0,0.0,0.0,0.0,0.0,-3.659,-3.8264,-3.9271,-3.9905,-4.0096,-4.0232,-4.0421,-4.0734,-4.0212,-3.929,-3.7934,0.0,0.0,0.0,0.0,0.0,0.0,0.0,0.0,0.0,0.0,0.0,0.0,0.0,0.0,0.0,0.0,0.0,0.0,0.0,0.0,0.0,0.0,0.0,0.0,0.0,0.0,0.0,0.0,0.0,0.0,-2.1575,0.0,0.0,0.0,0.0,0.0,0.0,0.0,0.0,0.0,0.0,0.0,0.0,0.0,0.0,0.0,0.0,0.0,0.0,0.0,0.0,0.0,0.0,-2.4855,-2.7858,-2.8142,-2.9075,-3.0758,-3.1142,-3.1411,-3.1601,-3.1237,-3.1076,-3.117,0.0,0.0,0.0,0.0,0.0,0.0,0.0,0.0,0.0,0.0,0.0,0.0,0.0,0.0,0.0,0.0,0.0,0.0,0.0,0.0,0.0,0.0,0.0,0.0,0.0,0.0,-3.2315,-3.1654,-3.0516,0.0,0.0,0.0,0.0,0.0,0.0,0.0,0.0,0.0,0.0,-3.4983,-3.6115,-3.7748,-3.8841,-3.9498,-3.9639,-3.9881,-4.0133,-4.0234,-3.9776,-3.9146,0.0,0.0,0.0,0.0,0.0,0.0,0.0,0.0,0.0,0.0,0.0,0.0,0.0,0.0,0.0,0.0,0.0,0.0,0.0,0.0,0.0,0.0,0.0,0.0,0.0,0.0,0.0,-2.1464,-2.1444,0.0,0.0,0.0,0.0,0.0,0.0,0.0,0.0,0.0,0.0,0.0,-2.3895,-2.3592,0.0,0.0,0.0,0.0,0.0,0.0,0.0,0.0,0.0,0.0,0.0,0.0,-2.5255,-2.7289,-2.7991,-2.9002,-3.0351,-3.0559,-3.0821,-3.1193,-3.1098,-3.1001,-3.0837,0.0,0.0,0.0,0.0,0.0,0.0,0.0,0.0,0.0,0.0,0.0,0.0,0.0,0.0,0.0,0.0,0.0,0.0,0.0,0.0,0.0,0.0,0.0,0.0,0.0,-3.1812,0.0,0.0,0.0,0.0,0.0,0.0,0.0,0.0,0.0,0.0,0.0,-3.1521,-3.2864,-3.411,-3.5173,-3.5918,-3.6895,-3.7622,0.0,0.0,0.0,0.0,0.0,0.0,0.0,0.0,0.0,0.0,0.0,0.0,0.0,0.0,-3.2775,-3.2718,-3.2718,-3.2683,-3.2462,0.0,0.0,0.0,0.0,0.0,0.0,0.0,0.0,0.0,0.0,0.0,0.0,0.0,0.0,-2.1411,0.0,-2.1061,0.0,0.0,0.0,0.0,0.0,0.0,0.0,0.0,-2.4081,-2.4313,-2.3932,-2.369,-2.3592,0.0,-2.3159,-2.2935,0.0,0.0,0.0,0.0,0.0,0.0,0.0,0.0,-2.5331,-2.7096,-2.7804,-2.8684,-2.9755,-2.9968,-3.0246,-3.0638,-3.0882,-3.0825,-3.0466,-2.9179,-2.8353,0.0,0.0,0.0,0.0,0.0,0.0,0.0,0.0,0.0,0.0,0.0,0.0,0.0,0.0,0.0,0.0,0.0,0.0,0.0,0.0,0.0,0.0,0.0,-3.1304,0.0,0.0,0.0,0.0,0.0,0.0,0.0,0.0,0.0,-2.9412,-3.0353,-3.1358,-3.2441,-3.3402,-3.419,-3.4727,0.0,0.0,0.0,0.0,0.0,0.0,0.0,-3.6936,-3.6421,-3.668,-3.6536,-3.5175,-3.4111,-3.3459,-3.3515,0.0,0.0,-3.3399,-3.339,-3.3421,-3.3544,-3.3574,-3.3493,-3.3247,-3.2774,-3.2231,0.0,0.0,0.0,0.0,0.0,0.0,0.0,0.0,-2.1965,-2.1931,0.0,-2.1543,0.0,0.0,0.0,0.0,0.0,-2.1913,0.0,0.0,-2.4037,-2.4109,-2.3597,-2.3742,-2.3757,-2.3543,-2.2968,-2.2884,-2.316,-2.2419,0.0,0.0,0.0,0.0,0.0,0.0,-2.505,-2.7172,-2.7573,-2.8153,-2.9058,-2.9393,-2.9683,-2.9989,-3.0497,-3.0529,-3.0068,-3.0155,-2.9655,-2.8423,-2.7821,0.0,0.0,0.0,0.0,0.0,0.0,0.0,0.0,0.0,0.0,0.0,0.0,0.0,0.0,0.0,0.0,0.0,0.0,0.0,0.0,-3.0673,0.0,0.0,0.0,0.0,0.0,0.0,0.0,0.0,0.0,0.0,-2.964,-3.0318,-3.125,-3.2626,0.0,0.0,0.0,0.0,-3.4564,-3.4907,-3.5046,-3.52,-3.532,-3.5566,-3.574,-3.574,0.0,0.0,-3.4039,-3.3918,-3.3915,-3.4043,-3.4031,-3.4215,-3.462,-3.4697,-3.4813,-3.4907,-3.4858,-3.4694,-3.4029,-3.371,-3.3226,-2.206,0.0,0.0,0.0,0.0,-2.1713,-2.1658,-2.1819,-2.1517,-2.1343,-2.1348,-2.1139,0.0,0.0,0.0,0.0,0.0,0.0,-2.2786,-2.2801,-2.3666,-2.3654,-2.2911,-2.3103,-2.3063,-2.2896,-2.2692,-2.2869,-2.3317,-2.2786,-2.2512,-2.259,0.0,0.0,0.0,0.0,-2.5758,-2.6654,-2.7461,-2.8126,-2.8519,-2.8811,-2.9198,-2.9649,-2.9941,-3.0147,-3.0203,-2.9859,-2.9568,-2.9379,-2.8303,0.0,0.0,0.0,0.0,0.0,0.0,0.0,0.0,0.0,0.0,0.0,0.0,0.0,0.0,0.0,0.0,0.0,0.0,0.0,-3.1005,-3.0709,-3.014,0.0,0.0,0.0,0.0,0.0,0.0,0.0,0.0,0.0,-2.9469,-3.0362,-3.1101,0.0,0.0,-3.2451,-3.2338,-3.2926,-3.3444,-3.3665,0.0,0.0,0.0,-3.4399,-3.4598,-3.4598,-3.4555,-3.4471,-3.4298,-3.3894,-3.3647,-3.3726,-3.3793,-3.39,-3.4111,-3.4374,-3.4564,-3.4689,-3.4751,-3.4725,-3.4452,-3.3582,-3.2615,-2.1707,-2.2111,-2.1999,-2.1934,-2.1883,-2.1456,-2.1387,-2.1543,-2.1164,-2.1008,-2.1026,-2.103,-2.0912,-2.0762,-2.0956,0.0,0.0,0.0,-2.2408,-2.2183,-2.3074,-2.3017,-2.2157,-2.2383,-2.24,-2.2223,-2.2242,-2.2482,-2.2939,-2.2757,-2.2738,-2.2903,0.0,0.0,-2.435,-2.4923,-2.5502,-2.6065,-2.6633,-2.6977,-2.7106,-2.7748,-2.8389,-2.9005,-2.9348,-2.9617,-2.9805,-2.9646,-2.949,-2.936,-2.871,-2.7908,0.0,0.0,0.0,0.0,0.0,0.0,0.0,0.0,0.0,0.0,0.0,-2.5603,-2.6568,0.0,0.0,0.0,-2.9201,-3.0174,-3.0914,-3.0213,0.0,0.0,0.0,0.0,0.0,0.0,0.0,-2.7557,-2.8138,-2.8549,-2.8669,-2.9473,-3.0261,-3.0841,-3.1321,-3.1503,-3.1263,0.0,-3.2156,-3.2402,-3.2533,-3.2662,-3.2807,-3.3003,-3.3194,-3.3364,-3.3479,-3.3607,-3.3719,-3.3402,-3.3223,-3.3306,-3.3158,-3.3021,-3.3163,-3.3158,-3.3307,-3.3791,-3.3964,-3.3914,-3.3623,-3.2787,-3.2056,-2.1042,-2.1293,-2.1518,-2.1636,-2.1651,-2.1254,-2.1081,-2.1023,-2.085,-2.0789,-2.0838,-2.1041,-2.0907,-2.0497,-2.0258,0.0,-2.086,-2.139,-2.16,-2.1544,-2.2373,-2.2259,-2.1386,-2.1684,-2.1747,-2.1588,-2.1588,-2.1788,-2.2092,-2.2359,-2.2592,-2.2779,-2.2745,-2.3393,-2.458,-2.4339,-2.4631,-2.5494,-2.5316,-2.5226,-2.5274,-2.6466,-2.743,-2.8148,-2.8717,-2.9005,-2.9051,-2.9445,-2.9377,-2.8759,-2.8963,-2.8489,-2.7161,0.0,0.0,0.0,0.0,0.0,0.0,0.0,0.0,0.0,0.0,0.0,0.0,0.0,0.0,0.0,-2.8832,0.0,-3.0081,-2.9401,0.0,0.0,0.0,-2.7818,-2.7818,-2.7769,-2.7692,-2.757,0.0,0.0,-2.7486,0.0,-2.8903,-3.0095,-3.0282,-3.0369,-3.0577,-3.0567,-3.0717,-3.0997,-3.107,-3.1164,-3.1268,-3.1398,-3.1581,-3.1917,-3.2074,-3.2141,-3.2323,-3.242,-3.2521,-3.2641,-3.2214,-3.1822,-3.1928,-3.1519,-3.1376,-3.2416,-3.2692,-3.2592,-3.2012,-3.179,-3.1504,-2.0039,-2.0268,-2.0254,-2.0454,-2.0787,-2.0387,-2.0034,-1.9767,-1.9871,-1.9912,-1.9912,-2.0352,-2.0556,-2.0564,-2.0685,-2.0597,-2.0387,-2.0888,-2.0959,-2.0793,-2.1303,-2.1255,-2.0827,-2.1018,-2.0985,-2.0743,-2.0816,-2.0999,-2.1198,-2.1282,-2.1458,-2.1734,-2.1608,-2.2482,-2.4314,-2.4109,-2.4255,-2.4834,-2.4552,-2.4585,-2.5014,-2.5947,-2.6632,-2.6986,-2.7735,-2.8238,-2.8472,-2.8599,-2.8678,-2.8707,-2.8443,-2.8124,-2.7768,-2.6795,0.0,0.0,0.0,0.0,0.0,0.0,0.0,0.0,0.0,-2.5812,-2.6555,0.0,-2.8051,0.0,-2.8951,-2.9478,-2.9655,-2.8896,0.0,0.0,-2.7689,-2.7211,-2.7211,-2.6755,-2.6643,-2.7111,-2.6751,-2.6651,-2.7127,-2.7242,-2.7428,-2.7854,-2.8257,-2.8562,-2.8718,-2.8778,-2.8876,-2.9084,-2.9178,-2.9223,-2.9406,-2.9522,-2.9739,-2.9971,-3.011,-3.0196,-3.0263,-3.0447,-3.0608,-3.0755,-3.071,-3.066,-3.0779,-3.0677,-3.0474,-3.0428,-3.1016,-3.1629,-3.1434,-3.0974,-3.0595,-1.8847,-1.882,-1.8941,-1.8988,-1.9081,-1.9265,-1.9208,-1.8994,-1.9145,-1.9192,-1.9222,-1.9666,-1.9981,-2.0167,-2.0091,-2.0022,-1.9987,-2.0108,-2.0044,-1.9879,-2.0211,-2.018,-1.9807,-2.0066,-2.0159,-2.0053,-2.0215,-2.0267,-2.0268,-2.0361,-2.0486,-2.0582,-2.0637,-2.1399,-2.2725,-2.2769,-2.2938,-2.3295,-2.3043,-2.3234,-2.4008,-2.4811,-2.5469,-2.605,-2.6874,-2.7418,-2.766,-2.7849,-2.8021,-2.8152,-2.8021,-2.7837,-2.7611,-2.6992,-2.6282,0.0,0.0,0.0,0.0,0.0,0.0,0.0,0.0,0.0,0.0,0.0,-2.7934,-2.8162,-2.8654,-2.8943,-2.9006,-2.8567,-2.8302,-2.8302,-2.7889,-2.7522,-2.721,-2.6858,-2.6633,-2.6636,-2.6259,-2.6013,-2.615,-2.6134,-2.6047,-2.5794,-2.6088,-2.6659,-2.7555,-2.7786,-2.785,-2.803,-2.807,-2.8151,-2.8307,-2.8498,-2.8703,-2.8868,-2.8996,-2.9088,-2.9247,-2.9403,-2.9539,-2.9723,-2.9577,-2.9446,-2.9521,-2.9299,-2.9039,-2.8891,-2.9281,-2.9835,-3.001,-2.9777,-2.9557,-1.7561,-1.735,-1.7557,-1.7447,-1.7146,-1.7904,-1.8262,-1.837,-1.8484,-1.8576,-1.8625,-1.8984,-1.9244,-1.9337,-1.9016,-1.907,-1.9391,-1.9192,-1.901,-1.8864,-1.9157,-1.9093,-1.8751,-1.9042,-1.9285,-1.9473,-1.9607,-1.9523,-1.9292,-1.9503,-1.9512,-1.9333,-1.9703,-2.0113,-2.0528,-2.0819,-2.1134,-2.1484,-2.136,-2.1727,-2.2616,-2.342,-2.4264,-2.5097,-2.6031,-2.6616,-2.6771,-2.7133,-2.7338,-2.7363,-2.76,-2.7518,-2.707,-2.7011,-2.6596,0.0,-2.5076,0.0,0.0,0.0,0.0,0.0,0.0,0.0,0.0,-2.7026,-2.7466,-2.7978,-2.8048,-2.8097,-2.825,-2.8275,-2.8275,-2.8299,-2.8222,-2.7915,-2.7395,-2.7149,-2.6765,-2.6069,-2.5925,-2.5575,-2.496,-2.4913,-2.475,-2.4277,-2.4284,-2.4947,-2.6409,-2.6835,-2.6928,-2.7189,-2.7251,-2.7195,-2.7387,-2.7611,-2.7767,-2.7951,-2.7999,-2.8231,-2.8425,-2.8516,-2.8657,-2.8836,-2.8475,-2.8214,-2.8262,-2.7886,-2.7579,-2.7609,-2.7886,-2.8173,-2.8488,-2.8647,-2.8651,-1.6418,-1.6345,-1.6299,-1.6244,-1.6162,-1.6228,-1.657,-1.7072,-1.7457,-1.7829,-1.8152,-1.8193,-1.8228,-1.8144,-1.8249,-1.8122,-1.7906,-1.8029,-1.8014,-1.7968,-1.8193,-1.8315,-1.8381,-1.8573,-1.8684,-1.8687,-1.8592,-1.8539,-1.8585,-1.8166,-1.8056,-1.8291,-1.8199,-1.8331,-1.8627,0.0,0.0,0.0,-2.065,-2.0886,-2.1217,-2.2502,-2.332,-2.3639,-2.494,0.0,-2.6069,-2.6285,-2.6404,-2.6522,-2.6785,0.0,0.0,0.0,0.0,0.0,0.0,0.0,0.0,0.0,0.0,0.0,-2.5496,-2.5913,-2.6329,-2.6738,-2.7026,-2.7133,-2.7251,-2.7382,-2.7579,-2.7564,-2.7615,-2.771,-2.7269,-2.6883,-2.6727,-2.5808,-2.5055,-2.4912,-2.4424,-2.4063,-2.3951,-2.3876,-2.3868,-2.3747,-2.3702,-2.3915,-2.4408,-2.4932,-2.5138,-2.5183,-2.5456,-2.5536,-2.5607,-2.573,-2.5892,-2.5918,-2.6086,-2.6232,-2.6397,-2.6584,-2.6677,-2.6784,-2.6859,-2.6979,-2.7046,-2.7076,-2.712,-2.7182,-2.7402,-2.7692,-2.8042,-2.8205,-2.8322,-1.5553,0.0,-1.5326,-1.5311,0.0,-1.5216,-1.5401,-1.5775,-1.6566,-1.7106,-1.7335,-1.7194,-1.7219,-1.7341,-1.709,-1.704,-1.7081,-1.7071,-1.7162,-1.7314,-1.752,-1.7735,-1.7896,-1.8144,-1.8255,-1.8259,-1.8097,-1.7958,-1.7809,-1.7357,-1.7166,-1.7198,-1.7247,-1.7385,-1.7639,-1.8061,-1.8762,-1.9798,-1.9926,-2.0271,-2.0823,-2.193,-2.2736,-2.3217,0.0,0.0,0.0,0.0,0.0,0.0,0.0,0.0,0.0,0.0,0.0,-2.5904,-2.5633,-2.5326,-2.4961,-2.5258,-2.5359,-2.5049,-2.5301,-2.5668,-2.6179,-2.6376,-2.651,-2.651,-2.6563,-2.6669,-2.6826,-2.6575,-2.6462,-2.656,-2.6041,-2.558,-2.5259,-2.4684,-2.4138,-2.3799,-2.3474,-2.3268,-2.3246,-2.3231,-2.3268,-2.3268,-2.3312,-2.3392,-2.348,-2.3888,-2.424,-2.4349,-2.4508,-2.4666,-2.4695,-2.4751,-2.4851,-2.4989,-2.5111,-2.5246,-2.5381,-2.557,-2.5738,-2.5866,-2.6083,-2.6278,-2.6349,-2.6538,-2.6708,-2.6775,-2.7039,-2.7279,-2.7496,-2.7763,-2.7911,-1.4752,-1.4531,-1.4573,-1.4615,-1.4615,-1.465,-1.465,-1.4776,0.0,0.0,0.0,-1.6133,-1.6221,-1.646,-1.5871,-1.5945,-1.6389,-1.6201,-1.6342,-1.676,-1.6968,-1.7141,-1.7401,-1.7701,-1.7872,-1.792,-1.7711,-1.7436,-1.7086,-1.6759,-1.6502,-1.6347,-1.6563,-1.6825,-1.7134,-1.754,-1.8197,-1.9052,-1.921,-1.9705,-2.0586,-2.1397,-2.2165,-2.2943,-2.3817,-2.4379,-2.4578,-2.4863,-2.5005,-2.502,-2.5133,-2.5328,-2.5633,-2.5702,-2.5642,-2.5479,-2.5448,-2.522,-2.4671,-2.5137,-2.5279,-2.4868,-2.497,-2.5314,-2.5893,-2.5921,-2.5921,-2.5921,-2.5893,-2.5919,-2.5953,-2.5512,-2.5234,-2.5249,-2.474,-2.4201,-2.3798,-2.362,-2.3369,-2.2892,-2.2791,-2.2777,-2.2777,-2.2777,-2.2762,-2.2799,-2.2904,-2.3016,-2.3083,-2.3458,-2.3824,-2.3994,-2.412,-2.4177,-2.4198,-2.4297,-2.44,-2.4487,-2.4594,-2.4735,-2.4914,-2.5084,-2.524,-2.5378,-2.5621,-2.5789,-2.5899,-2.6118,-2.6296,-2.6296,-2.6607,-2.6825,-2.6788,-2.707,-2.7189,-1.3897,-1.3857,-1.4082,-1.4166,-1.4208,-1.4356,-1.4566,-1.4734,-1.5117,-1.5255,-1.5234,-1.5343,-1.5248,-1.4932,-1.4981,-1.5182,-1.5386,-1.5371,-1.5665,0.0,-1.6342,-1.6621,-1.6978,-1.721,-1.7417,-1.7507,-1.6927,-1.6672,-1.6682,-1.6168,-1.5887,-1.5982,-1.6124,-1.64,-1.6835,-1.705,-1.7401,-1.7959,-1.8464,-1.9078,-1.9854,-2.0583,-2.1305,-2.1993,-2.2997,-2.3628,-2.3763,-2.4086,-2.4234,-2.4234,-2.4379,-2.4509,-2.4694,-2.485,-2.5049,-2.5218,-2.5232,-2.5191,-2.5108,-2.5191,-2.5024,-2.463,-2.4483,-2.4666,-2.5258,-2.523,-2.5174,-2.5146,-2.516,-2.5011,-2.4722,-2.4569,-2.4331,-2.4,-2.3504,-2.3133,-2.3007,-2.2681,-2.2428,-2.2315,-2.2287,-2.2287,-2.2287,-2.2287,-2.2287,-2.231,-2.2426,-2.2563,-2.2777,-2.3216,-2.3523,-2.3653,-2.3681,-2.3717,-2.3717,-2.3818,-2.3946,-2.4051,-2.4156,-2.4251,-2.441,-2.4589,-2.471,-2.4735,-2.5088,-2.5336,-2.5413,-2.5715,-2.5917,-2.5972,-2.6174,-2.6183,-2.5749,-2.5761,-2.5914,-1.3434,-1.3568,-1.3779,-1.387,-1.3906,-1.4117,-1.4286,-1.4356,-1.4324,-1.4426,-1.4574,-1.437,-1.4207,-1.4118,-1.4119,-1.4327,-1.4589,-1.4713,-1.507,-1.5594,-1.5665,-1.5991,-1.6447,-1.6647,-1.6864,-1.7104,-1.6468,-1.6265,-1.6452,-1.5799,-1.5566,-1.5788,-1.5933,-1.6124,-1.64,-1.6581,-1.6992,-1.7592,-1.8205,-1.8871,-1.9626,-2.0445,-2.1117,-2.1746,-2.2469,-2.2939,-2.3047,-2.3318,-2.3497,-2.3531,-2.3603,-2.375,-2.3985,-2.4115,-2.429,-2.4551,-2.4622,-2.458,-2.4593,-2.4549,-2.4419,-2.4173,-2.4028,-2.4015,-2.4319,-2.445,-2.4507,-2.4494,-2.4283,-2.4046,-2.3877,-2.3326,-2.2906,-2.2842,-2.2294,-2.2002,-2.2034,-2.1914,-2.1783,-2.1783,-2.1769,-2.1769,-2.1783,-2.1783,-2.1769,-2.1769,-2.1926,-2.2147,-2.2379,-2.2632,-2.2918,-2.3172,-2.3224,-2.3224,-2.3224,-2.3312,-2.3458,-2.3603,-2.3711,-2.3824,-2.3988,-2.4177,-2.4297,-2.4328,-2.465,-2.4886,-2.4926,-2.5278,-2.5524,-2.5567,-2.5448,-2.5302,-2.5043,-2.4646,-2.4363,-1.3003,-1.3264,-1.3483,-1.3603,-1.3688,-1.3913,-1.4046,-1.4048,-1.3701,-1.3703,-1.3943,-1.3522,-1.3365,-1.3424,-1.3381,-1.3557,-1.3876,-1.4101,-1.4453,-1.4919,-1.4991,-1.5311,-1.5842,-1.6026,-1.6263,-1.6609,-1.6132,-1.5974,-1.6148,-1.5554,-1.5361,-1.5595,-1.5759,-1.5914,-1.6038,-1.6294,-1.6734,-1.7362,-1.7997,-1.8714,-1.9542,-2.0284,-2.0908,-2.1447,-2.1901,-2.2266,-2.2396,-2.258,-2.2744,-2.2866,-2.2896,-2.3017,-2.3288,-2.333,-2.3467,-2.3738,-2.3754,-2.3796,-2.3809,-2.3675,-2.3641,-2.3684,-2.3522,-2.3339,-2.3242,-2.3453,-2.3687,-2.3722,-2.3454,-2.3171,-2.2849,-2.2167,-2.1602,-2.1661,-2.1287,-2.1097,-2.1155,-2.1191,-2.1215,-2.1229,-2.1215,-2.1215,-2.1215,-2.1215,-2.1264,-2.135,-2.1496,-2.1698,-2.1949,-2.202,-2.2194,-2.2457,-2.2663,-2.2731,-2.2768,-2.2881,-2.3031,-2.3142,-2.3275,-2.3429,-2.3603,-2.3732,-2.3897,-2.3973,-2.4224,-2.4446,-2.4513,-2.4831,-2.5024,-2.4907,-2.4703,-2.447,-2.4089,-2.3407,-2.2909,-1.2363,-1.279,-1.3009,-1.3355,-1.3695,-1.3737,-1.387,-1.4015,-1.3494,-1.3247,-1.3345,-1.3117,-1.2893,-1.2735,-1.287,-1.309,-1.3302,-1.3492,-1.3811,-1.4201,-1.4389,-1.474,-1.5275,-1.5275,-1.5594,-1.6088,-1.5838,-1.5722,-1.5771,-1.5486,-1.5298,-1.5283,-1.5556,-1.5741,-1.5819,-1.6257,-1.6617,-1.6878,-1.7719,-1.8533,-1.9374,-1.9792,-2.0214,-2.0677,-2.1198,-2.1588,-2.1776,-2.192,-2.2087,-2.2278,-2.2278,-2.2371,-2.25,-2.2512,-2.258,-2.2713,-2.2743,-2.2829,-2.2987,-2.2836,-2.2805,-2.2969,-2.2836,-2.259,-2.2145,-2.2088,-2.2339,-2.2694,-2.2811,-2.2352,-2.1493,-2.1183,-2.0913,-2.0553,-2.0487,-2.0485,-2.0523,-2.0598,-2.0673,-2.066,-2.0684,-2.0673,-2.0684,-2.0684,-2.0772,-2.0959,-2.1033,-2.118,-2.141,-2.1458,-2.1482,-2.1626,-2.1912,-2.2217,-2.2263,-2.2486,-2.2615,-2.2669,-2.2836,-2.3016,-2.315,-2.3282,-2.3429,-2.3631,-2.3861,-2.4051,-2.4183,-2.4431,-2.4447,-2.4198,-2.398,-2.3676,-2.2689,-2.2151,-2.2022,-1.1542,-1.2106,-1.2357,-1.2796,-1.3313,-1.3568,-1.3737,-1.3811,-1.342,-1.3206,-1.3146,-1.2775,-1.253,-1.2452,-1.2636,-1.2783,-1.2863,-1.3053,-1.3302,-1.3593,-1.3783,-1.4101,-1.4525,-1.4776,-1.5098,-1.5525,-1.5455,-1.55,-1.5662,-1.5675,-1.5714,-1.5799,-1.6007,-1.612,-1.615,-1.6542,-1.6947,-1.7269,-1.7726,-1.8267,-1.8863,-1.9415,-1.9857,-2.0161,-2.0463,-2.0752,-2.1019,-2.1115,-2.1273,-2.158,-2.1612,-2.1663,-2.1808,-2.1819,-2.1846,-2.1978,-2.2021,-2.2051,-2.2125,-2.2168,-2.223,-2.2304,-2.2074,-2.1837,-2.163,-2.1326,-2.1137,-2.1045,-2.1163,-2.1077,-2.077,-2.0443,-2.0153,-2.0003,-2.0003,-2.0029,-2.0055,-2.0093,-2.0118,-2.0131,-2.0131,-2.0131,-2.0131,-2.0131,-2.0245,-2.046,-2.0511,-2.0623,-2.0858,-2.0932,-2.0932,-2.097,-2.1129,-2.1385,-2.1674,-2.1949,-2.2091,-2.217,-2.2402,-2.2632,-2.2783,-2.2949,-2.3113,-2.3268,-2.3516,-2.3711,-2.3803,-2.403,-2.4117,-2.3819,-2.3651,-2.3349,-2.2104,-2.1889,-2.1841,-1.0766,-1.1413,-1.1752,-1.232,-1.3009,-1.3307,-1.3519,-1.3659,-1.3299,-1.3134,-1.3146,-1.2572,-1.2305,-1.2342,-1.2452,-1.2519,-1.2526,-1.2709,-1.29,-1.3053,-1.3229,-1.3557,-1.392,-1.4173,-1.4533,-1.4922,-1.5018,-1.5206,-1.5544,-1.5653,-1.5785,-1.6028,-1.6201,-1.6297,-1.638,-1.6785,-1.717,-1.7465,-1.7767,-1.8105,-1.8465,-1.8942,-1.9341,-1.9605,-1.9791,-2.002,-2.0324,-2.0388,-2.055,-2.0892,-2.0903,-2.0955,-2.1028,-2.104,-2.1092,-2.1175,-2.1207,-2.1207,-2.127,-2.1439,-2.1506,-2.1416,-2.1216,-2.1015,-2.0718,-2.0361,-1.9904,-1.9468,-1.9509,-1.9752,-2.0,-1.9707,-1.9486,-1.9578,-1.9566,-1.9604,-1.9578,-1.9578,-1.9604,-1.9578,-1.9578,-1.9566,-1.9578,-1.9578,-1.9682,-1.9901,-1.9978,-2.0067,-2.0308,-2.0384,-2.0384,-2.0434,-2.0434,-2.0673,-2.1118,-2.1423,-2.1568,-2.1698,-2.1935,-2.2208,-2.237,-2.2563,-2.2777,-2.2926,-2.3172,-2.3363,-2.3458,-2.3653,-2.3737,-2.3671,-2.3431,-2.3002,-2.2147,-2.2001,-2.1773,-1.0038,-1.0717,-1.1413,-1.21,-1.2705,-1.279,-1.3137,-1.3607,-1.3137,-1.3015,-1.3094,-1.2572,-1.2305,-1.2305,-1.2342,-1.2305,-1.2342,-1.2526,-1.2606,-1.268,-1.2863,-1.3156,-1.3528,-1.3564,-1.3891,-1.4389,-1.4565,-1.4849,-1.5232,-1.5186,-1.5325,-1.5716,-1.5924,-1.6066,-1.6302,-1.6843,-1.7114,-1.7234,-1.7711,-1.808,-1.8269,-1.8327,-1.8573,-1.8841,-1.9185,-1.944,-1.9638,-1.9835,-1.9998,-2.0139,-2.0172,-2.0161,-2.0161,-2.0193,-2.0204,-2.0193,-2.0193,-2.0258,-2.0452,-2.0624,-2.0572,-2.0341,-2.0335,-2.0054,-1.9281,-1.9045,-1.878,-1.8242,-1.8258,-1.8503,-1.895,-1.9032,-1.9013,-1.9013,-1.904,-1.904,-1.904,-1.9013,-1.904,-1.904,-1.9013,-1.9013,-1.9013,-1.904,-1.9172,-1.933,-1.9434,-1.9539,-1.9747,-1.9824,-1.9888,-1.9978,-2.0029,-2.0207,-2.0709,-2.097,-2.1093,-2.1215,-2.1434,-2.1688,-2.1878,-2.2067,-2.2324,-2.2578,-2.2791,-2.2971,-2.3127,-2.3179,-2.3148,-2.3022,-2.2753,-2.2271,-2.2279,-2.183,-2.161,-0.9467,-1.025,-1.0939,-1.1456,-1.1886,-1.2448,-1.2918,-1.3256,-1.3016,-1.3008,-1.3067,-1.2572,-1.2305,-1.2305,-1.2305,-1.2305,-1.2298,-1.2372,-1.2415,-1.2452,-1.2599,-1.2783,-1.2936,-1.3156,-1.3455,-1.3819,-1.4137,-1.4605,-1.5163,-1.5187,-1.5437,-1.5891,-1.6095,-1.6342,-1.6631,-1.6979,-1.7224,-1.7378,-1.7658,-1.7852,-1.792,-1.8032,-1.8178,-1.8269,-1.8607,-1.8885,-1.9075,-1.9142,-1.9264,-1.9462,-1.9528,-1.9594,-1.9594,-1.9693,-1.9758,-1.9791,-1.9758,-1.9824,-1.9889,-2.0031,-1.9975,-1.9598,-1.941,-1.9037,-1.8414,-1.8007,-1.774,-1.7568,-1.7523,-1.7661,-1.7854,-1.8193,-1.841,-1.8437,-1.8437,-1.8437,-1.8437,-1.8437,-1.8437,-1.8425,-1.841,-1.8437,-1.8437,-1.8425,-1.8572,-1.8827,-1.8907,-1.9013,-1.9198,-1.9291,-1.9317,-1.9448,-1.9512,-1.9604,-1.9939,-2.0397,-2.0648,-2.0772,-2.0945,-2.1155,-2.135,-2.1712,-2.1996,-2.21,-2.2333,-2.2446,-2.2502,-2.2169,-2.222,-2.2527,-2.2249,-2.2249,-2.2611,-2.1934,-2.1661,-0.9034,-0.9694,-1.0381,-1.0857,-1.1284,-1.2063,-1.2625,-1.2953,-1.2943,-1.2974,-1.3008,-1.2627,-1.2398,-1.2318,-1.2305,-1.2305,-1.2305,-1.2305,-1.2305,-1.2305,-1.2452,-1.2526,-1.2636,-1.2856,-1.3083,-1.3339,-1.3739,-1.4238,-1.4804,-1.4919,-1.524,-1.5762,-1.5921,-1.6202,-1.6586,-1.683,-1.7047,-1.7279,-1.7476,-1.7569,-1.7647,-1.7794,-1.7896,-1.7964,-1.8178,-1.8448,-1.864,-1.8674,-1.8774,-1.8918,-1.8975,-1.9042,-1.9052,-1.9175,-1.9241,-1.9241,-1.9241,-1.9241,-1.9274,-1.944,-1.9263,-1.869,-1.8474,-1.8126,-1.7513,-1.712,-1.6941,-1.6909,-1.6909,-1.6909,-1.6994,-1.7284,-1.759,-1.7783,-1.781,-1.7799,-1.7799,-1.781,-1.7799,-1.781,-1.781,-1.781,-1.781,-1.781,-1.7963,-1.8263,-1.8317,-1.8425,-1.8652,-1.8721,-1.8801,-1.8948,-1.9028,-1.916,-1.9448,-1.9798,-2.0144,-2.0309,-2.0548,-2.0723,-2.0921,-2.1313,-2.1568,-2.165,-2.1749,-2.1828,-2.1682,-2.129,-2.1464,-2.1915,-2.1963,-2.1863,-2.1924,-2.1857,-2.155,-0.8727,-0.9038,-0.9694,-1.0424,-1.0982,-1.1585,-1.2106,-1.2656,-1.292,-1.2962,-1.2903,-1.2782,-1.2589,-1.2351,-1.2305,-1.2305,-1.2305,-1.2305,-1.2305,-1.2305,-1.2305,-1.2409,-1.2562,-1.2599,-1.2746,-1.2936,-1.3309,-1.3702,-1.4093,-1.431,-1.4669,-1.5098,-1.5196,-1.5524,-1.6105,-1.6237,-1.6482,-1.683,-1.7072,-1.7245,-1.747,-1.7623,-1.7706,-1.774,-1.793,-1.811,-1.8303,-1.8405,-1.8482,-1.8516,-1.8506,-1.8516,-1.8549,-1.8583,-1.8549,-1.8583,-1.8549,-1.8516,-1.8583,-1.8731,-1.8486,-1.7758,-1.7637,-1.7366,-1.663,-1.6384,-1.6353,-1.6353,-1.6353,-1.6324,-1.6353,-1.641,-1.6666,-1.7166,-1.7228,-1.719,-1.72,-1.72,-1.719,-1.719,-1.719,-1.719,-1.7217,-1.7217,-1.7385,-1.7645,-1.7728,-1.781,-1.8057,-1.8111,-1.8236,-1.8479,-1.856,-1.8667,-1.8948,-1.9239,-1.9565,-1.9849,-2.0169,-2.0422,-2.0548,-2.0833,-2.1068,-2.1202,-2.1298,-2.1356,-2.1336,-2.0976,-2.0754,-2.1043,-2.1152,-2.138,-2.1434,-2.1401,-2.1139,-0.8332,-0.8771,-0.9428,-1.0038,-1.0593,-1.137,-1.1977,-1.251,-1.285,-1.2954,-1.2909,-1.2847,-1.2616,-1.2358,-1.2305,-1.2305,-1.2305,-1.2305,-1.2305,-1.2305,-1.2305,-1.2342,-1.2378,-1.2409,-1.2482,-1.2716,-1.2973,-1.3229,-1.3484,-1.371,-1.4029,-1.4382,-1.4561,-1.4919,-1.5453,-1.5524,-1.5806,-1.6307,-1.6482,-1.6726,-1.7047,-1.7279,-1.7467,-1.7672,-1.7784,-1.7886,-1.8076,-1.8144,-1.8178,-1.8178,-1.8269,-1.8405,-1.8482,-1.8482,-1.8482,-1.8482,-1.8482,-1.8482,-1.8482,-1.8519,-1.819,-1.7464,-1.7315,-1.6911,-1.6181,-1.6019,-1.6019,-1.6019,-1.6029,-1.6019,-1.6019,-1.6019,-1.622,-1.6552,-1.6609,-1.6599,-1.6599,-1.6609,-1.657,-1.657,-1.657,-1.6627,-1.674,-1.6768,-1.6881,-1.7134,-1.7217,-1.7301,-1.7479,-1.7523,-1.7617,-1.7893,-1.7975,-1.8166,-1.8479,-1.8735,-1.8975,-1.9356,-1.9734,-2.0042,-2.0182,-2.0359,-2.0598,-2.0766,-2.0845,-2.0869,-2.0822,-2.0592,-2.0316,-2.0238,-2.0411,-2.0703,-2.1032,-2.0866,-2.0478,-0.7984,-0.842,-0.9078,-0.9685,-1.0294,-1.1154,-1.1806,-1.2308,-1.292,-1.3067,-1.2965,-1.3055,-1.2884,-1.2532,-1.2465,-1.2405,-1.2318,-1.2305,-1.2305,-1.2305,-1.2305,-1.2305,-1.2305,-1.2305,-1.2378,-1.2482,-1.2673,-1.2856,-1.2973,-1.3193,-1.3448,-1.3739,-1.3956,-1.431,-1.4776,-1.4955,-1.524,-1.57,-1.6,-1.6272,-1.6595,-1.6934,-1.721,-1.7373,-1.7554,-1.7716,-1.7862,-1.7896,-1.793,-1.8008,-1.8134,-1.8212,-1.8313,-1.8313,-1.8313,-1.8313,-1.8313,-1.8313,-1.8323,-1.8269,-1.7936,-1.7221,-1.7012,-1.6646,-1.592,-1.5701,-1.5701,-1.5701,-1.5701,-1.572,-1.572,-1.573,-1.5807,-1.5941,-1.6095,-1.6153,-1.6153,-1.6163,-1.6163,-1.6192,-1.6163,-1.622,-1.6306,-1.6363,-1.6438,-1.6616,-1.6673,-1.6758,-1.6937,-1.6994,-1.7162,-1.7329,-1.7429,-1.7678,-1.8057,-1.8263,-1.8425,-1.8827,-1.9265,-1.9578,-1.9798,-2.0003,-2.0232,-2.0367,-2.0503,-2.0417,-2.0359,-1.9912,-1.957,-1.9662,-1.9796,-1.9749,-1.9898,-1.9859,-1.9609,-0.769,-0.7988,-0.8648,-0.9388,-1.0077,-1.0987,-1.1634,-1.2166,-1.3003,-1.3249,-1.3155,-1.3357,-1.3287,-1.2898,-1.2811,-1.269,-1.2405,-1.2371,-1.2378,-1.2358,-1.2331,-1.2305,-1.2305,-1.2305,-1.2305,-1.2342,-1.2482,-1.2562,-1.2636,-1.282,-1.2973,-1.3193,-1.3419,-1.3674,-1.4065,-1.4382,-1.474,-1.5133,-1.5505,-1.5788,-1.6026,-1.656,-1.6839,-1.6899,-1.722,-1.7495,-1.7647,-1.7681,-1.7784,-1.7974,-1.8008,-1.8042,-1.8008,-1.8008,-1.8032,-1.8042,-1.8008,-1.8042,-1.8008,-1.8076,-1.767,-1.6855,-1.6699,-1.6326,-1.5566,-1.5391,-1.5391,-1.5391,-1.5391,-1.5381,-1.5391,-1.5391,-1.5391,-1.5449,-1.5691,-1.5846,-1.5856,-1.5856,-1.5875,-1.5875,-1.5885,-1.5885,-1.5933,-1.5943,-1.6019,-1.6095,-1.6171,-1.6314,-1.6438,-1.6581,-1.6673,-1.6814,-1.6927,-1.719,-1.7534,-1.7689,-1.787,-1.8275,-1.8694,-1.9001,-1.9436,-1.9708,-1.9914,-2.0066,-2.0149,-2.007,-1.9948,-1.9674,-1.9432,-1.9527,-1.938,-1.8934,-1.8893,-1.9095,-1.9171,-0.7923,-0.7992,-0.8823,-0.9519,-1.0081,-1.0939,-1.1671,-1.2369,-1.3052,-1.3323,-1.3324,-1.3484,-1.3413,-1.3113,-1.3086,-1.3039,-1.2906,-1.2764,-1.267,-1.2623,-1.2385,-1.2311,-1.2305,-1.2305,-1.2305,-1.2305,-1.2378,-1.2378,-1.2372,-1.2599,-1.2709,-1.2783,-1.2966,-1.3266,-1.3637,-1.3746,-1.4072,-1.4569,-1.4784,-1.5106,-1.5453,-1.5859,-1.6219,-1.6482,-1.6839,-1.7151,-1.7339,-1.7495,-1.7701,-1.7974,-1.8008,-1.8008,-1.7974,-1.7974,-1.7974,-1.7974,-1.7974,-1.8008,-1.8008,-1.7974,-1.7531,-1.6696,-1.6548,-1.6141,-1.5213,-1.5117,-1.5117,-1.5117,-1.5088,-1.5117,-1.5117,-1.5117,-1.5176,-1.5264,-1.543,-1.5536,-1.5565,-1.5546,-1.5536,-1.5546,-1.5546,-1.5633,-1.5701,-1.5759,-1.5788,-1.5904,-1.5923,-1.5951,-1.6105,-1.6134,-1.6239,-1.6324,-1.6467,-1.6722,-1.6948,-1.7106,-1.7357,-1.7739,-1.8111,-1.8398,-1.8922,-1.9422,-1.9656,-1.9889,-1.9965,-1.9937,-2.0031,-1.9954,-1.979,-1.955,-1.9427,-1.9203,-1.9024,-1.9079,-1.9001,-0.7997,-0.8176,-0.8853,-0.9519,-1.0207,-1.0987,-1.1714,-1.2443,-1.3094,-1.3442,-1.3515,-1.3703,-1.3626,-1.3373,-1.3394,-1.3313,-1.3193,-1.3026,-1.2911,-1.2723,-1.2438,-1.2318,-1.2305,-1.2305,-1.2305,-1.2305,-1.2305,-1.2305,-1.2342,-1.2452,-1.2482,-1.2526,-1.2673,-1.29,-1.3127,-1.3309,-1.3557,-1.3992,-1.4245,-1.4561,-1.4955,-1.5355,-1.5718,-1.6061,-1.6421,-1.6726,-1.7038,-1.7254,-1.7529,-1.7735,-1.7769,-1.7769,-1.7769,-1.7803,-1.7769,-1.7803,-1.7803,-1.7803,-1.7769,-1.7759,-1.7427,-1.6762,-1.6504,-1.6004,-1.5419,-1.5133,-1.5009,-1.5009,-1.5009,-1.5009,-1.5009,-1.5009,-1.5039,-1.5098,-1.5196,-1.5274,-1.5381,-1.542,-1.542,-1.542,-1.542,-1.542,-1.5575,-1.5575,-1.5614,-1.5672,-1.5662,-1.572,-1.5817,-1.5817,-1.5846,-1.599,-1.6105,-1.6296,-1.6495,-1.6666,-1.6881,-1.7267,-1.7656,-1.7909,-1.8414,-1.9028,-1.933,-1.9539,-1.9694,-1.9837,-1.9902,-1.9962,-1.989,-1.9708,-1.9614,-1.9394,-1.9117,-1.9024,-1.8929,-0.8037,-0.8446,-0.8831,-0.9494,-1.0386,-1.1063,-1.1794,-1.2491,-1.3137,-1.3519,-1.3753,-1.399,-1.3915,-1.3653,-1.3687,-1.352,-1.3333,-1.3287,-1.3066,-1.2864,-1.2552,-1.2392,-1.2392,-1.2325,-1.2311,-1.2305,-1.2305,-1.2305,-1.2305,-1.2305,-1.2305,-1.2378,-1.2489,-1.2562,-1.2753,-1.2973,-1.3236,-1.3484,-1.3848,-1.4137,-1.4461,-1.4856,-1.5248,-1.5576,-1.5964,-1.6316,-1.6691,-1.6968,-1.7176,-1.7332,-1.7461,-1.7539,-1.7505,-1.7505,-1.747,-1.7461,-1.747,-1.7436,-1.7436,-1.7417,-1.7213,-1.6694,-1.628,-1.5927,-1.5432,-1.5027,-1.4793,-1.4764,-1.4882,-1.4823,-1.4793,-1.4862,-1.4823,-1.4823,-1.4882,-1.5049,-1.5274,-1.5323,-1.5352,-1.5352,-1.5391,-1.5391,-1.542,-1.542,-1.542,-1.5517,-1.5507,-1.5565,-1.5633,-1.5633,-1.5701,-1.5788,-1.5875,-1.5923,-1.6105,-1.6249,-1.6477,-1.679,-1.7228,-1.7579,-1.7991,-1.8494,-1.8881,-1.9146,-1.933,-1.9512,-1.9644,-1.9712,-1.9762,-1.9835,-1.9773,-1.9339,-1.8932,-1.8941,-1.8905,-0.838,-0.8458,-0.9328,-1.0014,-1.0608,-1.1327,-1.2143,-1.2924,-1.3264,-1.3652,-1.3955,-1.4088,-1.4048,-1.3981,-1.3961,-1.3955,-1.3814,-1.3586,-1.3347,-1.31,-1.2831,-1.2703,-1.263,-1.2445,-1.2318,-1.2311,-1.2305,-1.2305,-1.2305,-1.2305,-1.2305,-1.2305,-1.2342,-1.2445,-1.2599,-1.2673,-1.282,-1.3083,-1.3411,-1.3637,-1.3855,-1.4317,-1.4677,-1.4927,-1.5505,-1.5964,-1.6237,-1.6412,-1.6517,-1.6691,-1.7081,-1.7358,-1.7367,-1.7279,-1.721,-1.7176,-1.7072,-1.7012,-1.7012,-1.695,-1.6768,-1.6257,-1.5875,-1.5396,-1.4858,-1.4511,-1.4264,-1.4228,-1.4219,-1.4249,-1.4249,-1.4219,-1.4279,-1.4369,-1.4398,-1.4517,-1.4804,-1.4981,-1.5108,-1.5205,-1.5235,-1.5293,-1.5381,-1.5381,-1.5381,-1.542,-1.542,-1.542,-1.5449,-1.5478,-1.5546,-1.5633,-1.5662,-1.5749,-1.5807,-1.5961,-1.6192,-1.6392,-1.6779,-1.7088,-1.7523,-1.7936,-1.829,-1.864,-1.8934,-1.9146,-1.9317,-1.9592,-1.9673,-1.9775,-1.9863,-1.9573,-1.9279,-1.9148,-1.8762,-0.8767,-0.9056,-0.9676,-1.0291,-1.0963,-1.1597,-1.232,-1.3052,-1.3398,-1.3743,-1.4046,-1.4088,-1.4088,-1.4088,-1.4088,-1.4082,-1.4015,-1.374,-1.352,-1.336,-1.3113,-1.3012,-1.2899,-1.2659,-1.2458,-1.2345,-1.2305,-1.2305,-1.2305,-1.2305,-1.2305,-1.2305,-1.2311,-1.2378,-1.2452,-1.2502,-1.2606,-1.2753,-1.2973,-1.3156,-1.3419,-1.3746,-1.4209,-1.4497,-1.5078,-1.547,-1.5674,-1.585,-1.5991,-1.6123,-1.6473,-1.6795,-1.6899,-1.6795,-1.6716,-1.6656,-1.6508,-1.6368,-1.6368,-1.6359,-1.6253,-1.5928,-1.5558,-1.527,-1.4821,-1.4379,-1.4026,-1.3957,-1.3883,-1.3761,-1.3761,-1.3782,-1.3821,-1.3851,-1.3881,-1.3992,-1.4261,-1.4597,-1.4911,-1.5068,-1.5117,-1.5147,-1.5196,-1.5216,-1.5254,-1.5254,-1.5293,-1.5323,-1.542,-1.5449,-1.5449,-1.5478,-1.5517,-1.5546,-1.5575,-1.572,-1.5904,-1.6105,-1.6335,-1.6563,-1.6835,-1.7284,-1.77,-1.8084,-1.8464,-1.8786,-1.8999,-1.9265,-1.9526,-1.9671,-1.9712,-1.9736,-1.9566,-1.9102,-1.8663,-0.9043,-0.9706,-0.9956,-1.0555,-1.1355,-1.1914,-1.2539,-1.3137,-1.3525,-1.3828,-1.4046,-1.4088,-1.4088,-1.4088,-1.4088,-1.4088,-1.4021,-1.3881,-1.3728,-1.3633,-1.3367,-1.3293,-1.32,-1.2966,-1.2757,-1.2445,-1.2338,-1.2311,-1.2305,-1.2305,-1.2305,-1.2311,-1.2378,-1.2455,-1.2392,-1.2438,-1.26,-1.2808,-1.2801,-1.2894,-1.3124,-1.336,-1.3702,-1.4181,-1.4569,-1.4856,-1.507,-1.5248,-1.5426,-1.5586,-1.5621,-1.5762,-1.5947,-1.6017,-1.5982,-1.5947,-1.5762,-1.5621,-1.5594,-1.5586,-1.5569,-1.5604,-1.523,-1.5044,-1.4816,-1.432,-1.396,-1.3823,-1.3674,-1.3504,-1.3439,-1.3434,-1.3383,-1.3346,-1.3359,-1.345,-1.37,-1.4151,-1.4389,-1.4793,-1.4793,-1.4793,-1.4882,-1.4931,-1.5029,-1.5098,-1.5127,-1.5215,-1.5313,-1.5362,-1.5332,-1.5391,-1.542,-1.5449,-1.5478,-1.5507,-1.5691,-1.5846,-1.6019,-1.6134,-1.6345,-1.6705,-1.7183,-1.7629,-1.7975,-1.8302,-1.8598,-1.8854,-1.9107,-1.9396,-1.958,-1.9559,-1.9308,-1.8983,-1.8611,-0.9145,-0.9771,-1.0385,-1.1005,-1.1631,-1.2269,-1.2867,-1.3326,-1.3623,-1.387,-1.4088,-1.4088,-1.4088,-1.4088,-1.4088,-1.4088,-1.4068,-1.3988,-1.3975,-1.3928,-1.366,-1.3533,-1.352,-1.3273,-1.3093,-1.2926,-1.2639,-1.2392,-1.2365,-1.2305,-1.2412,-1.2385,-1.2596,-1.271,-1.279,-1.2899,-1.2973,-1.3029,-1.2963,-1.2982,-1.3048,-1.3105,-1.3251,-1.3681,-1.4029,-1.4274,-1.4497,-1.4641,-1.4748,-1.4784,-1.4784,-1.4848,-1.4955,-1.5169,-1.5275,-1.5275,-1.5026,-1.4848,-1.4848,-1.4812,-1.4812,-1.4732,-1.4514,-1.433,-1.4183,-1.391,-1.3587,-1.3507,-1.3459,-1.3372,-1.31,-1.3068,-1.2924,-1.2803,-1.2737,-1.2868,-1.3105,-1.3324,-1.3649,-1.41,-1.4249,-1.4369,-1.4458,-1.4577,-1.4675,-1.4764,-1.4862,-1.495,-1.5088,-1.5167,-1.5196,-1.5254,-1.5332,-1.5391,-1.542,-1.5449,-1.5507,-1.5662,-1.5778,-1.5846,-1.6058,-1.6288,-1.6676,-1.7088,-1.7507,-1.7865,-1.8166,-1.8425,-1.8747,-1.9054,-1.9214,-1.9373,-1.9265,-1.9081,-1.8771,-0.9322,-1.0065,-1.0599,-1.1249,-1.2043,-1.2645,-1.318,-1.3601,-1.3809,-1.3955,-1.4088,-1.4088,-1.4088,-1.4088,-1.4088,-1.4088,-1.4088,-1.4088,-1.4088,-1.4035,-1.3935,-1.3868,-1.3834,-1.3561,-1.342,-1.3273,-1.2954,-1.2766,-1.2772,-1.2786,-1.2746,-1.2806,-1.2933,-1.3025,-1.3045,-1.3106,-1.322,-1.3219,-1.3151,-1.3096,-1.3101,-1.3027,-1.3082,-1.3228,-1.3455,-1.3666,-1.3775,-1.3928,-1.4029,-1.4029,-1.4036,-1.4029,-1.4065,-1.4173,-1.4382,-1.4597,-1.4425,-1.4181,-1.4145,-1.4101,-1.4036,-1.4021,-1.3861,-1.38,-1.3709,-1.3469,-1.3203,-1.3017,-1.2923,-1.2863,-1.2689,-1.2707,-1.2656,-1.2592,-1.2448,-1.2538,-1.2759,-1.2733,-1.3001,-1.3414,-1.364,-1.3813,-1.3932,-1.4091,-1.4279,-1.4407,-1.4526,-1.4675,-1.4823,-1.4882,-1.4931,-1.5117,-1.5196,-1.5313,-1.5362,-1.5362,-1.5391,-1.5507,-1.5604,-1.5672,-1.5769,-1.599,-1.622,-1.6524,-1.6937,-1.7368,-1.7717,-1.8007,-1.836,-1.8694,-1.891,-1.9123,-1.9232,-1.9166,-1.8846,-0.9418,-1.0449,-1.0729,-1.1454,-1.2397,-1.2973,-1.3433,-1.3786,-1.4018,-1.4106,-1.4088,-1.4088,-1.4088,-1.4088,-1.4088,-1.4088,-1.4088,-1.4088,-1.4088,-1.4082,-1.4068,-1.4068,-1.4008,-1.3888,-1.3686,-1.3653,-1.3534,-1.332,-1.314,-1.3126,-1.318,-1.3173,-1.322,-1.3253,-1.3313,-1.342,-1.3367,-1.3373,-1.3267,-1.3287,-1.3192,-1.3054,-1.2941,-1.2917,-1.3045,-1.3119,-1.3236,-1.3339,-1.3419,-1.3411,-1.3411,-1.3382,-1.3346,-1.3229,-1.3448,-1.392,-1.3783,-1.3645,-1.3572,-1.3492,-1.3419,-1.3441,-1.3419,-1.3375,-1.3324,-1.315,-1.2896,-1.2553,-1.2559,-1.253,-1.2499,-1.2395,-1.2446,-1.2397,-1.2281,-1.2247,-1.247,-1.2516,-1.2448,-1.279,-1.3077,-1.3241,-1.3339,-1.3519,-1.3709,-1.383,-1.395,-1.4219,-1.4339,-1.4488,-1.4606,-1.4872,-1.5049,-1.5196,-1.5284,-1.5303,-1.5362,-1.5439,-1.5478,-1.5517,-1.5604,-1.573,-1.5923,-1.6124,-1.6381,-1.6807,-1.719,-1.7595,-1.7936,-1.829,-1.8614,-1.8883,-1.9059,-1.9068,-1.8841,-0.9418,-1.0458,-1.0925,-1.1636,-1.2472,-1.3164,-1.3565,-1.3837,-1.4028,-1.4094,-1.4088,-1.4088,-1.4088,-1.4088,-1.4088,-1.4088,-1.4088,-1.4088,-1.4088,-1.4088,-1.4088,-1.4088,-1.4088,-1.4068,-1.3981,-1.3968,-1.3948,-1.3674,-1.3414,-1.33,-1.326,-1.3313,-1.3467,-1.3553,-1.3614,-1.3761,-1.3975,-1.3921,-1.3673,-1.3433,-1.3227,-1.3024,-1.2939,-1.2883,-1.2845,-1.2767,-1.287,-1.2936,-1.2973,-1.2973,-1.2973,-1.2973,-1.2973,-1.2936,-1.2936,-1.3046,-1.3046,-1.301,-1.3046,-1.301,-1.2973,-1.2966,-1.2973,-1.2973,-1.2945,-1.2931,-1.2839,-1.2889,-1.2782,-1.2649,-1.2417,-1.2375,-1.2277,-1.2178,-1.2092,-1.213,-1.2256,-1.2296,-1.224,-1.2328,-1.2638,-1.2663,-1.2704,-1.2902,-1.3111,-1.3233,-1.3407,-1.3649,-1.3911,-1.4061,-1.427,-1.4547,-1.4813,-1.499,-1.5137,-1.5196,-1.5284,-1.5352,-1.5381,-1.542,-1.5478,-1.5575,-1.5633,-1.5836,-1.6038,-1.6267,-1.6655,-1.7078,-1.7496,-1.7881,-1.8209,-1.8587,-1.8934,-1.8871,-1.8856,-0.9324,-1.0216,-1.0904,-1.1682,-1.2454,-1.3167,-1.3642,-1.3804,-1.4007,-1.4084,-1.4079,-1.4088,-1.4088,-1.4088,-1.4088,-1.4088,-1.4088,-1.4088,-1.4088,-1.4088,-1.4088,-1.4088,-1.4088,-1.4088,-1.4088,-1.4088,-1.4075,-1.3988,-1.3728,-1.3687,-1.3707,-1.3707,-1.3814,-1.3895,-1.3868,-1.4021,-1.4068,-1.4035,-1.3941,-1.3748,-1.346,-1.3307,-1.3125,-1.2919,-1.2777,-1.2696,-1.261,-1.2562,-1.2562,-1.2562,-1.2562,-1.2562,-1.2562,-1.2562,-1.2562,-1.2562,-1.2562,-1.2636,-1.2709,-1.2636,-1.2599,-1.2562,-1.2562,-1.2562,-1.2562,-1.2562,-1.2599,-1.2556,-1.2562,-1.2487,-1.2399,-1.2335,-1.2339,-1.2245,-1.2088,-1.2144,-1.2186,-1.2038,-1.2034,-1.211,-1.2199,-1.2292,-1.238,-1.2629,-1.2775,-1.2708,-1.2846,-1.3066,-1.3385,-1.37,-1.3941,-1.421,-1.4508,-1.4754,-1.4931,-1.504,-1.5176,-1.5254,-1.5352,-1.5381,-1.542,-1.5478,-1.5536,-1.5604,-1.5749,-1.598,-1.621,-1.6609,-1.7088,-1.7451,-1.781,-1.8154,-1.8533,-1.8922,-1.8827,-0.9126,-0.9871,-1.0703,-1.1536,-1.2355,-1.3084,-1.3537,-1.3728,-1.4021,-1.4076,-1.4028,-1.4046,-1.4088,-1.4088,-1.4088,-1.4088,-1.4088,-1.4088,-1.4088,-1.4088,-1.4088,-1.4088,-1.4088,-1.4088,-1.4088,-1.4088,-1.4088,-1.4048,-1.4062,-1.4048,-1.4021,-1.4088,-1.4021,-1.4062,-1.4075,-1.4082,-1.4088,-1.4082,-1.4068,-1.3941,-1.3733,-1.362,-1.3373,-1.3112,-1.2864,-1.2677,-1.2452,-1.2362,-1.2305,-1.2342,-1.2342,-1.2342,-1.2342,-1.2378,-1.2378,-1.2342,-1.2378,-1.2415,-1.2445,-1.2409,-1.2305,-1.2305,-1.2305,-1.2342,-1.2342,-1.2305,-1.2305,-1.2342,-1.2342,-1.2342,-1.2305,-1.2285,-1.2355,-1.2347,-1.2252,-1.2305,-1.2301,-1.215,-1.2088,-1.2192,-1.2248,-1.2151,-1.2271,-1.2476,-1.248,-1.2263,-1.2313,-1.2499,-1.2852,-1.3246,-1.3489,-1.3739,-1.4061,-1.4359,-1.4567,-1.4784,-1.497,-1.5147,-1.5245,-1.5332,-1.5342,-1.5391,-1.5449,-1.5517,-1.5546,-1.5691,-1.5923,-1.6296,-1.6666,-1.7032,-1.7368,-1.77,-1.8111,-1.856,-1.8806,-0.873,-0.9331,-1.0359,-1.1296,-1.2078,-1.284,-1.3278,-1.3556,-1.3954,-1.3975,-1.3818,-1.3948,-1.4088,-1.4088,-1.4088,-1.4088,-1.4088,-1.4088,-1.4088,-1.4088,-1.4088,-1.4088,-1.4088,-1.4088,-1.4088,-1.4088,-1.4088,-1.4088,-1.4088,-1.4088,-1.4088,-1.4088,-1.4088,-1.4088,-1.4088,-1.4088,-1.4088,-1.4088,-1.4088,-1.4082,-1.3948,-1.378,-1.3573,-1.3454,-1.3099,-1.2808,-1.2737,-1.2478,-1.2318,-1.2318,-1.2305,-1.2305,-1.2305,-1.2305,-1.2305,-1.2305,-1.2305,-1.2342,-1.2342,-1.2342,-1.2305,-1.2305,-1.2305,-1.2305,-1.2305,-1.2305,-1.2305,-1.2305,-1.2305,-1.2305,-1.2305,-1.2305,-1.2342,-1.2315,-1.2291,-1.2307,-1.231,-1.2287,-1.2247,-1.2291,-1.229,-1.2186,-1.2182,-1.2396,-1.2347,-1.2109,-1.2037,-1.2215,-1.236,-1.2705,-1.295,-1.3224,-1.358,-1.3881,-1.4181,-1.4398,-1.4636,-1.4872,-1.5049,-1.5147,-1.5244,-1.5293,-1.5362,-1.542,-1.5478,-1.5575,-1.5662,-1.6009,-1.6353,-1.6637,-1.6976,-1.7368,-1.781,-1.8302,-1.8466,-0.8634,-0.9031,-0.9772,-1.0609,-1.1585,-1.2516,-1.3048,-1.3292,-1.3625,-1.3749,-1.373,-1.3962,-1.4088,-1.4088,-1.4088,-1.4088,-1.4088,-1.4088,-1.4088,-1.4088,-1.4088,-1.4088,-1.4088,-1.4088,-1.4088,-1.4088,-1.4088,-1.4088,-1.4088,-1.4088,-1.4088,-1.4088,-1.4088,-1.4088,-1.4088,-1.4088,-1.4088,-1.4088,-1.4088,-1.4088,-1.4062,-1.3995,-1.3828,-1.356,-1.3473,-1.3112,-1.2844,-1.269,-1.2478,-1.2351,-1.2318,-1.2305,-1.2305,-1.2305,-1.2305,-1.2305,-1.2305,-1.2305,-1.2305,-1.2305,-1.2305,-1.2305,-1.2305,-1.2305,-1.2305,-1.2305,-1.2305,-1.2305,-1.2305,-1.2305,-1.2305,-1.2305,-1.2305,-1.2305,-1.2305,-1.2305,-1.2305,-1.2305,-1.2305,-1.2315,-1.2315,-1.2284,-1.2274,-1.2306,-1.2165,-1.2007,-1.1926,-1.1916,-1.2074,-1.2228,-1.2514,-1.2721,-1.3064,-1.3398,-1.37,-1.4001,-1.43,-1.4547,-1.4813,-1.4931,-1.5059,-1.5215,-1.5284,-1.5332,-1.542,-1.5478,-1.5604,-1.5788,-1.6048,-1.6353,-1.6694,-1.706,-1.7534,-1.803,-1.822,-0.8432,-0.8726,-0.9278,-1.0117,-1.1145,-1.2127,-1.2667,-1.2952,-1.3347,-1.3566,-1.3701,-1.3955,-1.4088,-1.4088,-1.4088,-1.4088,-1.4088,-1.4088,-1.4088,-1.4088,-1.4088,-1.4088,-1.4088,-1.4088,-1.4088,-1.4088,-1.4088,-1.4088,-1.4088,-1.4088,-1.4088,-1.4088,-1.4088,-1.4088,-1.4088,-1.4088,-1.4088,-1.4088,-1.4088,-1.4088,-1.4088,-1.4068,-1.4021,-1.374,-1.3626,-1.3413,-1.3119,-1.2904,-1.2677,-1.2516,-1.2378,-1.2318,-1.2305,-1.2305,-1.2305,-1.2305,-1.2305,-1.2305,-1.2305,-1.2305,-1.2305,-1.2305,-1.2305,-1.2305,-1.2305,-1.2305,-1.2305,-1.2305,-1.2305,-1.2305,-1.2305,-1.2305,-1.2305,-1.2305,-1.2305,-1.2305,-1.2305,-1.2305,-1.2305,-1.2298,-1.2298,-1.2335,-1.2315,-1.2298,-1.2206,-1.204,-1.194,-1.1831,-1.1768,-1.1924,-1.214,-1.2321,-1.2552,-1.2911,-1.3238,-1.3541,-1.3851,-1.421,-1.4449,-1.4715,-1.4872,-1.502,-1.5176,-1.5254,-1.5342,-1.5391,-1.5478,-1.5623,-1.5836,-1.6105,-1.6449,-1.6818,-1.7284,-1.7767,-1.8096,-0.8187,-0.8485,-0.8985,-0.9826,-1.0806,-1.1688,-1.2143,-1.2482,-1.3141,-1.3547,-1.3685,-1.3962,-1.4082,-1.4088,-1.4088,-1.4088,-1.4088,-1.4088,-1.4088,-1.4088,-1.4088,-1.4088,-1.4088,-1.4088,-1.4088,-1.4088,-1.4088,-1.4088,-1.4088,-1.4088,-1.4088,-1.4088,-1.4088,-1.4088,-1.4088,-1.4088,-1.4088,-1.4088,-1.4088,-1.4088,-1.4088,-1.4088,-1.4048,-1.3981,-1.3828,-1.3634,-1.3414,-1.3106,-1.2931,-1.279,-1.2492,-1.2405,-1.2378,-1.2325,-1.2305,-1.2305,-1.2305,-1.2305,-1.2305,-1.2305,-1.2305,-1.2305,-1.2305,-1.2305,-1.2305,-1.2305,-1.2305,-1.2305,-1.2305,-1.2305,-1.2305,-1.2305,-1.2305,-1.2305,-1.2305,-1.2305,-1.2305,-1.2305,-1.2305,-1.2305,-1.2305,-1.2305,-1.2305,-1.2301,-1.2247,-1.2133,-1.1985,-1.1837,-1.1657,-1.1621,-1.1799,-1.1981,-1.2165,-1.2428,-1.2758,-1.3086,-1.342,-1.3791,-1.4091,-1.4321,-1.4627,-1.4843,-1.499,-1.5137,-1.5254,-1.5332,-1.5362,-1.541,-1.5652,-1.5904,-1.623,-1.6602,-1.7071,-1.7451,-1.7717,-0.8187,-0.8432,-0.8584,-0.9179,-1.0113,-1.1047,-1.1613,-1.1989,-1.2813,-1.3355,-1.354,-1.3737,-1.3955,-1.4046,-1.4088,-1.4088,-1.4088,-1.4088,-1.4088,-1.4088,-1.4088,-1.4088,-1.4088,-1.4088,-1.4088,-1.4088,-1.4088,-1.4088,-1.4088,-1.4088,-1.4088,-1.4088,-1.4088,-1.4088,-1.4088,-1.4088,-1.4088,-1.4088,-1.4088,-1.4088,-1.4088,-1.4088,-1.4088,-1.4088,-1.3968,-1.3841,-1.364,-1.3367,-1.3213,-1.3039,-1.2766,-1.265,-1.2596,-1.2492,-1.2351,-1.2331,-1.2318,-1.2305,-1.2305,-1.2305,-1.2305,-1.2325,-1.2311,-1.2311,-1.2305,-1.2305,-1.2305,-1.2305,-1.2305,-1.2305,-1.2305,-1.2305,-1.2305,-1.2305,-1.2305,-1.2305,-1.2305,-1.2305,-1.2305,-1.2305,-1.2305,-1.2305,-1.2305,-1.2305,-1.2241,-1.219,-1.2077,-1.1881,-1.1709,-1.1473,-1.1476,-1.166,-1.1845,-1.2033,-1.2274,-1.2621,-1.295,-1.3285,-1.361,-1.3902,-1.4201,-1.4538,-1.4784,-1.4961,-1.5108,-1.5254,-1.5313,-1.5362,-1.5517,-1.5759,-1.6058,-1.6288,-1.6648,-1.6994,-1.7307,-0.8088,-0.8283,-0.8382,-0.868,-0.9327,-1.031,-1.1047,-1.1687,-1.2496,-1.2964,-1.318,-1.3434,-1.3737,-1.3913,-1.3955,-1.4039,-1.4082,-1.4088,-1.4088,-1.4088,-1.4088,-1.4088,-1.4088,-1.4088,-1.4088,-1.4088,-1.4088,-1.4088,-1.4088,-1.4088,-1.4088,-1.4088,-1.4088,-1.4088,-1.4088,-1.4088,-1.4088,-1.4088,-1.4088,-1.4088,-1.4088,-1.4088,-1.4088,-1.4088,-1.4048,-1.3995,-1.3786,-1.3646,-1.352,-1.3327,-1.3113,-1.2958,-1.2871,-1.2746,-1.2612,-1.2619,-1.2619,-1.2639,-1.2659,-1.2659,-1.2699,-1.2679,-1.2458,-1.2311,-1.2305,-1.2305,-1.2305,-1.2305,-1.2331,-1.2318,-1.2331,-1.2325,-1.2325,-1.2325,-1.2305,-1.2305,-1.2305,-1.2305,-1.2305,-1.2305,-1.2305,-1.2305,-1.2305,-1.2305,-1.2271,-1.2248,-1.2161,-1.1977,-1.1832,-1.1635,-1.1436,-1.1551,-1.1671,-1.1831,-1.1998,-1.2173,-1.2499,-1.2805,-1.3133,-1.3489,-1.3812,-1.4151,-1.4449,-1.4715,-1.4863,-1.502,-1.5205,-1.5323,-1.5459,-1.5604,-1.5817,-1.6048,-1.6239,-1.6542,-1.6888,-0.7988,-0.8038,-0.8287,-0.8382,-0.8577,-0.9583,-1.0589,-1.1569,-1.2092,-1.2455,-1.2705,-1.3137,-1.344,-1.3652,-1.3695,-1.3822,-1.399,-1.4039,-1.4039,-1.4088,-1.4082,-1.4088,-1.4088,-1.4088,-1.4088,-1.4088,-1.4088,-1.4088,-1.4088,-1.4088,-1.4088,-1.4088,-1.4088,-1.4088,-1.4088,-1.4088,-1.4088,-1.4088,-1.4088,-1.4088,-1.4088,-1.4088,-1.4088,-1.4088,-1.4075,-1.4068,-1.3955,-1.38,-1.3693,-1.3527,-1.3347,-1.328,-1.322,-1.3213,-1.3206,-1.318,-1.3146,-1.3113,-1.3093,-1.3066,-1.308,-1.2979,-1.2672,-1.2445,-1.2412,-1.2498,-1.2532,-1.2518,-1.2532,-1.2432,-1.2371,-1.2365,-1.2351,-1.2338,-1.2311,-1.2305,-1.2305,-1.2305,-1.2305,-1.2305,-1.2305,-1.2305,-1.2305,-1.2305,-1.2305,-1.2278,-1.2218,-1.2167,-1.2018,-1.1953,-1.1771,-1.1635,-1.1706,-1.1687,-1.1804,-1.1914,-1.2072,-1.2383,-1.2783,-1.3133,-1.3459,-1.3778,-1.4061,-1.433,-1.4567,-1.4804,-1.5059,-1.5235,-1.5362,-1.5507,-1.5643,-1.5807,-1.6009,-1.6192,-1.6495,-0.7988,-0.7988,-0.8088,-0.8237,-0.8499,-0.9016,-0.9972,-1.1038,-1.1363,-1.1678,-1.2229,-1.2699,-1.3009,-1.3264,-1.3398,-1.3525,-1.3652,-1.3737,-1.3779,-1.387,-1.3955,-1.4046,-1.4088,-1.4046,-1.4088,-1.4088,-1.4088,-1.4046,-1.4088,-1.4088,-1.4088,-1.4088,-1.4046,-1.4046,-1.4046,-1.4088,-1.4088,-1.4088,-1.4046,-1.4088,-1.4088,-1.4088,-1.4088,-1.4088,-1.4088,-1.4088,-1.4035,-1.3995,-1.3928,-1.3888,-1.362,-1.3487,-1.348,-1.334,-1.3206,-1.3206,-1.32,-1.32,-1.3206,-1.3213,-1.3247,-1.328,-1.3046,-1.2967,-1.2953,-1.2913,-1.2899,-1.2826,-1.2806,-1.2752,-1.2697,-1.2612,-1.2518,-1.2418,-1.2385,-1.2358,-1.2351,-1.2305,-1.2305,-1.2305,-1.2305,-1.2305,-1.2305,-1.2305,-1.2305,-1.2305,-1.2285,-1.2231,-1.2158,-1.2089,-1.2024,-1.1884,-1.1765,-1.1742,-1.1659,-1.1758,-1.1811,-1.1978,-1.243,-1.2819,-1.3151,-1.3442,-1.3714,-1.401,-1.4315,-1.4664,-1.5009,-1.5117,-1.5186,-1.5313,-1.5439,-1.5604,-1.5778,-1.5961,-1.6116,-0.7988,-0.7988,-0.7988,-0.8137,-0.8379,-0.853,-0.9177,-1.0127,-1.0568,-1.1025,-1.1494,-1.2057,-1.2448,-1.2668,-1.2966,-1.3185,-1.3313,-1.3476,-1.3561,-1.361,-1.3743,-1.3779,-1.3828,-1.3828,-1.3786,-1.3828,-1.3828,-1.3743,-1.3835,-1.3828,-1.3828,-1.3786,-1.3828,-1.3828,-1.3786,-1.3786,-1.3779,-1.387,-1.3962,-1.4046,-1.4088,-1.4088,-1.4088,-1.4088,-1.4088,-1.4088,-1.4088,-1.4088,-1.4088,-1.4088,-1.3826,-1.3786,-1.3773,-1.3647,-1.3574,-1.3601,-1.3601,-1.3614,-1.3621,-1.3601,-1.3574,-1.3547,-1.3534,-1.3561,-1.3427,-1.3327,-1.322,-1.312,-1.3146,-1.3133,-1.3058,-1.2938,-1.2744,-1.2525,-1.2478,-1.2432,-1.2378,-1.2318,-1.2305,-1.2305,-1.2305,-1.2305,-1.2305,-1.2305,-1.2305,-1.2305,-1.2305,-1.2285,-1.2245,-1.2178,-1.2167,-1.2116,-1.191,-1.1805,-1.1737,-1.1691,-1.1821,-1.1996,-1.2333,-1.2706,-1.2925,-1.3265,-1.3662,-1.3929,-1.4138,-1.445,-1.474,-1.4891,-1.4981,-1.5108,-1.5235,-1.54,-1.5556,-1.574,-1.5856,-0.7988,-0.7988,-0.7988,-0.8137,-0.829,-0.8101,-0.834,-0.9001,-0.9771,-1.0332,-1.0679,-1.1332,-1.1714,-1.1972,-1.2363,-1.2668,-1.2839,-1.3052,-1.3179,-1.3313,-1.3398,-1.344,-1.344,-1.3398,-1.3483,-1.344,-1.3398,-1.344,-1.3355,-1.3355,-1.3355,-1.3355,-1.3349,-1.3349,-1.3349,-1.3349,-1.3349,-1.3398,-1.361,-1.3786,-1.3955,-1.3997,-1.4046,-1.3997,-1.3997,-1.3997,-1.3997,-1.4004,-1.4046,-1.4046,-1.4039,-1.3971,-1.3951,-1.3889,-1.3931,-1.3966,-1.3864,-1.3906,-1.3935,-1.3935,-1.3975,-1.4001,-1.4075,-1.3988,-1.3801,-1.3647,-1.3527,-1.3487,-1.35,-1.342,-1.3307,-1.3227,-1.308,-1.2839,-1.273,-1.2643,-1.2536,-1.2405,-1.2305,-1.2305,-1.2305,-1.2305,-1.2305,-1.2305,-1.2305,-1.2305,-1.2305,-1.2305,-1.2291,-1.2265,-1.2251,-1.2245,-1.2107,-1.195,-1.1865,-1.1882,-1.1976,-1.2171,-1.2352,-1.2595,-1.2808,-1.3223,-1.3663,-1.3879,-1.4077,-1.4214,-1.4436,-1.4621,-1.4812,-1.4931,-1.5079,-1.5225,-1.5381,-1.5537,-1.5624,-0.7988,-0.7988,-0.7988,-0.8041,-0.8047,-0.7958,-0.8016,-0.8217,-0.8747,-0.9428,-1.012,-1.0636,-1.1025,-1.1241,-1.1714,-1.202,-1.21,-1.2448,-1.2619,-1.2753,-1.2924,-1.3015,-1.3185,-1.3185,-1.3228,-1.3185,-1.3137,-1.2966,-1.2833,-1.2833,-1.2833,-1.2833,-1.2833,-1.279,-1.279,-1.2784,-1.279,-1.279,-1.2918,-1.3179,-1.3392,-1.3525,-1.3568,-1.3568,-1.3568,-1.3568,-1.3568,-1.3568,-1.3568,-1.3568,-1.3568,-1.3561,-1.3561,-1.3568,-1.3652,-1.3737,-1.3822,-1.3913,-1.3997,-1.4046,-1.4088,-1.4088,-1.4088,-1.4088,-1.4028,-1.3935,-1.3868,-1.3848,-1.3801,-1.3694,-1.3607,-1.354,-1.3427,-1.3166,-1.2958,-1.2831,-1.269,-1.2509,-1.2331,-1.2305,-1.2305,-1.2305,-1.2305,-1.2305,-1.2305,-1.2305,-1.2305,-1.2305,-1.2305,-1.2291,-1.2285,-1.2278,-1.2285,-1.2154,-1.2078,-1.2035,-1.2095,-1.213,-1.2267,-1.2463,-1.2739,-1.307,-1.348,-1.3786,-1.4,-1.409,-1.4224,-1.4454,-1.4618,-1.4777,-1.4957,-1.5114,-1.5186,-1.5303,-1.5391,-0.7988,-0.7988,-0.7988,-0.7988,-0.7997,-0.7883,-0.7891,-0.7927,-0.8106,-0.8573,-0.9257,-0.9816,-1.025,-1.0511,-1.0944,-1.1198,-1.1327,-1.1714,-1.1972,-1.2192,-1.232,-1.246,-1.2631,-1.2753,-1.2583,-1.2491,-1.232,-1.2186,-1.21,-1.21,-1.2057,-1.2057,-1.21,-1.21,-1.2052,-1.2057,-1.2057,-1.2052,-1.2052,-1.2229,-1.2577,-1.279,-1.3052,-1.3094,-1.3094,-1.3052,-1.3094,-1.3088,-1.3094,-1.3094,-1.3094,-1.3094,-1.3137,-1.3228,-1.3313,-1.3398,-1.3525,-1.3652,-1.3822,-1.3955,-1.4004,-1.4039,-1.4088,-1.4088,-1.4088,-1.3995,-1.4001,-1.3981,-1.3981,-1.3895,-1.3874,-1.3828,-1.3633,-1.3447,-1.3287,-1.3153,-1.2851,-1.2516,-1.2365,-1.2305,-1.2305,-1.2305,-1.2305,-1.2305,-1.2305,-1.2305,-1.2305,-1.2305,-1.2305,-1.2305,-1.2305,-1.2305,-1.2305,-1.2291,-1.2201,-1.2193,-1.2211,-1.2218,-1.2207,-1.2614,-1.2981,-1.3056,-1.3263,-1.3618,-1.385,-1.3908,-1.4045,-1.4306,-1.4444,-1.4606,-1.4818,-1.5016,-1.5064,-1.5117,-1.5245,-0.7988,-0.7988,-0.7988,-0.7988,-0.7965,-0.7875,-0.7832,-0.7842,-0.7802,-0.7874,-0.8247,-0.9051,-0.9388,-0.9733,-1.012,-1.0332,-1.0593,-1.0895,-1.1241,-1.1413,-1.1548,-1.1725,-1.186,-1.1903,-1.1806,-1.1591,-1.1327,-1.1241,-1.1149,-1.1149,-1.1149,-1.1106,-1.1106,-1.1149,-1.1154,-1.1154,-1.1154,-1.1149,-1.1149,-1.1154,-1.1494,-1.2009,-1.2314,-1.2491,-1.2534,-1.2534,-1.2485,-1.2528,-1.2534,-1.2491,-1.2443,-1.2448,-1.2491,-1.2625,-1.279,-1.2918,-1.3137,-1.3349,-1.3568,-1.3695,-1.3822,-1.3948,-1.4039,-1.4088,-1.4088,-1.4088,-1.4088,-1.4088,-1.4088,-1.4082,-1.4068,-1.4028,-1.3868,-1.3693,-1.3553,-1.334,-1.2933,-1.2569,-1.2476,-1.2351,-1.2311,-1.2311,-1.2305,-1.2305,-1.2305,-1.2305,-1.2305,-1.2305,-1.2305,-1.2305,-1.2305,-1.2305,-1.2305,-1.2291,-1.2271,-1.2275,-1.2294,-1.2317,-1.2353,-1.2831,-1.3135,-1.3056,-1.3194,-1.3549,-1.3741,-1.3702,-1.3899,-1.4187,-1.432,-1.4435,-1.4738,-1.4982,-1.5035,-1.5092,-1.5146,-0.7988,-0.7988,-0.7988,-0.7988,-0.7965,-0.7879,-0.779,-0.7822,-0.7717,-0.7748,-0.7892,-0.8086,-0.8468,-0.9047,-0.9388,-0.9616,-0.9823,-1.011,-1.0342,-1.0549,-1.0766,-1.0944,-1.1117,-1.1203,-1.1117,-1.0857,-1.0511,-1.0299,-1.0381,-1.0337,-1.025,-1.0294,-1.025,-1.025,-1.025,-1.025,-1.025,-1.0294,-1.0294,-1.0294,-1.0511,-1.0982,-1.1451,-1.1585,-1.1585,-1.1537,-1.1537,-1.158,-1.158,-1.1537,-1.1585,-1.1585,-1.1714,-1.1849,-1.2057,-1.2314,-1.2577,-1.2924,-1.3137,-1.3392,-1.361,-1.3822,-1.3913,-1.4039,-1.4082,-1.4088,-1.4088,-1.4088,-1.4088,-1.4088,-1.4075,-1.4075,-1.3968,-1.3888,-1.3781,-1.338,-1.2959,-1.277,-1.2623,-1.2445,-1.2325,-1.2318,-1.2305,-1.2305,-1.2305,-1.2305,-1.2305,-1.2305,-1.2305,-1.2305,-1.2305,-1.2305,-1.2305,-1.2305,-1.2298,-1.2291,-1.2301,-1.2372,-1.2415,-1.2673,-1.282,-1.2886,-1.3078,-1.3372,-1.3459,-1.3465,-1.371,-1.403,-1.4189,-1.432,-1.4694,-1.4918,-1.4969,-1.5004,-1.5014]},{"header":{"parameterUnit":"m.s-1","parameterCategory":1,"la1":31.0,"la2":29.5877,"lo1":-88.7671,"lo2":-86.6584,"dy":0.0162,"dx":0.0185,"nx":115,"ny":88,"refTime":"2023-04-04T12:00:00:Z","depth":0,"parameterNumber":3,"parameterNumberName":"V-component_of_WINDS"},"data":[0.0,0.0,0.0,0.0,0.0,0.0,0.0,0.0,0.0,0.0,0.0,0.0,0.0,0.0,0.0,0.0,0.0,0.0,0.0,0.0,0.0,0.0,0.0,0.0,0.0,0.0,0.0,0.0,0.0,0.0,0.0,0.0,0.0,0.0,0.0,0.0,0.0,0.0,0.0,0.0,0.0,0.0,0.0,0.0,0.0,0.0,0.0,0.0,0.0,0.0,0.0,0.0,0.0,0.0,0.0,0.0,0.0,0.0,0.0,0.0,0.0,0.0,0.0,0.0,0.0,0.0,0.0,0.0,0.0,0.0,0.0,0.0,0.0,0.0,0.0,0.0,0.0,0.0,0.0,0.0,0.0,0.0,0.0,0.0,0.0,0.0,0.0,0.0,0.0,0.0,0.0,0.0,0.0,0.0,0.0,0.0,0.0,0.0,0.0,0.0,0.0,0.0,0.0,0.0,0.0,0.0,0.0,0.0,0.0,0.0,0.0,0.0,0.0,0.0,0.0,0.0,0.0,0.0,0.0,0.0,0.0,0.0,0.0,0.0,0.0,0.0,0.0,0.0,0.0,0.0,0.0,0.0,0.0,0.0,0.0,0.0,0.0,0.0,0.0,0.0,0.0,0.0,0.0,0.0,0.0,0.0,0.0,0.0,0.0,0.0,0.0,0.0,0.0,0.0,0.0,0.0,0.0,0.0,0.0,0.0,0.0,0.0,0.0,0.0,0.0,0.0,0.0,0.0,0.0,0.0,0.0,0.0,0.0,0.0,0.0,0.0,0.0,0.0,0.0,0.0,0.0,0.0,0.0,0.0,0.0,0.0,0.0,0.0,0.0,0.0,0.0,0.0,0.0,0.0,0.0,0.0,0.0,0.0,0.0,0.0,0.0,0.0,0.0,0.0,0.0,0.0,0.0,0.0,0.0,0.0,0.0,0.0,0.0,0.0,0.0,0.0,0.0,0.0,0.0,0.0,0.0,0.0,0.0,0.0,0.0,0.0,0.0,0.0,0.0,0.0,0.0,0.0,0.0,0.0,0.0,0.0,0.0,0.0,0.0,0.0,0.0,0.0,0.0,0.0,0.0,0.0,0.0,0.0,0.0,0.0,0.0,0.0,0.0,0.0,0.0,0.0,0.0,0.0,0.0,0.0,0.0,0.0,0.0,0.0,0.0,0.0,0.0,0.0,0.0,0.0,0.0,0.0,0.0,0.0,0.0,0.0,0.0,0.0,0.0,0.0,0.0,0.0,0.0,0.0,0.0,0.0,0.0,0.0,0.0,0.0,0.0,0.0,0.0,0.0,0.0,0.0,0.0,0.0,0.0,0.0,0.0,0.0,0.0,0.0,0.0,0.0,0.0,0.0,0.0,0.0,0.0,0.0,0.0,0.0,0.0,0.0,0.0,0.0,0.0,0.0,0.0,0.0,0.0,0.0,0.0,0.0,0.0,0.0,0.0,0.0,0.0,0.0,0.0,0.0,0.0,0.0,0.0,0.0,0.0,0.0,0.0,0.0,0.0,0.0,0.0,0.0,0.0,0.0,0.0,0.0,0.0,0.0,0.0,0.0,0.0,0.0,0.0,0.0,0.0,0.0,0.0,0.0,0.0,0.0,0.0,0.0,0.0,0.0,0.0,0.0,0.0,0.0,0.0,0.0,0.0,0.0,0.0,0.0,0.0,0.0,0.0,0.0,0.0,0.0,0.0,0.0,0.0,0.0,0.0,0.0,0.0,0.0,0.0,0.0,0.0,0.0,0.0,0.0,0.0,0.0,0.0,0.0,0.0,0.0,0.0,0.0,0.0,0.0,0.0,0.0,0.0,0.0,0.0,0.0,0.0,0.0,0.0,0.0,0.0,0.0,0.0,0.0,0.0,0.0,0.0,0.0,0.0,0.0,0.0,0.0,0.0,0.0,0.0,0.0,0.0,0.0,0.0,0.0,0.0,0.0,0.0,0.0,0.0,0.0,0.0,0.0,0.0,0.0,0.0,0.0,0.0,0.0,0.0,0.0,0.0,0.0,0.0,0.0,0.0,0.0,0.0,0.0,0.0,0.0,0.0,0.0,0.0,0.0,0.0,0.0,0.0,0.0,0.0,0.0,0.0,0.0,0.0,0.0,0.0,0.0,0.0,0.0,0.0,0.0,0.0,0.0,0.0,0.0,0.0,0.0,0.0,0.0,0.0,0.0,0.0,0.0,0.0,0.0,0.0,0.0,0.0,0.0,0.0,0.0,0.0,0.0,0.0,0.0,0.0,0.0,0.0,0.0,0.0,0.0,0.0,0.0,0.0,0.0,0.0,0.0,0.0,0.0,0.0,0.0,0.0,0.0,0.0,0.0,0.0,0.0,0.0,0.0,0.0,0.0,0.0,0.0,0.0,0.0,0.0,0.0,0.0,0.0,0.0,0.0,0.0,0.0,0.0,0.0,0.0,0.0,0.0,0.0,0.0,0.0,0.0,0.0,0.0,0.0,0.0,0.0,0.0,0.0,0.0,0.0,0.0,0.0,0.0,0.0,0.0,0.0,0.0,0.0,0.0,0.0,0.0,0.0,0.0,0.0,0.0,0.0,0.0,0.0,0.0,0.0,0.0,0.0,0.0,0.0,0.0,0.0,0.0,0.0,0.0,0.0,0.0,0.0,0.0,0.0,0.0,0.0,0.0,0.0,0.0,0.0,0.0,0.0,0.0,0.0,0.0,0.0,0.0,0.0,0.0,0.0,0.0,0.0,0.0,0.0,0.0,0.0,0.0,0.0,0.0,0.0,0.0,0.0,0.0,0.0,0.0,0.0,0.0,0.0,0.0,0.0,0.0,0.0,0.0,0.0,0.0,0.0,0.0,0.0,0.0,0.0,0.0,0.0,0.0,0.0,0.0,0.0,0.0,0.0,0.0,0.0,0.0,0.0,0.0,0.0,0.0,0.0,0.0,0.0,0.0,0.0,0.0,0.0,0.0,0.0,0.0,0.0,0.0,0.0,0.0,0.0,0.0,0.0,0.0,0.0,0.0,0.0,0.0,0.0,0.0,0.0,0.0,0.0,0.0,0.0,0.0,0.0,0.0,0.0,0.0,0.0,0.0,0.0,0.0,0.0,0.0,0.0,0.0,0.0,0.0,0.0,0.0,0.0,0.0,0.0,0.0,0.0,0.0,0.0,0.0,0.0,0.0,0.0,0.0,0.0,0.0,0.0,0.0,0.0,0.0,0.0,0.0,0.0,0.0,0.0,0.0,0.0,0.0,0.0,0.0,0.0,0.0,0.0,0.0,0.0,0.0,0.0,0.0,0.0,0.0,0.0,0.0,0.0,0.0,0.0,0.0,0.0,0.0,0.0,0.0,0.0,0.0,0.0,0.0,0.0,0.0,0.0,0.0,0.0,0.0,0.0,0.0,0.0,0.0,0.0,0.0,0.0,0.0,0.0,0.0,0.0,0.0,0.0,0.0,0.0,0.0,0.0,0.0,0.0,0.0,0.0,0.0,0.0,0.0,0.0,0.0,0.0,0.0,0.0,0.0,0.0,0.0,0.0,0.0,0.0,0.0,0.0,0.0,0.0,0.0,0.0,0.0,0.0,0.0,0.0,0.0,0.0,0.0,0.0,0.0,0.0,0.0,0.0,0.0,0.0,0.0,0.0,0.0,0.0,0.0,0.0,0.0,0.0,0.0,0.0,0.0,0.0,0.0,0.0,0.0,0.0,0.0,0.0,0.0,0.0,0.0,0.0,0.0,0.0,0.0,0.0,0.0,0.0,0.0,0.0,0.0,0.0,0.0,0.0,0.0,0.0,0.0,0.0,0.0,0.0,0.0,0.0,0.0,0.0,0.0,0.0,0.0,0.0,0.0,0.0,0.0,0.0,0.0,0.0,0.0,0.0,0.0,0.0,0.0,0.0,0.0,0.0,0.0,0.0,0.0,0.0,0.0,0.0,0.0,0.0,0.0,0.0,0.0,0.0,0.0,0.0,0.0,0.0,0.0,0.0,0.0,0.0,0.0,0.0,0.0,0.0,0.0,0.0,0.0,0.0,0.0,0.0,0.0,0.0,0.0,0.0,0.0,0.0,0.0,0.0,0.0,0.0,0.0,0.0,0.0,0.0,0.0,0.0,0.0,0.0,0.0,0.0,0.0,0.0,0.0,0.0,0.0,0.0,0.0,0.0,0.0,0.0,0.0,0.0,0.0,0.0,0.0,0.0,0.0,0.0,0.0,0.0,0.0,0.0,0.0,0.0,0.0,0.0,0.0,0.0,0.0,0.0,0.0,0.0,0.0,0.0,0.0,0.0,0.3016,0.0,0.0,0.0,0.0,0.0,0.0,0.0,0.0,0.0,0.0,0.0,0.0,0.0,0.0,0.0,0.0,0.0,0.0,0.0,0.0,0.0,0.0,0.0,0.0,0.0,0.0,0.0,0.0,0.0,0.0,0.0,0.0,0.0,0.0,0.0,0.0,0.0,0.0,0.0,0.0,0.0,0.0,0.0,0.0,0.0,0.0,0.0,0.0,0.0,0.0,0.0,0.0,0.0,0.0,0.0,0.0,0.0,0.0,0.0,0.0,0.0,0.0,0.0,0.0,0.0,0.0,0.0,0.0,0.0,0.0,0.0,0.0,0.0,0.0,0.0,0.0,0.0,0.0,0.0,0.0,0.0,0.0,0.0,0.0,0.0,0.0,0.0,0.0,0.0,0.0,0.0,0.0,0.0,0.0,0.0,0.0,0.0,0.0,0.0,0.0,0.0,0.0,0.0,0.0,0.0,0.0,0.0,0.0,0.0,0.0,0.5723,0.5014,0.4132,0.3327,0.2516,0.0,0.0,0.0,0.0,0.0,0.0,0.0,0.0,0.0,0.0,0.0,0.0,0.0,0.0,0.0,0.0,0.0,0.0,0.0,0.0,0.0,0.0,0.0,0.0,0.0,0.0,0.0,0.0,0.0,0.0,0.0,0.0,0.0,0.0,0.0,0.0,0.0,0.0,0.0,0.0,0.0,0.0,0.0,0.0,0.0,0.0,0.0,0.0,0.0,0.0,0.0,0.0,0.0,0.0,0.0,0.0,0.0,0.0,0.0,0.0,0.0,0.0,0.0,0.0,0.0,0.0,0.0,0.0,0.0,0.0,0.0,0.0,0.0,0.0,0.0,0.0,0.0,0.0,0.0,0.0,0.0,0.0,0.0,0.0,0.0,0.0,0.0,0.0,0.0,0.0,0.0,0.0,0.0,0.0,0.0,0.0,0.0,0.0,0.0,0.0,0.0,0.0,0.0,0.0,0.0,0.0,0.0,0.0,0.0,0.0,0.0,0.0,0.366,0.2854,0.1931,0.0,0.0,0.0,0.0,0.0,0.0,0.0,0.0,0.0,0.0,0.0,0.0,0.0,0.0,0.0,0.0,0.0,0.0,0.0,0.0,0.0,0.0,0.0,0.0,0.0,0.0,0.0,0.0,0.0,0.0,0.0,0.0,0.0,0.0,0.0,0.0,0.0,0.0,0.0,0.0,0.0,0.0,0.0,0.0,0.0,0.0,0.0,0.0,0.0,0.0,0.0,0.0,0.0,0.0,0.0,0.0,0.0,0.0,0.0,0.0,0.0,0.0,0.0,0.0,0.0,0.0,0.0,0.0,0.0,0.0,0.0,0.0,0.0,0.0,0.0,0.0,0.0,0.0,0.0,0.0,0.0,0.0,0.0,0.0,0.0,0.0,0.0,0.0,0.0,0.0,0.0,0.0,0.0,0.0,0.0,0.0,0.0,0.0,0.0,0.0,0.0,0.0,0.0,0.0,0.0,0.0,0.0,0.0,0.0,0.0,0.468,0.4049,0.3325,0.0,0.1093,0.0,0.0,0.0,0.0,0.0,0.0,0.0,0.0,0.0,0.0,0.0,0.0,0.0,0.0,0.0,0.0,0.0,0.0,0.0,0.0,0.0,0.0,0.0,0.0,0.0,0.0,0.0,0.0,0.0,0.0,0.0,0.0,0.0,0.0,0.0,0.0,0.0,0.0,0.0,0.0,0.0,0.0,0.0,0.0,0.0,0.0,0.0,0.0,0.0,0.0,0.0,0.0,0.0,0.0,0.0,0.0,0.0,0.0,0.0,0.0,0.0,0.0,0.0,0.0,0.0,0.0,0.0,0.0,0.0,0.0,0.0,0.0,0.0,0.0,0.0,0.0,0.0,0.0,0.0,0.0,0.0,0.0,0.0,0.0,0.0,0.0,0.0,0.0,0.0,0.0,0.0,0.0,0.0,0.0,0.0,0.0,0.0,0.0,0.0,0.0,0.0,0.0,0.0,0.0,0.0,0.0,0.0,0.0,0.0,0.0,0.438,0.3774,0.2768,0.1818,0.0,0.0,0.0,0.0,0.0,0.0,0.0,0.0,0.0,0.0,0.0,0.0,0.0,0.0,0.0,0.0,0.0,0.0,0.0,0.0,0.0,0.0,0.0,0.0,0.0,0.0,0.0,0.0,0.0,0.0,0.0,0.0,0.0,0.0,0.0,0.0,0.0,0.0,0.0,0.0,0.0,0.0,0.0,0.0,0.0,0.0,0.0,0.0,0.0,0.0,0.0,0.0,0.0,0.0,0.0,0.0,0.0,0.0,0.0,0.0,0.0,0.0,0.0,0.0,0.0,0.0,0.0,0.0,0.0,0.0,0.0,0.0,0.0,0.0,0.0,0.0,0.0,0.0,0.0,0.0,0.0,0.0,0.0,0.0,0.0,0.0,0.0,0.0,0.0,0.0,0.0,0.0,0.0,0.0,0.0,0.0,0.0,0.0,0.0,0.0,0.0,0.0,0.0,0.0,0.0,0.0,0.0,0.0,0.0,0.0,0.4791,0.4132,0.336,0.235,0.1512,0.0982,0.0,0.0,0.0,0.0,0.0,0.0,0.0,0.0,0.0,0.0,0.0,0.0,0.0,0.0,0.0,0.0,0.0,0.0,0.0,0.0,0.0,0.0,0.0,0.0,0.0,0.0,0.0,0.0,0.0,0.0,0.0,0.0,0.0,0.0,0.0,0.0,0.0,0.0,0.0,0.0,0.0,0.0,0.0,0.0,0.0,0.0,0.0,0.0,0.0,0.0,0.0,0.0,0.0,0.0,0.0,0.0,0.0,0.0,0.0,0.0,0.0,0.0,0.0,0.0,0.0,0.0,0.0,0.0,0.0,0.0,0.0,0.0,0.0,0.0,0.0,0.0,0.0,0.0,0.0,0.0,0.0,0.0,0.0,0.0,0.0,0.0,0.0,0.0,0.0,0.0,0.0,0.0,0.0,0.0,0.0,0.0,0.0,0.0,0.0,0.0,0.0,0.0,0.0,0.0,0.0,0.0,0.0,0.0,0.5304,0.4763,0.3938,0.2775,0.2156,0.1568,0.0,0.0,0.0,0.0,0.0,0.0,0.0,0.0,0.0,0.0,0.0,0.0,0.0,0.0,0.0,0.0,0.0,0.0,0.0,0.0,0.0,0.0,0.0,0.0,0.0,0.0,0.0,0.0,0.0,0.0,0.0,0.0,0.0,0.0,0.0,0.0,0.0,0.0,0.0,0.0,0.0,0.0,0.0,0.0,0.0,0.0,0.0,0.0,0.0,0.0,0.0,0.0,0.0,0.0,0.0,0.0,0.0,0.0,0.0,0.0,0.0,0.0,0.0,0.0,0.0,0.0,0.0,0.0,0.0,0.0,0.0,0.0,0.0,0.0,0.0,0.0,0.0,0.0,0.0,0.0,0.0,0.0,0.0,0.0,0.0,0.0,0.0,0.0,0.0,0.0,0.0,0.0,0.0,0.0,0.0,0.0,0.0,0.0,0.0,0.0,0.0,0.0,0.0,0.0,0.0,0.0,0.0,0.0,0.0,0.5304,0.4405,0.3524,0.2747,0.2127,0.1568,0.0,0.0,0.0,0.0,0.0,0.0,0.0,0.0,0.0,0.0,0.0,0.0,0.0,0.0,0.0,0.0,0.0,0.0,0.0,0.0,0.0,0.0,0.0,0.0,0.0,0.0,0.0,0.0,0.0,0.0,0.0,0.0,0.0,0.0,0.0,0.0,0.0,0.0,0.0,0.0,0.0,0.0,0.0,0.0,0.0,0.0,0.0,0.0,0.0,0.0,0.0,0.0,0.0,0.0,0.0,0.0,0.0,0.0,0.0,0.0,0.0,0.0,0.0,0.0,0.0,0.0,0.0,0.0,0.0,0.0,0.0,0.0,0.0,0.0,0.0,0.0,0.0,0.0,0.0,0.0,0.0,0.0,0.0,0.0,0.0,0.0,0.0,0.0,0.0,0.0,0.0,0.0,0.0,0.0,0.0,0.0,0.0,0.0,0.0,0.0,0.0,0.0,0.0,0.0,0.0,0.0,0.0,0.0,0.0,0.5038,0.0,0.3424,0.2775,0.2262,0.1755,0.0,0.0,0.0,0.0,0.0,0.0,0.0,0.0,0.0,0.0,0.0,0.0,0.0,0.0,0.0,0.0,0.0,0.0,0.0,0.0,0.0,0.0,0.0,0.0,0.0,0.0,0.0,0.0,0.0,0.0,0.0,0.0,0.0,0.0,0.0,0.0,0.0,0.0,0.0,0.0,0.0,0.0,0.0,0.0,0.0,0.0,0.0,0.0,0.0,0.0,0.0,0.0,0.0,0.0,0.0,0.0,0.0,0.0,0.0,0.0,0.0,0.0,0.0,0.0,0.0,0.0,0.0,0.0,0.0,0.0,0.0,0.0,0.0,0.0,0.0,0.0,0.0,0.0,0.0,0.0,0.0,0.0,0.0,0.0,0.0,0.0,0.0,0.0,0.0,0.0,0.0,0.0,0.0,0.0,0.0,0.0,0.0,0.0,0.0,0.0,0.0,0.0,0.0,0.0,0.0,0.0,0.0,0.0,0.5645,0.4556,0.4187,0.3647,0.2942,0.2573,0.2143,0.0,0.0,0.0,0.0,0.0,0.0,0.0,0.0,0.0,0.0,0.0,0.0,0.0,0.0,0.0,0.0,0.0,0.0,0.0,0.0,0.0,0.0,0.0,0.0,0.0,0.0,0.0,0.0,0.0,0.0,0.0,0.0,0.0,0.0,0.0,0.0,0.0,0.0,0.0,0.0,0.0,0.0,0.0,0.0,0.0,0.0,0.0,0.0,0.0,0.0,0.0,0.0,0.0,0.0,0.0,0.0,0.0,0.0,0.0,0.0,0.0,0.0,0.0,0.0,0.0,0.0,0.0,0.0,0.0,0.0,0.0,0.0,0.0,0.0,0.0,0.0,0.0,0.0,0.0,0.0,0.0,0.0,0.0,0.0,0.0,0.0,0.0,0.0,0.0,0.0,0.0,0.0,0.0,0.0,0.0,0.0,0.0,0.0,0.0,0.0,0.0,0.0,0.0,0.0,0.0,0.0,0.0,0.0,0.0,0.4787,0.4349,0.3865,0.3322,0.2722,0.2165,0.0,0.0,0.0,0.0,0.0,0.0,0.0,0.0,0.0,0.0,0.0,0.0,0.0,0.0,0.0,0.0,0.0,0.0,0.0,0.0,0.0,0.0,0.0,0.0,0.0,0.0,0.0,0.0,0.0,0.0,0.0,0.0,0.0,0.0,0.0,0.0,0.0,0.0,0.0,0.0,0.0,0.0,0.0,0.0,0.0,0.0,0.0,0.0,0.0,0.0,0.0,0.0,0.0,0.0,0.0,0.0,0.0,0.0,0.0,0.0,0.0,0.0,0.0,0.0,0.0,0.0,0.0,0.0,0.0,0.0,0.0,0.0,0.0,0.0,0.0,0.0,0.0,0.0,0.0,0.0,0.0,0.0,0.0,0.0,0.0,0.0,0.0,0.0,0.0,0.0,0.0,0.0,0.0,0.0,0.0,0.0,0.0,0.0,0.0,0.0,0.0,0.0,0.0,0.0,0.0,0.0,0.0,0.0,0.0,0.5236,0.4718,0.4207,0.376,0.3078,0.2484,0.1977,0.0,0.0,0.0,0.0,0.0,0.0,0.0,0.0,0.0,0.0,0.0,0.0,0.0,0.0,0.0,0.0,0.0,0.0,0.0,0.0,0.0,0.0,0.0,0.0,0.0,0.0,0.0,0.0,0.0,0.0,0.0,0.0,0.0,0.0,0.0,0.0,0.0,0.0,0.0,0.0,0.0,0.0,0.0,0.0,0.0,0.0,0.0,0.0,0.0,0.0,0.0,0.0,0.0,0.0,0.0,0.0,0.0,0.0,0.0,0.0,0.0,0.0,0.0,0.0,0.0,0.0,0.0,0.0,0.0,0.0,0.0,0.0,0.0,0.0,0.0,0.0,0.0,0.0,0.0,0.0,0.0,0.0,0.0,0.0,0.0,0.0,0.0,0.0,0.0,0.0,0.0,0.0,0.0,0.0,0.0,0.0,0.0,0.0,0.0,0.0,0.0,0.0,0.0,0.0,0.0,0.0,0.0,0.0,0.583,0.5222,0.4668,0.4256,0.3617,0.3046,0.0,0.0,0.0,0.0,0.0,0.0,0.0,0.0,0.0,0.0,0.0,0.0,0.0,0.0,0.0,0.0,0.0,0.0,0.0,0.0,0.0,0.0,0.0,0.0,0.0,0.0,0.0,0.0,0.0,0.0,0.0,0.0,0.0,0.0,0.0,0.0,0.0,0.0,0.0,0.0,0.0,0.0,0.0,0.0,0.0,0.0,0.0,0.0,0.0,0.0,0.0,0.0,0.0,0.0,0.0,0.0,0.0,0.0,0.0,0.0,0.0,0.0,0.0,0.0,0.0,0.0,0.0,0.0,0.0,0.0,0.0,0.0,0.0,0.0,0.0,0.0,0.0,0.0,0.0,0.0,0.0,0.0,0.0,0.0,0.0,0.0,0.0,0.0,0.0,0.0,0.0,0.0,0.0,0.0,0.0,0.0,0.0,0.0,0.0,0.0,0.0,0.0,0.0,0.0,0.0,0.0,0.0,0.0,0.0,0.6233,0.588,0.5392,0.4801,0.3961,0.3236,0.0,0.0,0.0,0.0,0.0,0.0,0.0,0.0,0.0,0.0,0.0,0.0,0.0,0.0,0.0,0.0,0.0,0.0,0.0,0.0,0.0,0.0,0.0,0.0,0.0,0.0,0.0,0.0,0.0,0.0,0.0,0.0,0.0,0.0,0.0,0.0,0.0,0.0,0.0,0.0,0.0,0.0,0.0,0.0,0.0,0.0,0.0,0.0,0.0,0.0,0.0,0.0,0.0,0.0,0.0,0.0,0.0,0.0,0.0,0.0,0.0,0.0,0.0,0.0,0.0,0.0,0.0,0.0,0.0,0.0,0.0,0.0,0.0,0.0,0.0,0.0,0.0,0.0,0.0,0.0,0.0,0.0,0.0,0.0,0.0,0.0,0.0,0.0,0.0,0.0,0.0,0.0,0.0,0.0,0.0,0.0,0.0,0.0,0.0,0.0,0.0,0.0,0.0,0.0,0.0,0.0,0.0,0.0,0.7107,0.6615,0.6383,0.5979,0.5402,0.44,0.3606,0.0,0.0,0.0,0.0,0.0,0.0,0.0,0.0,0.0,0.0,0.0,0.0,0.0,0.0,0.0,0.0,0.0,0.0,0.0,0.0,0.0,0.0,0.0,0.0,0.0,0.0,0.0,0.0,0.0,0.0,0.0,0.0,0.0,0.0,0.0,0.0,0.0,0.0,0.0,0.0,0.0,0.0,0.0,0.0,0.0,0.0,0.0,0.0,0.0,0.0,0.0,0.0,0.0,0.0,0.0,0.0,0.0,0.0,0.0,0.0,0.0,0.0,0.0,0.0,0.0,0.0,0.0,0.0,0.0,0.0,0.0,0.0,0.0,0.0,0.0,0.0,0.0,0.0,0.0,0.0,0.0,0.0,0.0,0.0,0.0,0.0,0.0,0.0,0.0,0.0,0.0,0.0,0.0,0.0,0.0,0.0,0.0,0.0,0.0,0.0,0.0,0.0,0.0,0.0,0.0,0.0,0.0,0.0,0.7668,0.698,0.678,0.6459,0.5967,0.4928,0.402,0.0,0.0,0.0,0.0,0.0,0.0,0.0,0.0,0.0,0.0,0.0,0.0,0.0,0.0,0.0,0.0,0.0,0.0,0.0,0.0,0.0,0.0,0.0,0.0,0.0,0.0,0.0,0.0,0.0,0.0,0.0,0.0,0.0,0.0,0.0,0.0,0.0,0.0,0.0,0.0,0.0,0.0,0.0,0.0,0.0,0.0,0.0,0.0,0.0,0.0,0.0,0.0,0.0,0.0,0.0,0.0,0.0,0.0,0.0,0.0,0.0,0.0,0.0,0.0,0.0,0.0,0.0,0.0,0.0,0.0,0.0,0.0,0.0,0.0,0.0,0.0,0.0,0.0,0.0,0.0,0.0,0.0,0.0,0.0,0.0,0.0,0.0,0.0,0.0,0.0,0.0,0.0,0.0,0.0,0.0,0.0,0.0,0.0,0.0,0.0,0.0,0.0,0.0,0.0,0.0,0.0,0.0,0.0,0.8264,0.7553,0.7372,0.7023,0.6483,0.5351,0.435,0.0,0.0,0.0,0.0,0.0,0.0,0.0,0.0,0.0,0.0,0.0,0.0,0.0,0.0,0.0,0.0,0.0,0.0,0.0,0.0,0.0,0.0,0.0,0.0,0.0,0.0,0.0,0.0,0.0,0.0,0.0,0.0,0.0,0.0,0.0,0.0,0.0,0.0,0.0,0.0,0.0,0.0,0.0,0.0,0.0,0.0,0.0,0.0,0.1333,0.0,0.0,0.0,0.0,0.0,0.0,0.0,0.0,0.0,0.0,0.0,0.0,0.0,0.0,0.0,0.0,0.0,0.0,0.0,0.0,0.0,0.0,0.0,0.0,0.0,0.0,0.0,0.0,0.0,0.0,0.0,0.0,0.0,0.0,0.0,0.0,0.0,0.0,0.0,0.0,0.0,0.0,0.0,0.0,0.0,0.0,0.0,0.0,0.0,0.0,0.0,0.0,0.0,0.0,0.0,0.0,0.0,0.0,0.0,0.8872,0.8195,0.8019,0.7599,0.6907,0.5995,0.5001,0.0,0.0,0.0,0.0,0.0,0.0,0.0,0.0,0.0,0.0,0.0,0.0,0.0,0.0,0.0,0.0,0.0,0.0,0.0,0.0,0.0,0.0,0.0,0.0,0.0,0.0,0.0,0.0,0.0,0.0,0.0,0.0,0.0,0.0,0.0,0.0,0.0,0.0,0.0,0.0,0.0,0.0,0.0,0.0,0.0,0.0,0.0,0.0,0.0,0.0,0.0,0.0,0.0,0.0,0.0,0.0,0.0,0.0,0.0,0.0,0.0,0.0,0.0,0.0,0.0,0.0,0.0,0.0,0.0,0.0,0.0,0.0,0.0,0.0,0.0,0.0,0.0,0.0,0.0,0.0,0.0,0.0,0.0,0.0,0.0,0.0,0.0,0.0,0.0,0.0,0.0,0.0,0.0,0.0,0.0,0.0,0.0,0.0,0.0,0.0,0.0,0.0,0.0,0.0,0.0,0.0,0.0,0.9836,0.9537,0.8905,0.8675,0.8174,0.7407,0.6757,0.5782,0.4437,0.0,0.0,0.0,0.0,0.0,0.0,0.0,0.0,0.0,0.0,0.0,0.0,0.0,0.0,0.0,0.0,0.0,0.0,0.0,0.0,0.0,0.0,0.0,0.0,0.0,0.0,0.0,0.0,0.0,0.0,0.0,0.0,0.0,0.0,0.0,0.0,0.0,0.0,0.565,0.5582,0.0,0.0,0.0,0.0,0.0,0.0,0.0,0.0,0.2541,0.0,0.0,0.0,0.0,0.0,0.0,0.0,0.0,0.0,0.0,0.0,0.0,0.0,0.0,0.0,0.0,0.0,0.0,0.0,0.0,0.0,0.0,0.0,0.0,0.0,0.0,0.0,0.0,0.0,0.0,0.0,0.0,0.0,0.0,0.0,0.0,0.0,0.0,0.0,0.0,0.0,0.0,0.0,0.0,0.0,0.0,0.0,0.0,0.0,0.0,0.0,0.0,0.0,0.0,0.0,0.0,1.0542,1.0436,1.0172,0.9712,0.9318,0.8822,0.8203,0.7339,0.6427,0.5389,0.0,0.0,0.0,0.0,0.0,0.0,0.0,0.0,0.0,0.0,0.0,0.0,0.0,0.0,0.0,0.0,0.0,0.0,0.0,0.0,0.0,0.0,0.0,0.0,0.0,0.0,0.0,0.0,0.0,0.0,0.0,0.0,0.0,0.0,0.0,0.0,0.0,0.0,0.0,0.6024,0.6005,0.0,0.0,0.0,0.0,0.0,0.0,0.0,0.0,0.3074,0.0,0.0,0.0,0.0,0.0,0.0,0.0,0.0,0.0,0.0,0.0,0.0,0.0,0.0,0.0,0.0,0.0,0.0,0.0,0.0,0.0,0.0,0.0,0.0,0.0,0.0,0.0,0.0,0.0,0.0,0.0,0.0,0.0,0.0,0.0,0.0,0.0,0.0,0.0,0.0,0.0,0.0,0.0,0.0,0.0,0.0,0.0,0.0,0.0,0.0,0.0,0.0,0.0,0.0,0.0,1.143,1.1104,1.0831,1.0655,1.0194,0.962,0.9003,0.8116,0.7178,0.0,0.0,0.0,0.0,0.0,0.0,0.0,0.0,0.0,0.0,0.0,0.0,0.0,0.0,0.0,0.0,0.0,0.0,0.0,0.0,0.0,0.0,0.0,0.0,0.0,0.0,0.0,0.0,0.0,0.0,0.0,0.0,0.0,0.0,0.0,0.0,0.0,0.0,0.0,0.0,0.6562,0.6617,0.6602,0.0,0.0,0.0,0.0,0.0,0.0,0.4556,0.4093,0.0,0.0,0.0,0.0,0.0,0.0,0.0,0.0,0.0,0.0,0.0,0.0,0.0,0.0,0.0,0.0,0.0,0.0,0.0,0.0,0.0,0.0,0.0,0.0,0.0,0.0,0.0,0.0,0.0,0.0,0.0,0.0,0.0,0.0,0.0,0.0,0.0,0.0,0.0,0.0,0.0,0.0,0.0,0.0,0.0,0.0,0.0,0.0,0.0,0.0,0.0,0.0,0.0,0.0,0.0,1.2359,1.1867,1.1598,1.1607,1.1111,1.0481,0.9873,0.8923,0.795,0.0,0.0,0.0,0.0,0.0,0.0,0.0,0.0,0.0,0.0,0.0,0.0,0.0,0.0,0.0,0.0,0.0,0.0,0.0,0.0,0.0,0.0,0.0,0.0,0.0,0.0,0.0,0.0,0.0,0.0,0.0,0.0,0.0,0.0,0.0,0.0,0.0,0.0,0.0,0.0,0.0,0.7334,0.7446,0.7395,0.0,0.0,0.0,0.0,0.6097,0.5602,0.0,0.0,0.0,0.0,0.0,0.0,0.0,0.0,0.0,0.0,0.0,0.0,0.0,0.0,0.0,0.0,0.0,0.0,0.0,0.0,0.0,0.0,0.0,0.0,0.0,0.0,0.0,0.0,0.0,0.0,0.0,0.0,0.0,0.0,0.0,0.0,0.0,0.0,0.0,0.0,0.0,0.0,0.0,0.0,0.0,0.0,0.0,0.0,0.0,0.0,0.0,0.0,0.0,0.0,0.0,0.0,1.3112,1.2755,1.2514,1.2455,1.2046,1.1446,1.0694,0.9705,0.8647,0.0,0.0,0.0,0.0,0.0,0.0,0.0,0.0,0.0,0.0,0.0,0.0,0.0,0.0,0.0,0.0,0.0,0.0,0.0,0.0,0.0,0.0,0.0,0.0,0.0,0.0,0.0,0.0,0.0,0.0,0.0,0.0,0.0,0.0,0.0,0.0,0.0,0.0,0.0,0.0,0.0,0.8376,0.8655,0.8591,0.8344,0.0,0.0,0.734,0.6999,0.6376,0.0,0.0,0.0,0.0,0.0,0.0,0.0,0.0,0.0,0.0,0.0,0.0,0.0,0.0,0.0,0.0,0.0,0.0,0.0,0.0,0.0,0.0,0.0,0.0,0.0,0.0,0.0,0.0,0.0,0.0,0.0,0.0,0.0,0.0,0.0,0.0,0.0,0.0,0.0,0.0,0.0,0.0,0.0,0.0,0.0,0.0,0.0,0.0,0.0,0.0,0.0,0.0,0.0,0.0,0.0,1.2949,1.3991,1.3543,1.3405,1.3549,1.3003,1.2335,1.1669,1.0557,0.9433,0.0,0.0,0.0,0.0,0.0,0.0,0.0,0.0,0.0,0.0,0.0,0.0,0.0,0.0,0.0,0.0,0.0,0.0,0.0,0.0,0.0,0.0,0.0,0.0,0.0,0.0,0.0,0.0,0.0,0.0,0.0,0.0,0.0,0.0,0.0,0.0,0.0,0.0,0.0,0.0,0.0,0.0,0.9789,0.9948,0.0,0.0,0.0,0.871,0.8107,0.0,0.0,0.0,0.0,0.0,0.0,0.0,0.0,0.0,0.0,0.0,0.0,0.0,0.0,0.0,0.0,0.0,0.0,0.0,0.0,0.0,0.0,0.0,0.0,0.0,0.0,0.0,0.0,0.0,0.0,0.0,0.0,0.0,0.0,0.0,0.0,0.0,0.0,0.0,0.0,0.0,0.0,0.0,0.0,0.0,0.0,0.0,0.0,0.0,0.0,0.0,0.0,0.0,0.0,0.0,0.0,0.0,1.4891,1.4444,1.4334,1.4665,1.3985,1.3331,1.2725,1.1471,0.0,0.0,0.0,0.0,0.0,0.0,0.0,0.0,0.0,0.0,0.0,0.0,0.0,0.0,0.0,0.0,0.0,0.0,0.0,0.0,0.0,0.0,0.0,0.0,0.0,0.0,0.0,0.8106,0.0,0.0,0.0,0.0,0.0,0.0,0.0,0.0,0.0,0.0,0.0,0.0,0.0,0.0,1.0383,1.0962,1.1271,1.114,0.0,0.0,1.0022,0.9157,0.8283,0.7552,0.0,0.0,0.0,0.0,0.0,0.0,0.0,0.0,0.0,0.0,0.0,0.0,0.0,0.0,0.0,0.0,0.0,0.0,0.0,0.0,0.0,0.0,0.0,0.0,0.0,0.0,0.0,0.0,0.0,0.0,0.0,0.0,0.0,0.0,0.0,0.0,0.0,0.0,0.0,0.0,0.0,0.0,0.0,0.0,0.0,0.0,0.0,0.0,0.0,0.0,0.0,0.0,0.0,0.0,0.0,1.5753,1.5472,1.5419,1.5658,1.5089,1.4502,1.3882,1.2583,1.1438,0.0,0.0,0.0,0.0,0.0,0.0,0.0,0.0,0.0,0.0,0.0,0.0,0.0,0.0,0.0,0.0,0.0,0.0,0.0,0.0,0.0,0.0,0.0,0.0,0.0,0.0,0.0,0.0,0.0,0.0,0.0,0.0,0.0,0.0,0.0,0.0,0.0,0.0,0.0,0.0,0.0,1.1665,1.2207,1.2437,1.233,0.0,0.0,1.0976,0.9972,0.9054,0.817,0.7462,0.0,0.0,0.0,0.0,0.0,0.0,0.0,0.0,0.0,0.0,0.0,0.0,0.0,0.0,0.0,0.0,0.0,0.0,0.0,0.0,0.0,0.0,0.0,0.0,0.0,0.0,0.0,0.0,0.0,0.0,0.0,0.0,0.0,0.0,0.0,0.0,0.0,0.0,0.0,0.0,0.0,0.0,0.0,0.0,0.0,0.0,0.0,0.0,0.0,0.0,0.0,0.0,0.0,1.5196,1.6786,1.6414,1.6361,1.6636,1.607,1.5428,1.4768,1.3723,1.2738,0.0,0.0,0.0,0.0,0.0,0.0,0.0,0.0,0.0,0.0,0.0,0.0,0.0,0.0,0.0,0.0,0.0,0.0,0.0,0.0,0.0,0.0,0.0,0.0,0.0,0.0,0.0,0.0,1.0199,1.0093,0.99,0.0,0.0,0.0,0.0,0.0,0.0,0.0,0.0,0.0,0.0,1.2796,1.3364,1.3505,0.0,0.0,1.2355,1.1867,1.0749,0.9913,0.916,0.8482,0.7568,0.0,0.0,0.0,0.0,0.0,0.0,0.0,0.0,0.0,0.0,0.0,0.0,0.0,0.0,0.0,0.0,0.0,0.0,0.0,0.0,0.0,0.0,0.0,0.0,0.0,0.0,0.0,0.0,0.0,0.0,0.0,0.0,0.0,0.0,0.0,0.0,0.0,0.0,0.0,0.0,0.0,0.0,0.0,0.0,0.0,0.0,0.0,0.0,0.0,0.0,0.0,0.0,1.595,1.7678,1.7295,1.7238,1.7584,1.701,1.6411,1.5824,1.4902,1.4034,0.0,0.0,0.0,0.0,0.0,0.0,0.0,0.0,0.0,0.0,0.0,0.0,0.0,0.0,0.0,0.0,0.0,0.0,0.0,0.0,0.0,0.0,0.0,0.0,0.0,0.0,0.0,0.0,1.1065,1.0811,1.0442,0.0,0.0,0.0,0.0,0.0,0.0,0.0,0.0,0.0,0.0,1.3954,1.4497,1.4536,1.4278,1.3611,1.3267,1.2745,1.1777,1.0963,1.0253,0.9722,0.0,0.0,0.0,0.0,0.0,0.0,0.0,0.0,0.0,0.0,0.0,0.0,0.0,0.0,0.0,0.0,0.0,0.0,0.0,0.0,0.0,0.0,0.0,0.0,0.0,0.0,0.0,0.0,0.0,0.0,2.3596,0.0,0.0,0.0,0.0,0.0,0.0,0.0,0.0,0.0,0.0,0.0,0.0,0.0,0.0,0.0,0.0,0.0,0.0,0.0,0.0,0.0,0.0,1.6765,1.8351,1.8058,1.808,1.8435,1.7935,1.7501,1.7113,1.6131,1.5367,1.4951,0.0,0.0,0.0,0.0,0.0,0.0,0.0,0.0,0.0,0.0,0.0,0.0,0.0,0.0,0.0,0.0,0.0,0.0,0.0,0.0,0.0,0.0,0.0,0.0,0.0,0.0,1.2445,1.2151,1.1791,0.0,0.0,0.0,0.0,0.0,0.0,0.0,0.0,0.0,0.0,1.4759,1.5191,1.5588,1.5545,1.5261,1.4722,1.4172,1.3623,1.3073,1.2256,1.1503,0.0,0.0,0.0,0.0,0.0,0.0,0.0,0.0,0.0,0.0,0.0,0.0,0.0,0.0,0.0,0.0,0.0,0.0,0.0,0.0,0.0,0.0,0.0,0.0,0.0,0.0,0.0,2.6625,2.654,0.0,0.0,0.0,0.0,0.0,0.0,0.0,0.0,0.0,0.0,0.0,2.5681,2.5189,0.0,0.0,0.0,0.0,0.0,0.0,0.0,0.0,0.0,0.0,0.0,0.0,1.8139,1.9153,1.9238,1.9242,1.9243,1.8911,1.8519,1.7964,1.746,1.6745,1.5755,0.0,0.0,0.0,0.0,0.0,0.0,0.0,0.0,0.0,0.0,0.0,0.0,0.0,0.0,0.0,0.0,0.0,0.0,0.0,0.0,0.0,0.0,0.0,0.0,0.0,1.3177,0.0,0.0,0.0,0.0,0.0,0.0,0.0,0.0,0.0,0.0,0.0,1.4573,1.5064,1.5815,1.6215,1.6039,1.5851,1.5535,0.0,0.0,0.0,0.0,0.0,0.0,0.0,0.0,0.0,0.0,0.0,0.0,0.0,0.0,0.7718,0.6805,0.6508,0.6279,0.587,0.0,0.0,0.0,0.0,0.0,0.0,0.0,0.0,0.0,0.0,0.0,0.0,0.0,0.0,2.8936,0.0,2.8076,0.0,0.0,0.0,0.0,0.0,0.0,0.0,0.0,2.8132,2.8216,2.7409,2.6894,2.6433,0.0,2.5218,2.4063,0.0,0.0,0.0,0.0,0.0,0.0,0.0,0.0,1.9219,2.0187,2.0247,2.0225,2.0117,1.9835,1.9408,1.8821,1.8418,1.7663,1.6585,1.5515,1.4564,0.0,0.0,0.0,0.0,0.0,0.0,0.0,0.0,0.0,0.0,0.0,0.0,0.0,0.0,0.0,0.0,0.0,0.0,0.0,0.0,0.0,0.0,0.0,1.406,0.0,0.0,0.0,0.0,0.0,0.0,0.0,0.0,0.0,1.3872,1.4845,1.572,1.6131,1.6699,1.7,1.6657,0.0,0.0,0.0,0.0,0.0,0.0,0.0,1.3125,1.2942,1.2496,1.2003,1.1514,1.1124,1.0791,1.0487,0.0,0.0,0.8134,0.7747,0.7524,0.7053,0.6907,0.6814,0.6651,0.6222,0.5937,0.0,0.0,0.0,0.0,0.0,0.0,0.0,0.0,3.1662,3.1614,0.0,3.0838,0.0,0.0,0.0,0.0,0.0,2.8237,0.0,0.0,2.9618,2.9509,2.8817,2.8673,2.8125,2.7203,2.6539,2.6094,2.5665,2.3014,0.0,0.0,0.0,0.0,0.0,0.0,2.015,2.1373,2.111,2.1023,2.1112,2.0677,2.0258,1.9802,1.9011,1.8208,1.7491,1.7104,1.6438,1.5312,1.4444,0.0,0.0,0.0,0.0,0.0,0.0,0.0,0.0,0.0,0.0,0.0,0.0,0.0,0.0,0.0,0.0,0.0,0.0,0.0,0.0,1.5168,0.0,0.0,0.0,0.0,0.0,0.0,0.0,0.0,0.0,0.0,1.5307,1.5824,1.6485,1.7393,0.0,0.0,0.0,0.0,1.6905,1.6277,1.5833,1.5488,1.5312,1.4732,1.4304,1.4304,0.0,0.0,1.2179,1.2053,1.1885,1.1515,1.1428,1.0993,0.9642,0.9054,0.868,0.8461,0.8248,0.809,0.7934,0.7396,0.6949,3.6714,0.0,0.0,0.0,0.0,3.3197,3.335,3.3921,3.3372,3.3182,3.3109,3.2243,0.0,0.0,0.0,0.0,0.0,0.0,3.1076,3.0604,3.1052,3.0619,2.9391,2.924,2.8672,2.7775,2.7589,2.7315,2.6882,2.5529,2.4247,2.3038,0.0,0.0,0.0,0.0,2.2048,2.2168,2.2138,2.2024,2.1834,2.1514,2.1019,2.0377,1.9911,1.9345,1.8781,1.8298,1.7722,1.7005,1.6013,0.0,0.0,0.0,0.0,0.0,0.0,0.0,0.0,0.0,0.0,0.0,0.0,0.0,0.0,0.0,0.0,0.0,0.0,0.0,1.6573,1.6587,1.6407,0.0,0.0,0.0,0.0,0.0,0.0,0.0,0.0,0.0,1.7315,1.7529,1.7731,0.0,0.0,1.8081,1.7558,1.7369,1.7178,1.6785,0.0,0.0,0.0,1.5271,1.4865,1.4865,1.4313,1.3796,1.3597,1.3181,1.279,1.2526,1.2342,1.2046,1.1372,1.055,0.9911,0.9539,0.9311,0.9102,0.891,0.8529,0.8132,3.9262,3.7819,3.6523,3.5969,3.5885,3.5185,3.5158,3.5589,3.4791,3.4451,3.4395,3.3819,3.3386,3.3065,3.2502,0.0,0.0,0.0,3.2377,3.1534,3.1978,3.1391,3.0012,2.977,2.9193,2.8317,2.8277,2.8137,2.7765,2.718,2.6505,2.566,0.0,0.0,2.3566,2.319,2.2962,2.2858,2.2497,2.2238,2.2048,2.1777,2.149,2.1219,2.0741,2.0355,2.0009,1.9437,1.8923,1.8435,1.7593,1.6769,0.0,0.0,0.0,0.0,0.0,0.0,0.0,0.0,0.0,0.0,0.0,1.4119,1.4917,0.0,0.0,0.0,1.7115,1.7774,1.821,1.7975,0.0,0.0,0.0,0.0,0.0,0.0,0.0,1.7303,1.7883,1.8364,1.8574,1.8731,1.8726,1.8486,1.8634,1.8557,1.7959,0.0,1.7687,1.7274,1.7026,1.6777,1.6491,1.6096,1.5744,1.5425,1.5081,1.4744,1.4487,1.4135,1.3804,1.3499,1.3187,1.2841,1.2523,1.1742,1.0943,1.0452,1.0222,1.0046,0.9721,0.9518,0.9305,4.1186,4.0903,3.892,3.8048,3.7882,3.7187,3.6791,3.6689,3.5841,3.547,3.5464,3.5367,3.4968,3.4281,3.3467,0.0,3.2586,3.3175,3.2945,3.2091,3.2401,3.1862,3.0542,3.0259,2.9659,2.8779,2.8779,2.8653,2.8468,2.811,2.7898,2.7695,2.5539,2.4436,2.442,2.3606,2.3272,2.3464,2.2496,2.1977,2.1922,2.172,2.177,2.2091,2.1542,2.1219,2.1155,2.057,2.0049,1.9673,1.9124,1.8457,1.7597,0.0,0.0,0.0,0.0,0.0,0.0,0.0,0.0,0.0,0.0,0.0,0.0,0.0,0.0,0.0,1.8501,0.0,1.9628,1.9276,0.0,0.0,0.0,1.8412,1.8412,1.838,1.846,1.8816,0.0,0.0,1.9246,0.0,1.9495,1.9173,1.906,1.8885,1.8509,1.8412,1.8275,1.7716,1.7668,1.7542,1.7154,1.6915,1.6528,1.5913,1.5817,1.5546,1.5072,1.486,1.4735,1.432,1.3882,1.3508,1.3307,1.2655,1.2005,1.132,1.1058,1.0866,1.044,1.0367,1.0236,4.1661,4.1442,4.0293,3.9292,3.8385,3.7647,3.6994,3.6406,3.6126,3.6014,3.6014,3.579,3.5515,3.5262,3.4942,3.4449,3.3846,3.3838,3.3379,3.256,3.2415,3.1885,3.095,3.0797,3.025,2.9418,2.9319,2.9236,2.9044,2.8179,2.7651,2.7384,2.6154,2.5693,2.5904,2.5075,2.4468,2.4245,2.3299,2.2577,2.213,2.2308,2.2347,2.2196,2.2359,2.2261,2.1896,2.1698,2.1463,2.1097,2.0429,1.9968,1.9761,1.8632,0.0,0.0,0.0,0.0,0.0,0.0,0.0,0.0,0.0,1.7125,1.7912,0.0,1.946,0.0,1.9944,2.0212,2.0334,2.0093,0.0,0.0,1.9569,1.9365,1.9365,1.8996,1.8917,1.9338,1.9303,1.9274,1.9483,1.9657,1.97,1.9504,1.8881,1.8416,1.8208,1.8114,1.7956,1.7692,1.7575,1.7386,1.7192,1.6873,1.6569,1.6104,1.5842,1.5593,1.5462,1.5097,1.4722,1.4505,1.4279,1.4013,1.3703,1.3498,1.3132,1.2487,1.1906,1.1434,1.1286,1.1006,1.061,4.1357,4.094,4.0389,3.9588,3.8587,3.8014,3.7495,3.7078,3.6582,3.6381,3.6343,3.6127,3.5954,3.5827,3.5421,3.4943,3.4445,3.3967,3.3277,3.244,3.2188,3.1677,3.0942,3.0751,3.0385,2.987,2.976,2.9488,2.9012,2.8348,2.7749,2.719,2.6533,2.625,2.6258,2.5177,2.4437,2.4123,2.3195,2.2585,2.2339,2.2735,2.2882,2.2845,2.3207,2.3263,2.2852,2.2652,2.2439,2.2243,2.1745,2.1312,2.0996,2.0294,1.9448,0.0,0.0,0.0,0.0,0.0,0.0,0.0,0.0,0.0,0.0,0.0,2.086,2.1174,2.13,2.1368,2.1316,2.1187,2.1086,2.1086,2.092,2.0693,2.0458,2.0147,2.0024,2.0117,1.9968,1.9871,1.9885,1.9873,1.9762,1.9481,1.8954,1.8623,1.863,1.8566,1.8434,1.8159,1.8098,1.7934,1.7688,1.7378,1.7076,1.6835,1.6573,1.6332,1.6087,1.5799,1.55,1.5145,1.4827,1.4521,1.4279,1.3975,1.3657,1.3281,1.2694,1.213,1.1746,1.1319,1.0904,4.0752,4.0141,3.9902,3.9417,3.8738,3.8286,3.8073,3.7978,3.7073,3.6655,3.6652,3.6468,3.6287,3.6082,3.539,3.485,3.4449,3.3664,3.2844,3.2025,3.1805,3.1387,3.0749,3.0547,3.0417,3.0274,3.0048,2.9566,2.8804,2.8378,2.7801,2.7042,2.6628,2.6271,2.5923,2.4701,2.394,2.3652,2.2756,2.2352,2.2517,2.3065,2.3431,2.3661,2.4063,2.4176,2.3946,2.3535,2.3297,2.3267,2.2955,2.2533,2.197,2.1825,2.1156,0.0,1.9328,0.0,0.0,0.0,0.0,0.0,0.0,0.0,0.0,2.121,2.1945,2.2555,2.2561,2.25,2.2371,2.234,2.234,2.2309,2.2249,2.2007,2.15,2.1307,2.11,2.0783,2.0714,2.0526,2.0168,2.004,1.9775,1.9397,1.923,1.9143,1.9275,1.9186,1.8987,1.8818,1.8729,1.843,1.8213,1.8016,1.7775,1.7593,1.7369,1.7216,1.6702,1.6547,1.6379,1.5902,1.5421,1.5041,1.4909,1.4362,1.3976,1.3916,1.3488,1.2876,1.2166,1.1683,1.1358,4.0637,4.0456,3.9715,3.9337,3.9138,3.8348,3.7882,3.768,3.7331,3.7068,3.6911,3.6891,3.6459,3.5802,3.5528,3.4627,3.3237,3.2948,3.2332,3.1438,3.1354,3.117,3.0972,3.0834,3.079,3.072,3.0045,2.9525,2.9242,2.784,2.7023,2.6675,2.5931,2.5405,2.5116,0.0,0.0,0.0,2.2984,2.2743,2.2703,2.3558,2.3991,2.3951,2.4723,0.0,2.4793,2.4565,2.4408,2.425,2.3959,0.0,0.0,0.0,0.0,0.0,0.0,0.0,0.0,0.0,0.0,0.0,2.2114,2.2378,2.2191,2.2887,2.339,2.3535,2.3429,2.3335,2.3193,2.318,2.312,2.2944,2.2528,2.2259,2.2081,2.1322,2.07,2.0628,2.0268,1.9969,1.992,1.9858,1.9807,1.9707,1.9669,1.9626,1.9546,1.9131,1.8729,1.8635,1.8495,1.8215,1.8014,1.7975,1.7878,1.7564,1.7348,1.7198,1.6979,1.6612,1.6388,1.6213,1.5821,1.5459,1.5341,1.5008,1.4725,1.4567,1.4151,1.3619,1.2928,1.2521,1.2205,3.9866,0.0,3.9032,3.887,0.0,3.8383,3.8119,3.7966,3.7649,3.7428,3.728,3.6872,3.6407,3.5851,3.5039,3.4083,3.3076,3.2619,3.2107,3.1559,3.1445,3.1346,3.1232,3.1112,3.1069,3.0998,3.0118,2.9449,2.899,2.7777,2.6881,2.6419,2.5872,2.5473,2.525,2.4974,2.4451,2.3646,2.3538,2.3474,2.3588,2.4302,2.4757,2.4897,0.0,0.0,0.0,0.0,0.0,0.0,0.0,0.0,0.0,0.0,0.0,2.3069,2.2728,2.2456,2.2278,2.2444,2.2683,2.3054,2.3957,2.4252,2.3727,2.4063,2.4292,2.4292,2.4234,2.4118,2.3943,2.3667,2.3412,2.3241,2.2737,2.2285,2.1909,2.141,2.0937,2.0642,2.0361,2.0182,2.0207,2.0194,2.0182,2.0182,2.0131,2.0067,1.9965,1.9474,1.9066,1.8895,1.8721,1.8545,1.8441,1.8398,1.8263,1.8073,1.787,1.7678,1.7484,1.7207,1.6955,1.6758,1.6418,1.6142,1.5989,1.571,1.542,1.5264,1.4872,1.4428,1.401,1.3428,1.2793,3.9065,3.8481,3.8465,3.8449,3.8449,3.8415,3.8415,3.8366,0.0,0.0,0.0,3.6773,3.6221,3.5705,3.4428,3.3617,3.3142,3.2494,3.2073,3.1856,3.1746,3.1653,3.1555,3.1366,3.1269,3.1196,3.0143,2.9307,2.872,2.7754,2.6928,2.6289,2.6061,2.5846,2.5642,2.5343,2.4875,2.4276,2.4151,2.4279,2.4642,2.5108,2.5555,2.599,2.6335,2.6431,2.6299,2.6029,2.5893,2.5852,2.5687,2.5495,2.5244,2.5202,2.4816,2.3968,2.3887,2.3673,2.3259,2.3647,2.4094,2.4545,2.5354,2.5591,2.5005,2.4977,2.4977,2.4977,2.5005,2.4866,2.4575,2.4104,2.3686,2.3442,2.287,2.2273,2.1759,2.1549,2.1273,2.0839,2.0747,2.0734,2.0734,2.0734,2.0721,2.0709,2.0623,2.0498,2.0422,1.9991,1.9552,1.9344,1.9186,1.9146,1.9119,1.9025,1.8893,1.8747,1.8575,1.8387,1.8143,1.7975,1.7755,1.7523,1.72,1.6948,1.6779,1.64,1.6075,1.6075,1.5594,1.5177,1.4963,1.428,1.3445,3.8839,3.8728,3.8689,3.8658,3.8643,3.8525,3.8446,3.8382,3.8254,3.7757,3.7006,3.6813,3.5921,3.4548,3.425,3.3605,3.2715,3.2592,3.2387,0.0,3.2073,3.1929,3.1763,3.1615,3.1502,3.134,2.9918,2.9097,2.8821,2.7448,2.6638,2.6467,2.6312,2.6118,2.5862,2.5698,2.5438,2.5119,2.4726,2.4751,2.5185,2.5704,2.6251,2.6799,2.7105,2.7181,2.7037,2.675,2.6563,2.6563,2.6431,2.6283,2.6136,2.6015,2.5769,2.5439,2.5398,2.5356,2.5273,2.5356,2.5576,2.5955,2.6254,2.6163,2.5647,2.5674,2.5729,2.5757,2.5715,2.5451,2.4776,2.4569,2.4172,2.3534,2.2896,2.2437,2.2315,2.1808,2.1423,2.1315,2.1288,2.1288,2.1288,2.1288,2.1288,2.1264,2.1142,2.0995,2.0734,2.0271,1.9914,1.9759,1.9695,1.9682,1.9682,1.9591,1.9434,1.9303,1.9172,1.8989,1.8815,1.8614,1.8452,1.8387,1.7936,1.7617,1.7507,1.706,1.6751,1.6666,1.6236,1.5771,1.5319,1.4873,1.4364,3.8877,3.8851,3.8777,3.8765,3.8732,3.8655,3.8593,3.8525,3.8058,3.758,3.6999,3.6134,3.5274,3.4509,3.398,3.3447,3.2864,3.2852,3.269,3.2421,3.2387,3.2249,3.2019,3.1893,3.1801,3.1584,3.0018,2.9193,2.8931,2.7504,2.6691,2.6537,2.6451,2.6312,2.6118,2.6026,2.604,2.6205,2.5759,2.5737,2.6223,2.6705,2.7273,2.7896,2.7871,2.7765,2.765,2.7423,2.7269,2.7188,2.7152,2.7023,2.6814,2.6724,2.6566,2.627,2.6231,2.6244,2.6258,2.6326,2.6474,2.6671,2.6803,2.6788,2.6539,2.6392,2.6338,2.6324,2.604,2.5673,2.5216,2.4581,2.3928,2.3448,2.2836,2.2438,2.2325,2.2058,2.1831,2.1831,2.1817,2.1817,2.1831,2.1831,2.1817,2.1817,2.1688,2.1434,2.1191,2.0921,2.0636,2.0321,2.0232,2.0232,2.0232,2.0131,1.9991,1.9849,1.972,1.9552,1.9382,1.9146,1.9025,1.8922,1.8533,1.8247,1.8193,1.77,1.7379,1.7245,1.6684,1.6119,1.5725,1.5066,1.4208,3.9003,3.8935,3.8881,3.8818,3.8788,3.875,3.8723,3.8597,3.7643,3.7143,3.6803,3.5458,3.4703,3.4408,3.3753,3.3345,3.3193,3.3119,3.2945,3.2737,3.2705,3.2556,3.2301,3.2232,3.2091,3.1737,3.0421,2.9575,2.9057,2.7845,2.7012,2.6674,2.6555,2.6485,2.6365,2.646,2.6715,2.7057,2.7062,2.7166,2.7397,2.7728,2.8191,2.8787,2.8542,2.8308,2.8155,2.8008,2.79,2.78,2.7775,2.7675,2.7448,2.7437,2.7295,2.7008,2.6967,2.6956,2.6971,2.7115,2.7196,2.7185,2.7299,2.7327,2.7153,2.692,2.6714,2.6578,2.6163,2.5734,2.521,2.4457,2.3677,2.3331,2.2878,2.2575,2.244,2.2379,2.2356,2.237,2.2356,2.2356,2.2356,2.2356,2.231,2.2254,2.2114,2.1888,2.1664,2.1592,2.1385,2.108,2.0858,2.0784,2.0772,2.0648,2.0511,2.0385,2.0233,2.0054,1.9849,1.9694,1.9525,1.937,1.9054,1.8801,1.8682,1.829,1.7891,1.7684,1.7057,1.6428,1.5907,1.4912,1.3901,3.921,3.9073,3.9021,3.8925,3.8807,3.8792,3.8765,3.8505,3.7074,3.6395,3.6296,3.5318,3.4485,3.3835,3.3637,3.3553,3.3448,3.3393,3.3241,3.3055,3.2995,3.2818,3.2573,3.2573,3.2421,3.2092,3.1168,3.0283,2.9506,2.8596,2.7741,2.6944,2.6674,2.6656,2.6655,2.719,2.7452,2.7408,2.8633,2.909,2.8655,2.8463,2.8668,2.9393,2.9044,2.8779,2.8637,2.8503,2.8398,2.8323,2.8323,2.825,2.8097,2.8113,2.8008,2.7799,2.7775,2.7755,2.77,2.7825,2.785,2.774,2.7825,2.7648,2.7104,2.6974,2.6741,2.6337,2.6184,2.56,2.4508,2.4208,2.39,2.3384,2.3156,2.3053,2.2994,2.2926,2.2859,2.2844,2.2822,2.2859,2.2822,2.2822,2.2768,2.2623,2.2555,2.2417,2.217,2.2123,2.21,2.1959,2.1674,2.1361,2.1313,2.1106,2.0997,2.0909,2.0698,2.0498,2.0346,2.0195,2.0054,1.9785,1.9539,1.9303,1.9107,1.8789,1.838,1.8028,1.7502,1.6888,1.5813,1.4836,1.3996,3.9439,3.929,3.9192,3.9092,3.8939,3.8851,3.8792,3.86,3.6997,3.6285,3.6119,3.4862,3.4078,3.3753,3.3684,3.3629,3.3619,3.3567,3.3448,3.3331,3.3274,3.3119,3.2914,3.2802,3.2655,3.2368,3.1512,3.0835,3.0248,2.9403,2.8716,2.8357,2.815,2.8063,2.8113,2.8224,2.8485,2.8883,2.9429,2.9809,2.9968,2.9683,2.9578,2.975,2.9566,2.9364,2.9198,2.9129,2.9013,2.8834,2.8811,2.8748,2.8614,2.8629,2.8535,2.8384,2.8376,2.8352,2.8319,2.831,2.8262,2.8229,2.7813,2.7452,2.7193,2.681,2.6336,2.5758,2.5559,2.5174,2.4589,2.4201,2.3806,2.3524,2.3421,2.3399,2.3377,2.337,2.3297,2.3312,2.3312,2.3312,2.3312,2.3312,2.3238,2.3075,2.3031,2.2904,2.2663,2.2595,2.2595,2.2586,2.2411,2.2194,2.1912,2.1664,2.152,2.141,2.1166,2.0921,2.0785,2.0573,2.0359,2.0182,1.9952,1.972,1.9578,1.933,1.897,1.8526,1.7944,1.7238,1.6096,1.5185,1.4491,3.9658,3.9477,3.9357,3.9224,3.9021,3.8921,3.8848,3.8571,3.704,3.6332,3.6119,3.4541,3.3807,3.3793,3.3753,3.3707,3.3726,3.3657,3.3605,3.3567,3.3477,3.3345,3.3196,3.3088,3.2932,3.265,3.2024,3.1437,3.0922,2.9989,2.9455,2.9368,2.9228,2.9175,2.9173,2.9145,2.9441,2.9947,3.0087,3.0432,3.0808,3.0609,3.0359,3.0189,3.0044,2.9892,2.971,2.9665,2.9554,2.9289,2.9305,2.9243,2.9143,2.9159,2.9097,2.9012,2.8989,2.8989,2.8943,2.8842,2.867,2.842,2.7837,2.7326,2.6939,2.6475,2.5939,2.5313,2.5083,2.4943,2.4643,2.4228,2.3903,2.3803,2.3788,2.3782,2.3803,2.3803,2.3782,2.3803,2.3803,2.3788,2.3803,2.3803,2.3717,2.356,2.3494,2.3392,2.3157,2.3091,2.3091,2.3046,2.3046,2.2859,2.2449,2.2184,2.2044,2.1888,2.165,2.1399,2.1229,2.0995,2.0734,2.0598,2.0321,2.0131,1.9991,1.9759,1.9351,1.8998,1.8389,1.7571,1.6727,1.5839,1.5317,3.9889,3.9651,3.9477,3.9272,3.9101,3.9073,3.8979,3.8693,3.7098,3.6374,3.6097,3.4541,3.3807,3.3807,3.3793,3.3807,3.3793,3.3726,3.3716,3.3689,3.3619,3.3506,3.3378,3.3364,3.3229,3.2995,3.2811,3.2211,3.123,3.0293,2.9675,2.9558,2.9558,2.9436,2.9485,2.9921,3.0172,3.0306,3.0753,3.1081,3.1015,3.0958,3.0834,3.0671,3.048,3.0295,3.0167,3.0038,2.993,2.9788,2.9766,2.975,2.975,2.9728,2.9744,2.9728,2.9728,2.9683,2.955,2.9454,2.9109,2.8386,2.8053,2.7413,2.6356,2.6093,2.5731,2.5108,2.5072,2.4892,2.4529,2.4415,2.4281,2.4281,2.4261,2.4261,2.4261,2.4281,2.4261,2.4261,2.4281,2.4281,2.4281,2.4261,2.4156,2.403,2.3946,2.3861,2.3638,2.3573,2.3545,2.3494,2.3451,2.3297,2.2799,2.2586,2.2472,2.2356,2.2147,2.1926,2.1736,2.1544,2.1277,2.1008,2.0747,2.0548,2.0372,2.0016,1.951,1.902,1.8425,1.7715,1.7484,1.6789,1.6174,4.0008,3.9815,3.9611,3.9464,3.9337,3.9183,3.9031,3.8773,3.7141,3.6356,3.6024,3.4541,3.3807,3.3807,3.3807,3.3807,3.3788,3.3762,3.3766,3.3753,3.3698,3.3629,3.3591,3.3506,3.3408,3.3259,3.3104,3.2707,3.215,3.175,3.1477,3.1272,3.1167,3.1061,3.0952,3.1029,3.1073,3.1031,3.121,3.1235,3.1196,3.1154,3.1092,3.1015,3.0814,3.0667,3.0526,3.0485,3.0384,3.0258,3.0215,3.0172,3.0172,3.0108,3.0065,3.0044,3.0065,3.0022,2.9979,2.9908,2.9475,2.8715,2.811,2.7442,2.6543,2.6017,2.5632,2.5442,2.5378,2.5282,2.5146,2.4926,2.4766,2.4746,2.4746,2.4746,2.4746,2.4746,2.4746,2.4731,2.4766,2.4746,2.4746,2.4731,2.4645,2.4426,2.4364,2.4281,2.4135,2.4036,2.4015,2.3909,2.3882,2.3782,2.3501,2.3105,2.2881,2.2768,2.2609,2.244,2.2254,2.1902,2.1616,2.1482,2.124,2.0748,2.0484,1.9657,1.9273,1.9155,1.8545,1.83,1.8351,1.7447,1.6847,4.0128,3.9994,3.9781,3.9654,3.9514,3.9304,3.9147,3.8855,3.7456,3.6638,3.6107,3.4812,3.4064,3.3844,3.3807,3.3807,3.3807,3.3807,3.3807,3.3807,3.3753,3.3726,3.3684,3.3601,3.3534,3.3433,3.3271,3.3039,3.2768,3.2737,3.2589,3.2318,3.2284,3.2144,3.1947,3.1819,3.1726,3.1578,3.1447,3.1372,3.1351,3.1291,3.1232,3.1193,3.1092,3.0932,3.0794,3.0773,3.0712,3.0647,3.0589,3.0547,3.0564,3.0464,3.0422,3.0422,3.0422,3.0422,3.0401,3.0295,2.9805,2.885,2.8245,2.7515,2.6586,2.605,2.584,2.5791,2.5791,2.5791,2.5735,2.5565,2.5355,2.522,2.5201,2.5185,2.5185,2.5201,2.5185,2.5201,2.5201,2.5201,2.5201,2.5201,2.5068,2.4851,2.4811,2.4731,2.4584,2.4508,2.4446,2.4307,2.4245,2.4141,2.3909,2.3595,2.3326,2.3209,2.2971,2.2814,2.2632,2.2263,2.2044,2.1935,2.156,2.1033,2.0307,1.9466,1.9157,1.9177,1.8883,1.8549,1.8356,1.7978,1.7334,4.0196,4.0147,3.9994,3.977,3.9599,3.9427,3.929,3.8952,3.8062,3.7118,3.6311,3.5358,3.4472,3.3935,3.3807,3.3807,3.3807,3.3807,3.3807,3.3807,3.3807,3.3748,3.3712,3.3698,3.3643,3.3591,3.3466,3.3286,3.3101,3.3008,3.285,3.2655,3.2588,3.2455,3.2214,3.2126,3.2001,3.1819,3.169,3.1596,3.1517,3.1387,3.1295,3.1276,3.1213,3.1131,3.0995,3.0935,3.0912,3.0892,3.0875,3.0892,3.0871,3.0851,3.0871,3.0851,3.0871,3.0892,3.0851,3.0716,3.0019,2.8838,2.8362,2.7725,2.655,2.622,2.617,2.617,2.617,2.6188,2.617,2.6134,2.5972,2.5691,2.5602,2.5605,2.5621,2.5621,2.5605,2.5605,2.5605,2.5605,2.5586,2.5586,2.5473,2.5317,2.5259,2.5201,2.5025,2.4985,2.4871,2.469,2.463,2.4549,2.4307,2.4078,2.3839,2.3603,2.3304,2.3083,2.2971,2.2686,2.2495,2.2342,2.1816,2.1263,2.0559,1.9775,1.9269,1.9156,1.892,1.875,1.851,1.8158,1.762,4.028,4.0187,4.0038,3.9889,3.9705,3.9489,3.933,3.9082,3.8127,3.7224,3.6329,3.5418,3.4546,3.3954,3.3807,3.3807,3.3807,3.3807,3.3807,3.3807,3.3807,3.3793,3.378,3.3748,3.3721,3.3675,3.3577,3.3477,3.3375,3.3304,3.315,3.2977,3.2898,3.2737,3.2489,3.2455,3.2318,3.209,3.2001,3.1874,3.1726,3.1578,3.143,3.1315,3.1274,3.1215,3.1151,3.1112,3.1092,3.1092,3.1015,3.0935,3.0912,3.0912,3.0912,3.0912,3.0912,3.0912,3.0912,3.0821,3.0199,2.8994,2.8605,2.7868,2.6666,2.6399,2.6399,2.6399,2.6415,2.6399,2.6399,2.6399,2.6276,2.6045,2.6008,2.5992,2.5992,2.6008,2.601,2.601,2.601,2.5974,2.5901,2.5883,2.5809,2.5642,2.5586,2.553,2.5432,2.5378,2.5336,2.5143,2.5084,2.4946,2.469,2.4472,2.4287,2.4009,2.3674,2.3414,2.3268,2.3113,2.2926,2.2563,2.2062,2.147,2.0776,2.0147,1.9619,1.9163,1.895,1.8805,1.8731,1.8299,1.7645,4.037,4.0262,4.0118,3.9956,3.9804,3.9551,3.9382,3.9187,3.8474,3.7681,3.6869,3.6236,3.5279,3.4431,3.4247,3.4082,3.3844,3.3807,3.3807,3.3807,3.3807,3.3807,3.3807,3.3807,3.378,3.3721,3.3671,3.3601,3.3577,3.3491,3.339,3.3271,3.318,3.3008,3.2802,3.2721,3.2589,3.237,3.2267,3.2108,3.1964,3.1764,3.1615,3.1504,3.1426,3.1312,3.1252,3.1232,3.1213,3.119,3.1095,3.1072,3.1012,3.1012,3.1012,3.1012,3.1012,3.1012,3.1029,3.1015,3.0373,2.9162,2.8809,2.8118,2.6959,2.6589,2.6589,2.6589,2.6589,2.6555,2.6555,2.6572,2.6503,2.64,2.6329,2.6294,2.6294,2.6311,2.6311,2.6293,2.6311,2.6276,2.6222,2.6187,2.6117,2.5957,2.5921,2.5866,2.5772,2.5735,2.5624,2.5511,2.5419,2.5246,2.5025,2.4851,2.4731,2.4426,2.4057,2.3803,2.3595,2.3421,2.3224,2.2819,2.2326,2.1847,2.1175,2.044,1.9872,1.9449,1.9117,1.8741,1.8555,1.8078,1.754,4.0507,4.0389,4.0253,4.0067,3.9859,3.9618,3.9433,3.9333,3.9003,3.8342,3.7671,3.7331,3.6505,3.5316,3.5078,3.4747,3.4082,3.399,3.4009,3.3954,3.388,3.3807,3.3807,3.3807,3.3807,3.3793,3.3721,3.3712,3.3684,3.3615,3.3577,3.3491,3.3422,3.3319,3.3135,3.2977,3.2818,3.2639,3.2507,3.2371,3.2232,3.1982,3.1837,3.1783,3.1632,3.1481,3.1351,3.1332,3.1274,3.121,3.119,3.1171,3.119,3.119,3.1154,3.1171,3.119,3.1171,3.119,3.1151,3.0528,2.9194,2.8924,2.835,2.7029,2.6725,2.6725,2.6725,2.6725,2.6708,2.6725,2.6725,2.6725,2.6691,2.6572,2.6503,2.652,2.652,2.6486,2.6486,2.6502,2.6502,2.6451,2.6468,2.6399,2.6329,2.626,2.6171,2.6117,2.6026,2.5921,2.583,2.5756,2.5605,2.5394,2.5262,2.5111,2.4866,2.4528,2.4266,2.3894,2.3696,2.3523,2.3083,2.2725,2.2193,2.1722,2.1098,2.0521,2.0133,1.9593,1.8852,1.8365,1.8041,1.7644,4.0999,4.0409,4.0215,4.0036,3.9878,3.9611,3.9401,3.9229,3.9007,3.842,3.7757,3.7555,3.6978,3.6028,3.5954,3.5826,3.5459,3.4949,3.4692,3.4564,3.4027,3.3825,3.3807,3.3807,3.3807,3.3807,3.378,3.378,3.3762,3.3698,3.3657,3.3629,3.3559,3.3462,3.3334,3.3289,3.3152,3.2916,3.282,3.2673,3.2489,3.2336,3.2179,3.2001,3.1837,3.167,3.1523,3.1481,3.1366,3.121,3.119,3.119,3.121,3.121,3.121,3.121,3.121,3.119,3.119,3.121,3.0518,2.9286,2.91,2.8456,2.7095,2.6925,2.6925,2.6925,2.6942,2.6925,2.6925,2.6925,2.6892,2.6842,2.6725,2.664,2.6624,2.6657,2.664,2.6657,2.6657,2.6606,2.6589,2.6555,2.6537,2.6468,2.6434,2.6417,2.6346,2.6329,2.6241,2.6188,2.6099,2.5936,2.5789,2.5661,2.5492,2.5275,2.4985,2.4751,2.4328,2.3931,2.3739,2.3442,2.3274,2.2834,2.2542,2.2113,2.1549,2.0919,2.0472,1.9929,1.8983,1.8425,1.7913,4.1383,4.087,4.0349,4.0036,3.9826,3.9618,3.9389,3.9165,3.8993,3.8626,3.8166,3.8036,3.7566,3.6868,3.6798,3.6578,3.6248,3.5789,3.5353,3.4839,3.4174,3.3844,3.3807,3.3807,3.3807,3.3807,3.3807,3.3807,3.3793,3.3753,3.3721,3.3726,3.3671,3.3605,3.3538,3.3466,3.3345,3.3165,3.3057,3.2898,3.2721,3.2557,3.2405,3.2214,3.2054,3.1874,3.1709,3.1614,3.1462,3.1346,3.1327,3.1327,3.1327,3.1308,3.1327,3.1308,3.1308,3.1308,3.1327,3.131,3.0802,2.9854,2.9395,2.8578,2.7674,2.723,2.7008,2.7008,2.7008,2.7008,2.7008,2.7008,2.6992,2.6959,2.6859,2.6792,2.6708,2.6708,2.6708,2.6708,2.6708,2.6708,2.664,2.664,2.664,2.6606,2.6589,2.6555,2.652,2.652,2.6503,2.6416,2.6346,2.6206,2.6081,2.5972,2.5809,2.56,2.5333,2.5107,2.4715,2.4245,2.403,2.3861,2.3732,2.3537,2.3199,2.2863,2.2432,2.1888,2.1499,2.0798,1.9796,1.8983,1.844,4.1833,4.1513,4.0673,4.0122,3.98,3.9556,3.9344,3.917,3.8979,3.8848,3.8703,3.8701,3.823,3.7639,3.7606,3.7272,3.6633,3.6505,3.5899,3.5224,3.4486,3.4045,3.4045,3.3862,3.3825,3.3807,3.3807,3.3807,3.3807,3.3807,3.3807,3.378,3.3739,3.3712,3.3661,3.3577,3.3495,3.3375,3.3226,3.3104,3.2963,3.2787,3.2607,3.2473,3.2284,3.2108,3.1893,3.1746,3.1634,3.1593,3.15,3.1479,3.1498,3.1498,3.1517,3.15,3.1517,3.1536,3.1536,3.1502,3.1213,3.0429,2.9675,2.8956,2.8202,2.7533,2.7105,2.7121,2.7056,2.7088,2.7105,2.7089,2.7088,2.7088,2.7056,2.6941,2.6792,2.6741,2.6725,2.6725,2.6725,2.6725,2.6708,2.6708,2.6708,2.6674,2.6657,2.6624,2.6606,2.6606,2.6589,2.6537,2.6486,2.6434,2.6346,2.6258,2.6115,2.5915,2.5602,2.5339,2.5048,2.4655,2.4385,2.4177,2.403,2.3882,2.3672,2.3336,2.3036,2.2767,2.2301,2.1431,2.0481,1.9829,1.9238,4.286,4.157,4.1223,4.0539,3.9762,3.9502,3.9259,3.905,3.8935,3.8822,3.8735,3.8707,3.8597,3.8414,3.8358,3.834,3.7955,3.7456,3.6795,3.5991,3.5133,3.4784,3.4582,3.4192,3.3844,3.3825,3.3807,3.3807,3.3807,3.3807,3.3807,3.3807,3.3793,3.3734,3.3698,3.3671,3.3615,3.3534,3.3404,3.3334,3.3244,3.3026,3.2868,3.2755,3.2507,3.2284,3.2126,3.2037,3.1983,3.1893,3.1707,3.1557,3.1574,3.1578,3.1615,3.1634,3.169,3.1744,3.1744,3.1711,3.1454,3.0819,3.0093,2.9263,2.8619,2.7875,2.7475,2.7405,2.7388,2.7373,2.7373,2.7388,2.7357,2.731,2.7294,2.7231,2.7054,2.6957,2.6908,2.6876,2.6859,2.6826,2.6708,2.6708,2.6708,2.6708,2.6708,2.6708,2.6691,2.6674,2.6657,2.6606,2.6589,2.6538,2.6503,2.6434,2.6293,2.6169,2.5899,2.5696,2.5378,2.5088,2.4831,2.4569,2.4343,2.4177,2.4015,2.3767,2.3445,2.3256,2.3052,2.2269,2.1459,2.076,1.9945,4.358,4.2603,4.1705,4.0893,4.0212,3.9627,3.9224,3.9007,3.891,3.881,3.8723,3.8707,3.8707,3.8707,3.8707,3.8689,3.8505,3.7878,3.7272,3.6707,3.6028,3.5628,3.544,3.478,3.4229,3.3917,3.3807,3.3807,3.3807,3.3807,3.3807,3.3807,3.3825,3.378,3.3753,3.3776,3.3716,3.3661,3.3577,3.3506,3.3422,3.3289,3.3073,3.2948,3.2707,3.2524,3.2404,3.2318,3.2249,3.2161,3.1984,3.1838,3.1783,3.1838,3.1857,3.1911,3.1966,3.2037,3.2037,3.202,3.1899,3.1516,3.0784,3.0295,2.9646,2.8841,2.8209,2.8069,2.7844,2.76,2.76,2.7567,2.7569,2.7554,2.7539,2.7461,2.7322,2.7166,2.704,2.6975,2.6925,2.6909,2.6859,2.6825,2.6825,2.6825,2.6826,2.6809,2.6708,2.6691,2.6691,2.6674,2.6674,2.6657,2.664,2.6555,2.6468,2.6346,2.6205,2.6061,2.5862,2.5565,2.5278,2.5005,2.4726,2.4482,2.4317,2.4057,2.3846,2.3599,2.3336,2.2956,2.2509,2.1877,2.091,4.4202,4.3781,4.2281,4.137,4.0772,3.99,3.9319,3.8979,3.8866,3.878,3.8723,3.8707,3.8707,3.8707,3.8707,3.8707,3.8524,3.8138,3.7716,3.7584,3.685,3.6523,3.6266,3.5624,3.4931,3.4192,3.3899,3.3825,3.3807,3.3807,3.3807,3.3825,3.4009,3.4105,3.4045,3.4174,3.4385,3.4371,3.4123,3.3921,3.3749,3.3593,3.3286,3.3106,3.2916,3.2787,3.269,3.2607,3.2523,3.2403,3.2386,3.2318,3.2249,3.2214,3.2232,3.2249,3.2318,3.2386,3.2421,3.2403,3.2368,3.2351,3.1664,3.1277,3.0888,3.0021,2.9349,2.8981,2.875,2.8311,2.8018,2.8085,2.798,2.7824,2.7774,2.773,2.763,2.7402,2.7277,2.7105,2.7105,2.7105,2.7056,2.7006,2.6975,2.6959,2.6942,2.6893,2.6792,2.6742,2.6758,2.6725,2.6708,2.6691,2.6674,2.6657,2.6572,2.6503,2.6399,2.6329,2.6221,2.597,2.5656,2.5352,2.5084,2.4846,2.4625,2.4405,2.4183,2.3952,2.37,2.3413,2.3164,2.2926,2.1887,4.4699,4.3846,4.3464,4.2363,4.0898,4.0446,3.9747,3.8976,3.8873,3.8765,3.8707,3.8707,3.8707,3.8707,3.8707,3.8707,3.8652,3.8432,3.8395,3.8267,3.7658,3.7309,3.7147,3.6468,3.5973,3.5514,3.4724,3.4045,3.3972,3.3807,3.41,3.4027,3.4491,3.4802,3.5023,3.544,3.5642,3.5435,3.5021,3.4723,3.4552,3.4029,3.3531,3.3337,3.315,3.3024,3.2948,3.2884,3.2836,3.282,3.282,3.277,3.2721,3.2622,3.2573,3.2573,3.2688,3.277,3.277,3.2786,3.2786,3.2608,3.2127,3.1718,3.1484,3.0879,3.0339,3.016,3.0053,2.9771,2.9166,2.9094,2.8774,2.8421,2.8194,2.8156,2.8025,2.7856,2.7677,2.745,2.7373,2.731,2.7263,2.72,2.7169,2.7121,2.7089,2.7041,2.6942,2.6875,2.6859,2.6825,2.6758,2.6725,2.6708,2.6691,2.6657,2.6589,2.6521,2.6503,2.6398,2.6257,2.5989,2.5696,2.5413,2.5162,2.4946,2.4731,2.4487,2.4224,2.4048,2.387,2.358,2.3251,2.257,4.5061,4.4481,4.3935,4.3107,4.1999,4.0882,4.0117,3.9501,3.8994,3.8735,3.8707,3.8707,3.8707,3.8707,3.8707,3.8707,3.8707,3.8707,3.8707,3.856,3.8285,3.8102,3.801,3.7257,3.6997,3.6593,3.5711,3.5073,3.5092,3.5128,3.5018,3.5183,3.5532,3.5665,3.572,3.6009,3.6321,3.6197,3.5889,3.5618,3.5512,3.4727,3.4079,3.3582,3.3408,3.3301,3.3256,3.3214,3.315,3.315,3.3168,3.315,3.3135,3.3088,3.2977,3.2882,3.2979,3.3106,3.3122,3.3119,3.3168,3.3132,3.2754,3.261,3.2394,3.1923,3.1294,3.0948,3.0818,3.0674,3.026,3.021,2.9998,2.9665,2.9238,2.8923,2.8741,2.8431,2.8202,2.7965,2.7812,2.7704,2.7491,2.7432,2.7357,2.7312,2.7249,2.7169,2.7088,2.7056,2.7006,2.6925,2.6859,2.6792,2.6742,2.6742,2.6725,2.6657,2.6623,2.6606,2.6571,2.6416,2.6276,2.6063,2.5772,2.5508,2.5243,2.5013,2.4755,2.4528,2.4313,2.4095,2.3909,2.351,2.2862,4.5281,4.5034,4.4265,4.3699,4.3055,4.1619,4.0589,4.0037,3.9314,3.8888,3.8707,3.8707,3.8707,3.8707,3.8707,3.8707,3.8707,3.8707,3.8707,3.8689,3.8652,3.8652,3.8487,3.8157,3.7731,3.7639,3.7184,3.6597,3.6101,3.6064,3.6211,3.6193,3.6321,3.6538,3.6578,3.6872,3.6725,3.6743,3.6574,3.6505,3.6123,3.5384,3.4613,3.387,3.3654,3.352,3.3495,3.3433,3.3422,3.3404,3.3404,3.3437,3.3452,3.3477,3.339,3.3196,3.3274,3.3352,3.3382,3.3393,3.3422,3.3371,3.3422,3.3419,3.3292,3.2752,3.2222,3.1665,3.1579,3.1506,3.1329,3.1266,3.1098,3.0781,3.0301,2.9935,2.9737,2.9485,2.9238,2.8897,2.8447,2.8155,2.8044,2.7719,2.7647,2.7587,2.7526,2.7388,2.7326,2.7247,2.7184,2.7039,2.6941,2.6859,2.6809,2.6775,2.6742,2.6674,2.6674,2.6674,2.6623,2.6572,2.6434,2.6312,2.6152,2.5881,2.5605,2.5304,2.5088,2.4831,2.4589,2.4333,2.4122,2.3865,2.3371,4.5281,4.5072,4.4861,4.4197,4.3318,4.2725,4.1594,4.0184,3.989,3.939,3.8707,3.8707,3.8707,3.8707,3.8707,3.8707,3.8707,3.8707,3.8707,3.8707,3.8707,3.8707,3.8707,3.8652,3.8414,3.8377,3.8322,3.7569,3.6853,3.6541,3.6431,3.6578,3.7125,3.7364,3.7404,3.7808,3.8395,3.8248,3.7694,3.7033,3.634,3.554,3.5072,3.4572,3.4128,3.3698,3.3637,3.3591,3.3577,3.3577,3.3577,3.3577,3.3577,3.3591,3.3591,3.3549,3.3549,3.3563,3.3549,3.3563,3.3577,3.3559,3.3577,3.3577,3.3504,3.3468,3.3231,3.3358,3.319,3.2844,3.2347,3.2238,3.1878,3.1518,3.1195,3.0992,3.0816,3.0337,3.0107,3.0134,2.9773,2.9124,2.8701,2.8312,2.7957,2.79,2.7795,2.7677,2.7524,2.7448,2.734,2.7215,2.7071,2.6974,2.6892,2.6859,2.6809,2.6725,2.6708,2.6708,2.6674,2.664,2.6606,2.6486,2.6365,2.6224,2.5956,2.568,2.5397,2.5127,2.489,2.4609,2.4343,2.4045,2.3759,4.532,4.5148,4.4986,4.4569,4.3974,4.3235,4.2144,4.0959,4.025,3.9498,3.8814,3.8707,3.8707,3.8707,3.8707,3.8707,3.8707,3.8707,3.8707,3.8707,3.8707,3.8707,3.8707,3.8707,3.8707,3.8707,3.867,3.8432,3.7716,3.7606,3.7661,3.7661,3.7955,3.8175,3.8102,3.8524,3.8652,3.856,3.8303,3.7771,3.7107,3.656,3.594,3.5017,3.4632,3.4183,3.384,3.3712,3.3712,3.3712,3.3712,3.3712,3.3712,3.3712,3.3712,3.3712,3.3712,3.3684,3.3657,3.3684,3.3698,3.3712,3.3712,3.3712,3.3712,3.3712,3.3698,3.3694,3.3712,3.3511,3.3273,3.3213,3.3003,3.2642,3.2117,3.1949,3.1745,3.1258,3.0946,3.1042,3.107,3.0423,2.9796,2.9394,2.8862,2.8293,2.8187,2.8021,2.7827,2.763,2.7509,2.7371,2.7214,2.7104,2.7006,2.6924,2.6892,2.6825,2.6725,2.6708,2.6708,2.6674,2.664,2.6623,2.6538,2.6399,2.6259,2.6008,2.5696,2.5451,2.5201,2.493,2.465,2.4328,2.3882,4.5361,4.5224,4.5014,4.4808,4.4549,4.3647,4.2608,4.1479,4.072,3.9749,3.8937,3.8723,3.8707,3.8707,3.8707,3.8707,3.8707,3.8707,3.8707,3.8707,3.8707,3.8707,3.8707,3.8707,3.8707,3.8707,3.8707,3.8597,3.8634,3.8597,3.8524,3.8707,3.8524,3.8634,3.867,3.8689,3.8707,3.8689,3.8652,3.8303,3.786,3.7547,3.6743,3.5903,3.5224,3.4711,3.4211,3.3848,3.3807,3.3793,3.3793,3.3793,3.3793,3.378,3.378,3.3793,3.378,3.3766,3.3734,3.3748,3.3807,3.3807,3.3807,3.3793,3.3793,3.3807,3.3807,3.3793,3.3793,3.3793,3.3807,3.3752,3.3601,3.3355,3.3098,3.2912,3.2684,3.2281,3.2117,3.2286,3.2223,3.1863,3.1251,3.0686,2.9945,2.8977,2.8573,2.8407,2.812,2.785,2.7733,2.7632,2.7448,2.7293,2.7182,2.7087,2.7007,2.6909,2.6808,2.6758,2.6775,2.6725,2.6691,2.6674,2.6657,2.6572,2.6434,2.6206,2.5972,2.5733,2.5508,2.5278,2.4985,2.463,2.4071,4.5438,4.5359,4.5095,4.4889,4.4685,4.4412,4.3262,4.172,4.1403,4.0302,3.8887,3.8716,3.8707,3.8707,3.8707,3.8707,3.8707,3.8707,3.8707,3.8707,3.8707,3.8707,3.8707,3.8707,3.8707,3.8707,3.8707,3.8707,3.8707,3.8707,3.8707,3.8707,3.8707,3.8707,3.8707,3.8707,3.8707,3.8707,3.8707,3.8689,3.8322,3.7988,3.7419,3.6964,3.5866,3.4954,3.4876,3.4284,3.3844,3.3844,3.3807,3.3807,3.3807,3.3807,3.3807,3.3807,3.3807,3.3793,3.3793,3.3793,3.3807,3.3807,3.3807,3.3807,3.3807,3.3807,3.3807,3.3807,3.3807,3.3807,3.3807,3.3807,3.3793,3.372,3.3542,3.3473,3.3368,3.3418,3.3308,3.3542,3.3313,3.281,3.2582,3.1978,3.0948,2.997,2.924,2.904,2.8425,2.8122,2.8011,2.7882,2.7689,2.7539,2.7386,2.7294,2.7168,2.7039,2.6941,2.6909,2.6876,2.6826,2.6742,2.6708,2.6674,2.664,2.6589,2.6382,2.617,2.599,2.577,2.5508,2.5201,2.4846,2.4284,4.5477,4.54,4.5246,4.5057,4.4796,4.4565,4.3699,4.2481,4.178,4.0503,3.8773,3.8753,3.8707,3.8707,3.8707,3.8707,3.8707,3.8707,3.8707,3.8707,3.8707,3.8707,3.8707,3.8707,3.8707,3.8707,3.8707,3.8707,3.8707,3.8707,3.8707,3.8707,3.8707,3.8707,3.8707,3.8707,3.8707,3.8707,3.8707,3.8707,3.8634,3.845,3.7991,3.7382,3.7144,3.5903,3.5169,3.4747,3.4284,3.3935,3.3844,3.3807,3.3807,3.3807,3.3807,3.3807,3.3807,3.3807,3.3807,3.3807,3.3807,3.3807,3.3807,3.3807,3.3807,3.3807,3.3807,3.3807,3.3807,3.3807,3.3807,3.3807,3.3807,3.3807,3.3807,3.3807,3.3807,3.3807,3.3807,3.372,3.372,3.3523,3.3381,3.3245,3.2109,3.0977,3.0275,2.9585,2.8971,2.8461,2.8357,2.8158,2.7936,2.7777,2.763,2.7478,2.7324,2.7215,2.7071,2.7006,2.6958,2.6893,2.6809,2.6758,2.6708,2.6674,2.6623,2.6537,2.6381,2.617,2.5954,2.5715,2.5394,2.5045,2.4567,4.5495,4.5419,4.535,4.517,4.4907,4.4672,4.3994,4.3035,4.2013,4.0544,3.8825,3.8735,3.8707,3.8707,3.8707,3.8707,3.8707,3.8707,3.8707,3.8707,3.8707,3.8707,3.8707,3.8707,3.8707,3.8707,3.8707,3.8707,3.8707,3.8707,3.8707,3.8707,3.8707,3.8707,3.8707,3.8707,3.8707,3.8707,3.8707,3.8707,3.8707,3.8652,3.8524,3.7878,3.7566,3.6978,3.5922,3.5334,3.4711,3.427,3.4009,3.3844,3.3807,3.3807,3.3807,3.3807,3.3807,3.3807,3.3807,3.3807,3.3807,3.3807,3.3807,3.3807,3.3807,3.3807,3.3807,3.3807,3.3807,3.3807,3.3807,3.3807,3.3807,3.3807,3.3807,3.3807,3.3807,3.3807,3.3807,3.3788,3.3788,3.3775,3.372,3.356,3.2865,3.178,3.1003,3.0228,2.9497,2.9055,2.8774,2.8506,2.8191,2.8007,2.7832,2.7686,2.7554,2.7371,2.7246,2.7103,2.7039,2.6957,2.6892,2.6825,2.6775,2.6725,2.6674,2.659,2.6486,2.6346,2.6133,2.5897,2.5565,2.5256,2.5021,4.5559,4.5505,4.5429,4.5254,4.501,4.4789,4.4162,4.3173,4.1996,4.0489,3.8914,3.8753,3.8689,3.8707,3.8707,3.8707,3.8707,3.8707,3.8707,3.8707,3.8707,3.8707,3.8707,3.8707,3.8707,3.8707,3.8707,3.8707,3.8707,3.8707,3.8707,3.8707,3.8707,3.8707,3.8707,3.8707,3.8707,3.8707,3.8707,3.8707,3.8707,3.8707,3.8597,3.8414,3.7991,3.7459,3.6853,3.6009,3.5408,3.5023,3.4321,3.4082,3.4009,3.3862,3.3807,3.3807,3.3807,3.3807,3.3807,3.3807,3.3807,3.3807,3.3807,3.3807,3.3807,3.3807,3.3807,3.3807,3.3807,3.3807,3.3807,3.3807,3.3807,3.3807,3.3807,3.3807,3.3807,3.3807,3.3807,3.3807,3.3807,3.3807,3.3807,3.3683,3.3308,3.2559,3.1738,3.0938,3.017,2.9597,2.9295,2.8925,2.8573,2.8246,2.8077,2.7904,2.7745,2.7585,2.7432,2.7291,2.7151,2.7055,2.6974,2.6892,2.6825,2.6758,2.6742,2.6691,2.6572,2.6468,2.6292,2.6059,2.5731,2.5451,2.5243,4.5559,4.5495,4.5486,4.537,4.5151,4.4931,4.4304,4.3232,4.1586,4.0059,3.9047,3.8792,3.8735,3.8723,3.8707,3.8707,3.8707,3.8707,3.8707,3.8707,3.8707,3.8707,3.8707,3.8707,3.8707,3.8707,3.8707,3.8707,3.8707,3.8707,3.8707,3.8707,3.8707,3.8707,3.8707,3.8707,3.8707,3.8707,3.8707,3.8707,3.8707,3.8707,3.8707,3.8707,3.8377,3.8028,3.7603,3.6725,3.6303,3.5826,3.5073,3.4637,3.4491,3.4321,3.3935,3.388,3.3844,3.3807,3.3807,3.3807,3.3807,3.3862,3.3825,3.3825,3.3807,3.3807,3.3807,3.3807,3.3807,3.3807,3.3807,3.3807,3.3807,3.3807,3.3807,3.3807,3.3807,3.3807,3.3807,3.3807,3.3807,3.3807,3.3807,3.3807,3.3518,3.3266,3.2517,3.1777,3.1007,3.0282,2.98,2.9414,2.9044,2.8607,2.8313,2.8182,2.8011,2.7853,2.7674,2.7507,2.7353,2.7198,2.7087,2.699,2.6908,2.6825,2.6792,2.6742,2.6674,2.6555,2.6398,2.6257,2.6007,2.5735,2.5478,4.5577,4.5522,4.5504,4.5448,4.5339,4.5106,4.4308,4.2869,4.1193,3.99,3.9108,3.8877,3.8792,3.875,3.8735,3.8704,3.8689,3.8707,3.8707,3.8707,3.8707,3.8707,3.8707,3.8707,3.8707,3.8707,3.8707,3.8707,3.8707,3.8707,3.8707,3.8707,3.8707,3.8707,3.8707,3.8707,3.8707,3.8707,3.8707,3.8707,3.8707,3.8707,3.8707,3.8707,3.8597,3.845,3.8006,3.7621,3.7272,3.6615,3.6028,3.5481,3.5243,3.5018,3.4651,3.4669,3.4669,3.4724,3.478,3.478,3.489,3.4835,3.4229,3.3825,3.3807,3.3807,3.3807,3.3807,3.388,3.3844,3.388,3.3862,3.3862,3.3862,3.3807,3.3807,3.3807,3.3807,3.3807,3.3807,3.3807,3.3807,3.3807,3.3807,3.3715,3.3537,3.3298,3.2575,3.1858,3.1223,3.0588,3.019,2.9724,2.9282,2.8876,2.8505,2.8322,2.8099,2.7925,2.7733,2.7552,2.7402,2.7246,2.7103,2.7022,2.6957,2.6876,2.6809,2.6708,2.6623,2.652,2.6381,2.6241,2.6028,2.5758,4.5594,4.5586,4.5541,4.5504,4.5448,4.5086,4.3897,4.2071,4.0988,3.9959,3.9101,3.8979,3.8896,3.8822,3.8807,3.8762,3.8701,3.8704,3.8704,3.8707,3.8689,3.8707,3.8707,3.8707,3.8707,3.8707,3.8707,3.8707,3.8707,3.8707,3.8707,3.8707,3.8707,3.8707,3.8707,3.8707,3.8707,3.8707,3.8707,3.8707,3.8707,3.8707,3.8707,3.8707,3.867,3.8652,3.834,3.8043,3.7749,3.729,3.6795,3.6486,3.6321,3.6303,3.6285,3.6211,3.6119,3.6028,3.5973,3.5899,3.5936,3.5661,3.4816,3.4192,3.41,3.4339,3.4431,3.4394,3.4431,3.4156,3.399,3.3972,3.3935,3.3899,3.3825,3.3807,3.3807,3.3807,3.3807,3.3807,3.3807,3.3807,3.3807,3.3807,3.3807,3.3733,3.3568,3.3316,3.2685,3.2292,3.1693,3.1223,3.0695,3.0054,2.9588,2.9122,2.8612,2.8394,2.813,2.7925,2.7748,2.7635,2.7448,2.7308,2.7182,2.7054,2.6958,2.6859,2.6742,2.6657,2.6623,2.6503,2.6382,2.6293,2.6081,4.5594,4.5594,4.5577,4.555,4.5303,4.4068,4.2979,4.2112,4.0628,3.9583,3.9232,3.9082,3.9021,3.8935,3.891,3.8866,3.8822,3.8792,3.8777,3.8765,3.8735,3.8723,3.8707,3.8723,3.8707,3.8707,3.8707,3.8723,3.8707,3.8707,3.8707,3.8707,3.8723,3.8723,3.8723,3.8707,3.8707,3.8707,3.8723,3.8707,3.8707,3.8707,3.8707,3.8707,3.8707,3.8707,3.856,3.845,3.8267,3.8157,3.7547,3.718,3.7162,3.6652,3.6285,3.6285,3.6266,3.6266,3.6285,3.6303,3.6395,3.6486,3.5844,3.5748,3.5587,3.5477,3.544,3.5238,3.5183,3.5037,3.4766,3.4651,3.4394,3.4119,3.4027,3.3954,3.3935,3.3807,3.3807,3.3807,3.3807,3.3807,3.3807,3.3807,3.3807,3.3807,3.3752,3.3605,3.3403,3.2991,3.2703,3.2214,3.1571,3.089,3.0274,2.9753,2.9143,2.8652,2.8586,2.8457,2.8283,2.8103,2.7732,2.7496,2.7426,2.7219,2.7008,2.6925,2.6842,2.6792,2.6742,2.6623,2.6521,2.6434,2.6363,4.5594,4.5594,4.5594,4.5568,4.5207,4.3627,4.2717,4.218,4.0499,3.9587,3.9433,3.9285,3.9183,3.9133,3.9036,3.8983,3.8939,3.8862,3.8833,3.8837,3.881,3.8777,3.878,3.878,3.8795,3.878,3.878,3.881,3.8799,3.878,3.878,3.8795,3.878,3.878,3.8795,3.8795,3.8777,3.8765,3.8753,3.8723,3.8707,3.8707,3.8707,3.8707,3.8707,3.8707,3.8707,3.8707,3.8707,3.8707,3.8117,3.8006,3.797,3.7496,3.7294,3.7367,3.7367,3.7404,3.7422,3.7367,3.7294,3.7221,3.7184,3.7257,3.689,3.6615,3.6321,3.6046,3.6119,3.6083,3.5756,3.5426,3.4894,3.4412,3.4284,3.4156,3.4009,3.3844,3.3807,3.3807,3.3807,3.3807,3.3807,3.3807,3.3807,3.3807,3.3807,3.3752,3.3642,3.3458,3.3316,3.3065,3.2392,3.168,3.108,3.0555,3.0106,2.9784,2.9773,2.9574,2.9115,2.8941,2.8885,2.8323,2.7672,2.7466,2.7289,2.7073,2.6957,2.6908,2.6859,2.6742,2.6674,2.6589,2.652,4.5594,4.5594,4.5594,4.5568,4.5282,4.3709,4.2908,4.2574,4.0699,3.9773,3.9682,3.9521,3.9389,3.9311,3.921,3.9133,3.9078,3.9007,3.8964,3.8939,3.891,3.8896,3.8896,3.891,3.8881,3.8896,3.891,3.8896,3.8925,3.8925,3.8925,3.8925,3.8906,3.8906,3.8906,3.8906,3.8906,3.891,3.8837,3.8795,3.8735,3.8719,3.8723,3.8719,3.8719,3.8719,3.8719,3.8738,3.8723,3.8723,3.8704,3.8646,3.8591,3.8551,3.8536,3.8502,3.8352,3.8337,3.8285,3.8285,3.8395,3.8469,3.867,3.8432,3.7918,3.7496,3.7165,3.7055,3.7092,3.6872,3.656,3.634,3.5936,3.5275,3.4857,3.4619,3.4325,3.4082,3.3807,3.3807,3.3807,3.3807,3.3807,3.3807,3.3807,3.3807,3.3807,3.3807,3.377,3.3697,3.366,3.3642,3.3151,3.2502,3.2054,3.1568,3.1198,3.0997,3.0862,3.0595,3.0082,3.0051,3.0155,2.9344,2.8467,2.7896,2.7584,2.7353,2.7139,2.7006,2.6925,2.6842,2.6775,2.6708,2.6657,4.5594,4.5594,4.5594,4.5605,4.5346,4.3735,4.2989,4.2772,4.0931,4.0038,3.9848,3.9693,3.9587,3.9526,3.9389,3.9317,3.9272,3.9183,3.9129,3.9106,3.905,3.904,3.8983,3.8983,3.8968,3.8983,3.8979,3.9036,3.9059,3.9059,3.9059,3.9059,3.9059,3.9073,3.9073,3.9055,3.9073,3.9073,3.9031,3.8964,3.8892,3.8866,3.8851,3.8851,3.8851,3.8851,3.8851,3.8851,3.8851,3.8851,3.8851,3.8833,3.8833,3.8851,3.8822,3.8792,3.8762,3.875,3.8719,3.8723,3.8707,3.8707,3.8707,3.8707,3.8542,3.8285,3.8102,3.8046,3.7918,3.7624,3.7386,3.7202,3.689,3.6174,3.5481,3.5133,3.4747,3.4252,3.388,3.3807,3.3807,3.3807,3.3807,3.3807,3.3807,3.3807,3.3807,3.3807,3.3807,3.377,3.3752,3.3733,3.3752,3.328,3.285,3.2512,3.2135,3.1704,3.1442,3.1238,3.1042,3.0883,3.0728,3.0077,2.9352,2.8809,2.8219,2.7618,2.7421,2.7358,2.7193,2.7196,2.6909,2.6775,2.6725,4.5594,4.5594,4.5594,4.5594,4.5355,4.4145,4.337,4.2768,4.1461,4.0549,4.0098,3.9924,3.9815,3.9747,3.963,3.9539,3.9502,3.9389,3.9311,3.9264,3.9224,3.9221,3.9166,3.9106,3.9161,3.917,3.9224,3.9245,3.9272,3.9272,3.9285,3.9285,3.9272,3.9272,3.9266,3.9285,3.9285,3.9266,3.9266,3.9232,3.9142,3.9073,3.9007,3.8993,3.8993,3.9007,3.8993,3.8974,3.8993,3.8993,3.8993,3.8993,3.8979,3.8968,3.8939,3.891,3.8866,3.8822,3.8762,3.8735,3.8738,3.8704,3.8707,3.8707,3.8707,3.845,3.8469,3.8414,3.8414,3.8175,3.812,3.7991,3.7584,3.6945,3.6505,3.6138,3.5188,3.427,3.3972,3.3807,3.3807,3.3807,3.3807,3.3807,3.3807,3.3807,3.3807,3.3807,3.3807,3.3807,3.3807,3.3807,3.3807,3.377,3.3408,3.3161,3.2988,3.2569,3.2114,3.2229,3.223,3.1715,3.1247,3.0859,3.0391,2.9827,2.92,2.8615,2.8195,2.8133,2.7868,2.7584,2.7246,2.6925,2.6808,4.5594,4.5594,4.5594,4.5594,4.546,4.4662,4.3857,4.3101,4.2096,4.1227,4.0537,4.0205,4.0067,3.9965,3.9848,3.9773,3.9705,3.9623,3.9526,3.9477,3.9458,3.9426,3.9406,3.9393,3.9382,3.9446,3.9502,3.9526,3.9532,3.9532,3.9532,3.9544,3.9544,3.9532,3.9551,3.9551,3.9551,3.9532,3.9532,3.9551,3.9433,3.9279,3.9205,3.917,3.9156,3.9156,3.9151,3.9137,3.9156,3.917,3.9165,3.9183,3.917,3.9147,3.9073,3.9031,3.8979,3.8906,3.8851,3.8807,3.8762,3.8716,3.8704,3.8707,3.8707,3.8707,3.8707,3.8707,3.8707,3.8689,3.8652,3.8542,3.8102,3.7749,3.7364,3.6776,3.5532,3.4417,3.416,3.3935,3.3825,3.3825,3.3807,3.3807,3.3807,3.3807,3.3807,3.3807,3.3807,3.3807,3.3807,3.3807,3.3807,3.377,3.3715,3.361,3.3436,3.3386,3.304,3.3318,3.3346,3.2726,3.2249,3.2017,3.1509,3.0865,3.0412,2.9911,2.9523,2.9031,2.8769,2.84,2.7618,2.7297,2.6976,4.5594,4.5594,4.5594,4.5594,4.546,4.4682,4.4182,4.3799,4.2409,4.1549,4.1323,4.0649,4.0272,4.0186,4.0067,4.0053,4.0144,3.9992,3.9811,3.9717,3.9658,3.963,3.9582,3.9557,3.9582,3.9654,3.9747,3.9823,3.9781,3.9792,3.9815,3.9804,3.9815,3.9815,3.9815,3.9815,3.9815,3.9804,3.9804,3.9804,3.9747,3.9599,3.9446,3.9427,3.9427,3.9421,3.9421,3.9408,3.9408,3.9421,3.9427,3.9427,3.9389,3.9369,3.9285,3.9205,3.9142,3.905,3.8979,3.8892,3.8837,3.8762,3.875,3.8704,3.8689,3.8707,3.8707,3.8707,3.8707,3.8707,3.867,3.867,3.8377,3.8157,3.7863,3.6762,3.5605,3.4968,3.4564,3.4192,3.3862,3.3844,3.3807,3.3807,3.3807,3.3807,3.3807,3.3807,3.3807,3.3807,3.3807,3.3807,3.3807,3.3807,3.3788,3.377,3.3683,3.3762,3.3766,3.3671,3.3615,3.3569,3.3201,3.2788,3.2393,3.1819,3.1437,3.1146,3.0515,3.0021,2.9796,2.9357,2.8451,2.7635,2.7296]}]]